| time (UTC) | temp F | wind direction | speed knots | gust knots | rain 1hr in | rain 24hr in | rain mn in | humidity % | barometer mb |
| 20260902182742 | 71 | 97 | 0.0 | 0.0 | 0.01 | 0.28 | 0.02 | 94 | 1016.5 |
| 20260902182738 | 71 | 97 | 0.0 | 0.0 | 0.01 | 0.28 | 0.02 | 94 | 1016.5 |
| 20260902182528 | 71 | 97 | 0.0 | 0.0 | 0.01 | 0.28 | 0.02 | 94 | 1016.5 |
| 20260902182521 | 71 | 97 | 0.0 | 0.0 | 0.01 | 0.28 | 0.02 | 94 | 1016.6 |
| 20260902182428 | 71 | 97 | 0.0 | 0.0 | 0.01 | 0.28 | 0.02 | 94 | 1016.5 |
| 20260902182327 | 71 | 97 | 0.0 | 0.0 | 0.01 | 0.28 | 0.02 | 94 | 1016.5 |
| 20260902182226 | 71 | 97 | 0.0 | 0.0 | 0.01 | 0.28 | 0.02 | 94 | 1016.5 |
| 20260902182126 | 71 | 97 | 0.0 | 0.0 | 0.01 | 0.28 | 0.02 | 94 | 1016.5 |
| 20260902182026 | 71 | 97 | 0.0 | 0.0 | 0.01 | 0.28 | 0.02 | 94 | 1016.6 |
| 20260902182020 | 71 | 97 | 0.0 | 0.0 | 0.01 | 0.28 | 0.02 | 94 | 1016.7 |
| 20260902181925 | 71 | 97 | 0.0 | 0.0 | 0.01 | 0.28 | 0.02 | 94 | 1016.6 |
| 20260902181839 | 71 | 97 | 0.0 | 0.0 | 0.01 | 0.28 | 0.02 | 94 | 1016.7 |
| 20260902181834 | 71 | 97 | 0.0 | 0.0 | 0.01 | 0.28 | 0.02 | 94 | 1016.6 |
| 20260902181625 | 71 | 97 | 0.0 | 0.0 | 0.01 | 0.28 | 0.02 | 94 | 1016.7 |
| 20260902181539 | 71 | 97 | 0.0 | 0.0 | 0.01 | 0.28 | 0.02 | 94 | 1016.8 |
| 20260902181530 | 71 | 97 | 0.0 | 0.0 | 0.01 | 0.28 | 0.02 | 94 | 1016.8 |
| 20260902181520 | 71 | 97 | 0.0 | 0.0 | 0.01 | 0.28 | 0.02 | 94 | 1016.9 |
| 20260902181337 | 71 | 97 | 0.0 | 0.0 | 0.01 | 0.28 | 0.02 | 94 | 1016.8 |
| 20260902181333 | 71 | 97 | 0.0 | 0.0 | 0.01 | 0.28 | 0.02 | 94 | 1016.8 |
| 20260902181122 | 71 | 97 | 0.0 | 0.0 | 0.01 | 0.28 | 0.02 | 94 | 1016.8 |
| 20260902181050 | 71 | 97 | 0.0 | 0.0 | 0.01 | 0.28 | 0.02 | 94 | 1016.9 |
| 20260902181036 | 71 | 97 | 0.0 | 0.0 | 0.01 | 0.28 | 0.02 | 94 | 1016.8 |
| 20260902181027 | 71 | 97 | 0.0 | 0.0 | 0.01 | 0.28 | 0.02 | 94 | 1016.8 |
| 20260902180822 | 71 | 97 | 0.0 | 0.0 | 0.01 | 0.28 | 0.02 | 94 | 1016.8 |
| 20260902180748 | 71 | 97 | 0.0 | 0.0 | 0.01 | 0.28 | 0.02 | 94 | 1016.8 |
| 20260902180744 | 71 | 97 | 0.0 | 0.0 | 0.01 | 0.28 | 0.02 | 94 | 1016.8 |
| 20260902180738 | 71 | 97 | 0.0 | 0.0 | 0.01 | 0.28 | 0.02 | 94 | 1016.8 |
| 20260902180520 | 71 | 97 | 0.0 | 0.0 | 0.01 | 0.28 | 0.02 | 94 | 1017.0 |
| 20260902180419 | 71 | 97 | 0.0 | 0.0 | 0.01 | 0.28 | 0.02 | 94 | 1016.9 |
| 20260902180319 | 71 | 97 | 0.0 | 0.0 | 0.01 | 0.28 | 0.02 | 94 | 1016.9 |
| 20260902180220 | 71 | 97 | 0.0 | 0.0 | 0.01 | 0.28 | 0.02 | 94 | 1016.9 |
| 20260902180119 | 71 | 97 | 0.0 | 0.0 | 0.01 | 0.28 | 0.02 | 94 | 1017.0 |
| 20260902180020 | 71 | 97 | 0.0 | 0.0 | 0.01 | 0.28 | 0.02 | 94 | 1017.0 |
| 20260902175918 | 71 | 97 | 0.0 | 0.0 | 0.01 | 0.28 | 0.02 | 94 | 1016.9 |
| 20260902175816 | 71 | 97 | 0.0 | 0.0 | 0.01 | 0.28 | 0.02 | 94 | 1016.9 |
| 20260902175716 | 71 | 97 | 0.0 | 0.0 | 0.01 | 0.28 | 0.02 | 94 | 1017.0 |
| 20260902175616 | 71 | 97 | 0.0 | 1.7 | 0.01 | 0.28 | 0.02 | 94 | 1017.0 |
| 20260902175520 | 71 | 97 | 0.0 | 1.7 | 0.01 | 0.28 | 0.02 | 94 | 1017.0 |
| 20260902175515 | 71 | 97 | 0.0 | 1.7 | 0.01 | 0.28 | 0.02 | 94 | 1016.9 |
| 20260902175415 | 71 | 97 | 0.0 | 1.7 | 0.01 | 0.28 | 0.02 | 94 | 1016.9 |
| 20260902175315 | 71 | 97 | 0.0 | 1.7 | 0.01 | 0.28 | 0.02 | 94 | 1016.8 |
| 20260902175213 | 71 | 97 | 0.0 | 1.7 | 0.01 | 0.28 | 0.02 | 94 | 1016.8 |
| 20260902175113 | 71 | 97 | 0.0 | 1.7 | 0.01 | 0.28 | 0.02 | 93 | 1016.8 |
| 20260902175020 | 71 | 97 | 0.0 | 1.7 | 0.01 | 0.28 | 0.02 | 93 | 1016.8 |
| 20260902175012 | 71 | 97 | 0.0 | 1.7 | 0.01 | 0.28 | 0.02 | 93 | 1016.8 |
| 20260902174927 | 71 | 97 | 0.0 | 2.6 | 0.01 | 0.28 | 0.02 | 93 | 1016.7 |
| 20260902174912 | 71 | 97 | 0.0 | 3.5 | 0.01 | 0.28 | 0.02 | 93 | 1016.7 |
| 20260902174812 | 71 | 97 | 0.0 | 3.5 | 0.01 | 0.28 | 0.02 | 93 | 1016.7 |
| 20260902174711 | 71 | 97 | 0.9 | 4.3 | 0.01 | 0.28 | 0.02 | 93 | 1016.7 |
| 20260902174611 | 71 | 97 | 0.9 | 4.3 | 0.01 | 0.28 | 0.02 | 93 | 1016.7 |
| 20260902174520 | 71 | 97 | 0.0 | 5.2 | 0.01 | 0.28 | 0.02 | 93 | 1016.8 |
| 20260902174513 | 71 | 97 | 0.9 | 5.2 | 0.01 | 0.28 | 0.02 | 93 | 1016.7 |
| 20260902174424 | 71 | 97 | 0.9 | 5.2 | 0.01 | 0.28 | 0.02 | 93 | 1016.7 |
| 20260902174410 | 71 | 97 | 0.9 | 6.1 | 0.01 | 0.28 | 0.02 | 93 | 1016.7 |
| 20260902174309 | 71 | 97 | 0.9 | 7.0 | 0.01 | 0.28 | 0.02 | 93 | 1016.7 |
| 20260902174223 | 71 | 97 | 1.7 | 7.0 | 0.01 | 0.28 | 0.02 | 93 | 1016.6 |
| 20260902174218 | 71 | 97 | 0.9 | 7.0 | 0.01 | 0.28 | 0.02 | 93 | 1016.6 |
| 20260902174102 | 71 | 64 | 1.7 | 7.0 | 0.01 | 0.28 | 0.02 | 93 | 1016.5 |
| 20260902174058 | 71 | 87 | 1.7 | 7.0 | 0.01 | 0.28 | 0.02 | 93 | 1016.4 |
| 20260902174051 | 71 | 97 | 1.7 | 7.0 | 0.01 | 0.28 | 0.02 | 93 | 1016.5 |
| 20260902174044 | 71 | 96 | 1.7 | 7.0 | 0.01 | 0.28 | 0.02 | 93 | 1016.5 |
| 20260902174035 | 71 | 97 | 0.0 | 7.0 | 0.01 | 0.28 | 0.02 | 93 | 1016.6 |
| 20260902173823 | 71 | 137 | 1.7 | 7.0 | 0.01 | 0.28 | 0.02 | 93 | 1016.4 |
| 20260902173520 | 71 | 107 | 0.0 | 7.0 | 0.00 | 0.27 | 0.01 | 93 | 1016.4 |
| 20260902173505 | 71 | 106 | 1.7 | 7.0 | 0.00 | 0.27 | 0.01 | 93 | 1016.3 |
| 20260902173423 | 71 | 102 | 1.7 | 7.0 | 0.00 | 0.27 | 0.01 | 93 | 1016.3 |
| 20260902173404 | 71 | 102 | 1.7 | 3.5 | 0.00 | 0.27 | 0.01 | 93 | 1016.2 |
| 20260902173304 | 71 | 115 | 1.7 | 3.5 | 0.00 | 0.27 | 0.01 | 93 | 1016.2 |
| 20260902173203 | 71 | 107 | 1.7 | 3.5 | 0.00 | 0.27 | 0.01 | 92 | 1016.2 |
| 20260902173139 | 71 | 105 | 1.7 | 5.2 | 0.00 | 0.27 | 0.01 | 92 | 1016.4 |
| 20260902173103 | 71 | 107 | 1.7 | 3.5 | 0.00 | 0.27 | 0.01 | 93 | 1016.3 |
| 20260902173029 | 71 | 107 | 1.7 | 5.2 | 0.00 | 0.27 | 0.01 | 92 | 1016.4 |
| 20260902173020 | 71 | 107 | 2.6 | 5.2 | 0.00 | 0.27 | 0.01 | 92 | 1016.5 |
| 20260902172901 | 71 | 105 | 1.7 | 5.2 | 0.00 | 0.27 | 0.01 | 92 | 1016.5 |
| 20260902172802 | 71 | 105 | 1.7 | 5.2 | 0.00 | 0.27 | 0.01 | 92 | 1016.5 |
| 20260902172753 | 71 | 100 | 1.7 | 5.2 | 0.00 | 0.27 | 0.01 | 92 | 1016.6 |
| 20260902172601 | 71 | 100 | 1.7 | 5.2 | 0.00 | 0.27 | 0.01 | 92 | 1016.6 |
| 20260902172535 | 71 | 101 | 1.7 | 5.2 | 0.00 | 0.27 | 0.01 | 92 | 1016.7 |
| 20260902172528 | 71 | 101 | 1.7 | 5.2 | 0.00 | 0.27 | 0.01 | 92 | 1016.6 |
| 20260902172401 | 71 | 107 | 1.7 | 5.2 | 0.00 | 0.27 | 0.01 | 92 | 1016.6 |
| 20260902172300 | 71 | 108 | 1.7 | 5.2 | 0.00 | 0.27 | 0.01 | 92 | 1016.7 |
| 20260902172159 | 71 | 107 | 1.7 | 5.2 | 0.00 | 0.27 | 0.01 | 92 | 1016.7 |
| 20260902172059 | 71 | 110 | 1.7 | 3.5 | 0.00 | 0.27 | 0.01 | 92 | 1016.8 |
| 20260902172020 | 71 | 108 | 1.7 | 3.5 | 0.00 | 0.27 | 0.01 | 92 | 1016.9 |
| 20260902171958 | 71 | 108 | 1.7 | 3.5 | 0.00 | 0.27 | 0.01 | 92 | 1016.8 |
| 20260902171918 | 71 | 119 | 1.7 | 4.3 | 0.00 | 0.27 | 0.01 | 92 | 1016.8 |
| 20260902171858 | 71 | 119 | 1.7 | 4.3 | 0.00 | 0.27 | 0.01 | 92 | 1016.9 |
| 20260902171758 | 71 | 111 | 1.7 | 4.3 | 0.00 | 0.27 | 0.01 | 92 | 1016.9 |
| 20260902171657 | 71 | 111 | 1.7 | 4.3 | 0.00 | 0.27 | 0.01 | 92 | 1017.0 |
| 20260902171639 | 71 | 111 | 1.7 | 4.3 | 0.00 | 0.27 | 0.01 | 92 | 1017.0 |
| 20260902171557 | 71 | 111 | 1.7 | 4.3 | 0.00 | 0.27 | 0.01 | 92 | 1017.0 |
| 20260902171526 | 71 | 111 | 1.7 | 4.3 | 0.00 | 0.27 | 0.01 | 92 | 1017.0 |
| 20260902171520 | 72 | 111 | 1.7 | 3.5 | 0.00 | 0.27 | 0.01 | 92 | 1017.1 |
| 20260902171355 | 71 | 115 | 1.7 | 4.3 | 0.00 | 0.27 | 0.01 | 92 | 1017.0 |
| 20260902171255 | 71 | 161 | 1.7 | 4.3 | 0.00 | 0.27 | 0.01 | 92 | 1017.1 |
| 20260902171209 | 71 | 162 | 1.7 | 4.3 | 0.00 | 0.27 | 0.01 | 92 | 1017.1 |
| 20260902171204 | 71 | 162 | 1.7 | 4.3 | 0.00 | 0.27 | 0.01 | 92 | 1017.1 |
| 20260902171020 | 72 | 168 | 3.5 | 3.5 | 0.00 | 0.27 | 0.01 | 91 | 1017.3 |
| 20260902170955 | 72 | 169 | 1.7 | 4.3 | 0.00 | 0.27 | 0.01 | 91 | 1017.2 |
| 20260902170919 | 72 | 116 | 1.7 | 3.5 | 0.00 | 0.27 | 0.01 | 91 | 1017.2 |
| 20260902170855 | 72 | 116 | 1.7 | 3.5 | 0.00 | 0.27 | 0.01 | 91 | 1017.2 |
| 20260902170809 | 72 | 116 | 1.7 | 3.5 | 0.00 | 0.27 | 0.01 | 91 | 1017.2 |
| 20260902170805 | 72 | 116 | 1.7 | 3.5 | 0.00 | 0.27 | 0.01 | 91 | 1017.2 |
| 20260902170555 | 72 | 116 | 1.7 | 3.5 | 0.00 | 0.27 | 0.01 | 91 | 1017.3 |
| 20260902170520 | 72 | 116 | 1.7 | 3.5 | 0.00 | 0.27 | 0.01 | 91 | 1017.4 |
| 20260902170454 | 72 | 116 | 1.7 | 3.5 | 0.00 | 0.27 | 0.01 | 91 | 1017.3 |
| 20260902170416 | 72 | 117 | 1.7 | 3.5 | 0.00 | 0.27 | 0.01 | 91 | 1017.3 |
| 20260902170355 | 72 | 116 | 1.7 | 3.5 | 0.00 | 0.27 | 0.01 | 91 | 1017.3 |
| 20260902170251 | 72 | 117 | 1.7 | 3.5 | 0.00 | 0.27 | 0.01 | 91 | 1017.3 |
| 20260902170151 | 72 | 103 | 1.7 | 3.5 | 0.00 | 0.27 | 0.01 | 92 | 1017.3 |
| 20260902170051 | 72 | 102 | 1.7 | 3.5 | 0.00 | 0.27 | 0.01 | 92 | 1017.3 |
| 20260902170020 | 72 | 102 | 0.0 | 3.5 | 0.00 | 0.27 | 0.01 | 92 | 1017.4 |
| 20260902165950 | 72 | 102 | 1.7 | 3.5 | 0.00 | 0.27 | 0.01 | 92 | 1017.3 |
| 20260902165916 | 72 | 102 | 1.7 | 3.5 | 0.00 | 0.27 | 0.01 | 92 | 1017.3 |
| 20260902165851 | 72 | 102 | 1.7 | 3.5 | 0.00 | 0.27 | 0.01 | 91 | 1017.3 |
| 20260902165750 | 72 | 102 | 1.7 | 3.5 | 0.00 | 0.27 | 0.01 | 91 | 1017.2 |
| 20260902165650 | 72 | 101 | 1.7 | 3.5 | 0.00 | 0.27 | 0.01 | 91 | 1017.2 |
| 20260902165549 | 72 | 101 | 1.7 | 3.5 | 0.00 | 0.27 | 0.01 | 91 | 1017.2 |
| 20260902165520 | 72 | 101 | 0.9 | 3.5 | 0.00 | 0.27 | 0.01 | 91 | 1017.3 |
| 20260902165507 | 72 | 101 | 1.7 | 3.5 | 0.00 | 0.27 | 0.01 | 91 | 1017.2 |
| 20260902165356 | 72 | 101 | 1.7 | 3.5 | 0.00 | 0.27 | 0.01 | 91 | 1017.2 |
| 20260902165146 | 72 | 88 | 1.7 | 3.5 | 0.00 | 0.27 | 0.01 | 91 | 1017.3 |
| 20260902165046 | 72 | 88 | 1.7 | 3.5 | 0.00 | 0.27 | 0.01 | 92 | 1017.2 |
| 20260902165020 | 72 | 87 | 2.6 | 3.5 | 0.00 | 0.27 | 0.01 | 92 | 1017.3 |
| 20260902164944 | 72 | 84 | 1.7 | 3.5 | 0.00 | 0.27 | 0.01 | 92 | 1017.2 |
| 20260902164916 | 72 | 112 | 1.7 | 3.5 | 0.00 | 0.27 | 0.01 | 92 | 1017.2 |
| 20260902164844 | 72 | 112 | 1.7 | 3.5 | 0.00 | 0.27 | 0.01 | 92 | 1017.2 |
| 20260902164744 | 72 | 92 | 1.7 | 3.5 | 0.00 | 0.27 | 0.01 | 92 | 1017.2 |
| 20260902164644 | 72 | 92 | 1.7 | 3.5 | 0.00 | 0.27 | 0.01 | 92 | 1017.2 |
| 20260902164637 | 72 | 92 | 1.7 | 3.5 | 0.00 | 0.27 | 0.01 | 91 | 1017.2 |
| 20260902164631 | 72 | 92 | 1.7 | 3.5 | 0.00 | 0.27 | 0.01 | 91 | 1017.2 |
| 20260902164521 | 72 | 92 | 0.0 | 3.5 | 0.00 | 0.27 | 0.01 | 91 | 1017.3 |
| 20260902164355 | 72 | 83 | 2.6 | 6.1 | 0.00 | 0.27 | 0.01 | 91 | 1017.1 |
| 20260902164351 | 72 | 93 | 1.7 | 4.3 | 0.00 | 0.27 | 0.01 | 91 | 1017.2 |
| 20260902164204 | 72 | 63 | 1.7 | 6.1 | 0.00 | 0.27 | 0.01 | 91 | 1017.1 |
| 20260902164142 | 72 | 81 | 2.6 | 6.1 | 0.00 | 0.27 | 0.01 | 91 | 1017.1 |
| 20260902164109 | 72 | 63 | 1.7 | 6.1 | 0.00 | 0.27 | 0.01 | 91 | 1017.1 |
| 20260902164104 | 72 | 61 | 1.7 | 6.1 | 0.00 | 0.27 | 0.01 | 91 | 1017.1 |
| 20260902164055 | 72 | 46 | 1.7 | 6.1 | 0.00 | 0.27 | 0.01 | 91 | 1017.1 |
| 20260902164020 | 72 | 46 | 0.9 | 6.1 | 0.00 | 0.27 | 0.01 | 91 | 1017.2 |
| 20260902163815 | 72 | 69 | 1.7 | 6.1 | 0.00 | 0.27 | 0.01 | 92 | 1016.9 |
| 20260902163809 | 72 | 71 | 1.7 | 6.1 | 0.00 | 0.27 | 0.01 | 91 | 1017.0 |
| 20260902163547 | 72 | 112 | 1.7 | 6.1 | 0.00 | 0.27 | 0.01 | 91 | 1017.0 |
| 20260902163520 | 72 | 112 | 2.6 | 6.1 | 0.00 | 0.27 | 0.01 | 91 | 1017.1 |
| 20260902163412 | 72 | 72 | 1.7 | 6.1 | 0.00 | 0.27 | 0.01 | 92 | 1017.0 |
| 20260902163337 | 72 | 76 | 1.7 | 5.2 | 0.00 | 0.27 | 0.01 | 92 | 1017.1 |
| 20260902163237 | 72 | 59 | 1.7 | 5.2 | 0.00 | 0.27 | 0.01 | 92 | 1017.1 |
| 20260902163135 | 72 | 69 | 1.7 | 5.2 | 0.00 | 0.27 | 0.01 | 92 | 1017.1 |
| 20260902163035 | 72 | 78 | 1.7 | 5.2 | 0.00 | 0.27 | 0.01 | 92 | 1017.1 |
| 20260902163020 | 72 | 78 | 0.9 | 4.3 | 0.00 | 0.27 | 0.01 | 92 | 1017.2 |
| 20260902162951 | 72 | 78 | 1.7 | 5.2 | 0.00 | 0.27 | 0.01 | 92 | 1017.1 |
| 20260902162947 | 72 | 78 | 1.7 | 5.2 | 0.00 | 0.27 | 0.01 | 92 | 1017.1 |
| 20260902162939 | 72 | 78 | 1.7 | 5.2 | 0.00 | 0.27 | 0.01 | 92 | 1017.1 |
| 20260902162734 | 72 | 89 | 1.7 | 5.2 | 0.00 | 0.27 | 0.01 | 92 | 1017.1 |
| 20260902162632 | 72 | 89 | 0.9 | 5.2 | 0.00 | 0.27 | 0.01 | 92 | 1017.1 |
| 20260902162613 | 72 | 88 | 0.9 | 5.2 | 0.00 | 0.27 | 0.01 | 92 | 1017.1 |
| 20260902162520 | 72 | 88 | 0.9 | 4.3 | 0.00 | 0.27 | 0.01 | 92 | 1017.2 |
| 20260902162500 | 71 | 88 | 1.7 | 5.2 | 0.00 | 0.27 | 0.01 | 92 | 1017.1 |
| 20260902162455 | 71 | 88 | 1.7 | 5.2 | 0.00 | 0.27 | 0.01 | 92 | 1017.1 |
| 20260902162447 | 71 | 88 | 1.7 | 5.2 | 0.00 | 0.27 | 0.01 | 92 | 1017.1 |
| 20260902162131 | 71 | 88 | 1.7 | 5.2 | 0.00 | 0.27 | 0.01 | 92 | 1017.2 |
| 20260902162029 | 71 | 88 | 1.7 | 5.2 | 0.00 | 0.27 | 0.01 | 92 | 1017.2 |
| 20260902162020 | 72 | 84 | 3.5 | 4.3 | 0.00 | 0.27 | 0.01 | 92 | 1017.3 |
| 20260902161929 | 71 | 88 | 1.7 | 4.3 | 0.00 | 0.27 | 0.01 | 92 | 1017.2 |
| 20260902161910 | 71 | 87 | 1.7 | 4.3 | 0.00 | 0.27 | 0.01 | 92 | 1017.2 |
| 20260902161828 | 71 | 87 | 1.7 | 4.3 | 0.00 | 0.27 | 0.01 | 93 | 1017.3 |
| 20260902161728 | 71 | 88 | 1.7 | 4.3 | 0.00 | 0.27 | 0.01 | 92 | 1017.2 |
| 20260902161649 | 71 | 88 | 1.7 | 4.3 | 0.00 | 0.27 | 0.01 | 92 | 1017.2 |
| 20260902161536 | 71 | 88 | 1.7 | 4.3 | 0.00 | 0.27 | 0.01 | 92 | 1017.2 |
| 20260902161520 | 71 | 88 | 1.7 | 4.3 | 0.00 | 0.27 | 0.01 | 92 | 1017.4 |
| 20260902161410 | 71 | 90 | 1.7 | 4.3 | 0.00 | 0.27 | 0.01 | 92 | 1017.3 |
| 20260902161326 | 71 | 90 | 1.7 | 4.3 | 0.00 | 0.27 | 0.01 | 92 | 1017.2 |
| 20260902161226 | 71 | 90 | 1.7 | 4.3 | 0.00 | 0.27 | 0.01 | 92 | 1017.2 |
| 20260902161124 | 71 | 90 | 1.7 | 4.3 | 0.00 | 0.27 | 0.01 | 92 | 1017.3 |
| 20260902161023 | 71 | 55 | 1.7 | 4.3 | 0.00 | 0.27 | 0.01 | 92 | 1017.3 |
| 20260902161020 | 71 | 61 | 2.6 | 3.5 | 0.00 | 0.27 | 0.01 | 93 | 1017.4 |
| 20260902160924 | 71 | 61 | 1.7 | 3.5 | 0.00 | 0.27 | 0.01 | 92 | 1017.3 |
| 20260902160909 | 71 | 84 | 1.7 | 3.5 | 0.00 | 0.27 | 0.01 | 92 | 1017.3 |
| 20260902160822 | 71 | 85 | 1.7 | 3.5 | 0.00 | 0.27 | 0.01 | 92 | 1017.3 |
| 20260902160722 | 71 | 85 | 1.7 | 3.5 | 0.00 | 0.27 | 0.01 | 92 | 1017.3 |
| 20260902160620 | 71 | 85 | 1.7 | 3.5 | 0.00 | 0.27 | 0.01 | 92 | 1017.2 |
| 20260902160520 | 71 | 84 | 2.6 | 3.5 | 0.00 | 0.27 | 0.01 | 93 | 1017.2 |
| 20260902160410 | 71 | 82 | 0.9 | 3.5 | 0.00 | 0.27 | 0.01 | 93 | 1017.1 |
| 20260902160331 | 71 | 109 | 0.9 | 3.5 | 0.00 | 0.27 | 0.01 | 93 | 1017.0 |
| 20260902160327 | 71 | 109 | 0.9 | 3.5 | 0.00 | 0.27 | 0.01 | 93 | 1017.0 |
| 20260902160135 | 71 | 109 | 0.9 | 3.5 | 0.00 | 0.27 | 0.01 | 93 | 1017.1 |
| 20260902160118 | 71 | 107 | 0.9 | 3.5 | 0.00 | 0.27 | 0.01 | 93 | 1017.1 |
| 20260902160024 | 71 | 107 | 0.9 | 3.5 | 0.00 | 0.27 | 0.01 | 93 | 1017.1 |
| 20260902160020 | 71 | 107 | 0.9 | 3.5 | 0.00 | 0.27 | 0.01 | 93 | 1017.2 |
| 20260902160015 | 71 | 107 | 0.9 | 3.5 | 0.00 | 0.27 | 0.01 | 93 | 1017.1 |
| 20260902155829 | 71 | 109 | 0.9 | 3.5 | 0.00 | 0.27 | 0.01 | 93 | 1017.1 |
| 20260902155825 | 71 | 109 | 0.9 | 3.5 | 0.00 | 0.27 | 0.01 | 93 | 1017.1 |
| 20260902155614 | 71 | 109 | 1.7 | 3.5 | 0.00 | 0.27 | 0.01 | 93 | 1017.2 |
| 20260902155520 | 71 | 109 | 0.9 | 6.1 | 0.00 | 0.27 | 0.01 | 93 | 1017.3 |
| 20260902155514 | 71 | 109 | 1.7 | 6.1 | 0.00 | 0.27 | 0.01 | 93 | 1017.1 |
| 20260902155414 | 71 | 107 | 1.7 | 7.0 | 0.00 | 0.27 | 0.01 | 93 | 1017.2 |
| 20260902155406 | 71 | 103 | 1.7 | 7.0 | 0.00 | 0.27 | 0.01 | 93 | 1017.2 |
| 20260902155312 | 71 | 100 | 1.7 | 7.0 | 0.00 | 0.27 | 0.01 | 93 | 1017.2 |
| 20260902155212 | 71 | 100 | 1.7 | 7.0 | 0.00 | 0.27 | 0.01 | 93 | 1017.2 |
| 20260902155111 | 71 | 100 | 2.6 | 7.0 | 0.00 | 0.27 | 0.01 | 93 | 1017.1 |
| 20260902155026 | 71 | 101 | 2.6 | 7.0 | 0.00 | 0.27 | 0.01 | 93 | 1017.0 |
| 20260902155022 | 71 | 101 | 2.6 | 7.0 | 0.00 | 0.27 | 0.01 | 93 | 1017.1 |
| 20260902155020 | 71 | 101 | 0.0 | 7.0 | 0.00 | 0.27 | 0.01 | 93 | 1017.1 |
| 20260902154905 | 71 | 101 | 2.6 | 7.0 | 0.00 | 0.27 | 0.01 | 93 | 1017.0 |
| 20260902154810 | 71 | 106 | 2.6 | 7.0 | 0.00 | 0.27 | 0.01 | 93 | 1017.0 |
| 20260902154710 | 71 | 95 | 2.6 | 7.0 | 0.00 | 0.27 | 0.01 | 93 | 1017.0 |
| 20260902154610 | 71 | 86 | 2.6 | 7.0 | 0.00 | 0.27 | 0.01 | 93 | 1016.9 |
| 20260902154521 | 71 | 94 | 3.5 | 7.0 | 0.00 | 0.27 | 0.01 | 93 | 1017.1 |
| 20260902154510 | 71 | 98 | 2.6 | 7.0 | 0.00 | 0.27 | 0.01 | 93 | 1017.0 |
| 20260902154412 | 71 | 57 | 2.6 | 7.0 | 0.00 | 0.27 | 0.01 | 93 | 1017.0 |
| 20260902154406 | 71 | 57 | 2.6 | 7.0 | 0.00 | 0.27 | 0.01 | 93 | 1016.9 |
| 20260902154308 | 71 | 97 | 2.6 | 7.0 | 0.00 | 0.27 | 0.01 | 93 | 1016.9 |
| 20260902154207 | 71 | 52 | 2.6 | 7.0 | 0.00 | 0.27 | 0.01 | 93 | 1016.9 |
| 20260902154152 | 71 | 127 | 1.7 | 7.0 | 0.00 | 0.27 | 0.01 | 94 | 1016.9 |
| 20260902154148 | 71 | 96 | 1.7 | 7.0 | 0.00 | 0.27 | 0.01 | 94 | 1016.9 |
| 20260902154144 | 71 | 96 | 2.6 | 7.0 | 0.00 | 0.27 | 0.01 | 94 | 1016.8 |
| 20260902154138 | 71 | 89 | 1.7 | 7.0 | 0.00 | 0.27 | 0.01 | 93 | 1016.9 |
| 20260902154021 | 71 | 109 | 3.5 | 7.0 | 0.00 | 0.27 | 0.01 | 94 | 1017.0 |
| 20260902153718 | 71 | 96 | 1.7 | 7.0 | 0.00 | 0.27 | 0.01 | 94 | 1016.7 |
| 20260902153713 | 71 | 96 | 2.6 | 7.0 | 0.00 | 0.27 | 0.01 | 94 | 1016.8 |
| 20260902153520 | 71 | 83 | 1.7 | 4.3 | 0.00 | 0.27 | 0.01 | 94 | 1016.8 |
| 20260902153504 | 71 | 83 | 1.7 | 4.3 | 0.00 | 0.27 | 0.01 | 94 | 1016.7 |
| 20260902153403 | 71 | 65 | 1.7 | 5.2 | 0.00 | 0.27 | 0.01 | 94 | 1016.7 |
| 20260902153304 | 71 | 92 | 1.7 | 5.2 | 0.00 | 0.27 | 0.01 | 94 | 1016.7 |
| 20260902153203 | 71 | 84 | 2.6 | 5.2 | 0.00 | 0.27 | 0.01 | 94 | 1016.8 |
| 20260902153102 | 71 | 84 | 2.6 | 5.2 | 0.00 | 0.27 | 0.01 | 94 | 1016.8 |
| 20260902153021 | 71 | 85 | 3.5 | 5.2 | 0.00 | 0.27 | 0.01 | 94 | 1016.9 |
| 20260902153002 | 71 | 86 | 2.6 | 5.2 | 0.00 | 0.27 | 0.01 | 94 | 1016.8 |
| 20260902152907 | 71 | 111 | 2.6 | 5.2 | 0.00 | 0.27 | 0.01 | 94 | 1016.7 |
| 20260902152901 | 71 | 111 | 2.6 | 5.2 | 0.00 | 0.27 | 0.01 | 94 | 1016.7 |
| 20260902152800 | 71 | 111 | 2.6 | 5.2 | 0.00 | 0.27 | 0.01 | 94 | 1016.7 |
| 20260902152700 | 71 | 111 | 2.6 | 5.2 | 0.00 | 0.27 | 0.01 | 94 | 1016.7 |
| 20260902152600 | 71 | 69 | 1.7 | 5.2 | 0.00 | 0.27 | 0.01 | 94 | 1016.7 |
| 20260902152520 | 71 | 106 | 2.6 | 5.2 | 0.00 | 0.27 | 0.01 | 94 | 1016.9 |
| 20260902152459 | 70 | 106 | 1.7 | 5.2 | 0.00 | 0.27 | 0.01 | 94 | 1016.8 |
| 20260902152403 | 70 | 72 | 2.6 | 5.2 | 0.00 | 0.27 | 0.01 | 94 | 1016.8 |
| 20260902152358 | 70 | 72 | 2.6 | 5.2 | 0.00 | 0.27 | 0.01 | 94 | 1016.8 |
| 20260902152257 | 71 | 71 | 2.6 | 5.2 | 0.00 | 0.27 | 0.01 | 94 | 1016.8 |
| 20260902152157 | 70 | 80 | 1.7 | 6.1 | 0.00 | 0.27 | 0.01 | 94 | 1016.7 |
| 20260902152057 | 70 | 88 | 2.6 | 6.1 | 0.00 | 0.27 | 0.01 | 94 | 1016.7 |
| 20260902152021 | 70 | 34 | 1.7 | 6.1 | 0.00 | 0.27 | 0.01 | 94 | 1016.8 |
| 20260902151956 | 70 | 34 | 1.7 | 6.1 | 0.00 | 0.27 | 0.01 | 94 | 1016.7 |
| 20260902151903 | 70 | 72 | 1.7 | 6.1 | 0.00 | 0.27 | 0.01 | 94 | 1016.7 |
| 20260902151855 | 70 | 95 | 1.7 | 6.1 | 0.00 | 0.27 | 0.01 | 94 | 1016.7 |
| 20260902151755 | 70 | 115 | 2.6 | 6.1 | 0.00 | 0.27 | 0.01 | 94 | 1016.7 |
| 20260902151654 | 70 | 115 | 2.6 | 6.1 | 0.00 | 0.27 | 0.01 | 94 | 1016.8 |
| 20260902151607 | 70 | 96 | 2.6 | 6.1 | 0.00 | 0.27 | 0.01 | 94 | 1016.9 |
| 20260902151603 | 70 | 115 | 2.6 | 6.1 | 0.00 | 0.27 | 0.01 | 94 | 1016.9 |
| 20260902151550 | 70 | 96 | 2.6 | 6.1 | 0.00 | 0.27 | 0.01 | 94 | 1017.0 |
| 20260902151410 | 70 | 115 | 2.6 | 6.1 | 0.00 | 0.27 | 0.01 | 94 | 1016.8 |
| 20260902151406 | 70 | 98 | 2.6 | 6.1 | 0.00 | 0.27 | 0.01 | 94 | 1016.8 |
| 20260902151401 | 70 | 81 | 2.6 | 6.1 | 0.00 | 0.27 | 0.01 | 94 | 1016.8 |
| 20260902151230 | 70 | 70 | 2.6 | 5.2 | 0.00 | 0.27 | 0.01 | 94 | 1016.9 |
| 20260902151050 | 70 | 67 | 1.7 | 5.2 | 0.00 | 0.27 | 0.01 | 94 | 1016.9 |
| 20260902151021 | 70 | 71 | 2.6 | 5.2 | 0.00 | 0.27 | 0.01 | 95 | 1017.0 |
| 20260902151013 | 70 | 59 | 1.7 | 5.2 | 0.00 | 0.27 | 0.01 | 95 | 1016.9 |
| 20260902150849 | 70 | 59 | 1.7 | 5.2 | 0.00 | 0.27 | 0.01 | 95 | 1016.9 |
| 20260902150749 | 70 | 107 | 1.7 | 5.2 | 0.00 | 0.27 | 0.01 | 95 | 1016.9 |
| 20260902150700 | 70 | 104 | 1.7 | 5.2 | 0.00 | 0.27 | 0.01 | 95 | 1016.9 |
| 20260902150656 | 70 | 326 | 1.7 | 5.2 | 0.00 | 0.27 | 0.01 | 95 | 1016.9 |
| 20260902150521 | 70 | 90 | 1.7 | 6.1 | 0.00 | 0.27 | 0.01 | 95 | 1017.1 |
| 20260902150446 | 70 | 90 | 1.7 | 6.1 | 0.00 | 0.27 | 0.01 | 95 | 1017.0 |
| 20260902150403 | 70 | 90 | 1.7 | 6.1 | 0.00 | 0.27 | 0.01 | 95 | 1016.9 |
| 20260902150346 | 70 | 90 | 1.7 | 6.1 | 0.00 | 0.27 | 0.01 | 95 | 1016.9 |
| 20260902150247 | 70 | 83 | 1.7 | 6.1 | 0.00 | 0.27 | 0.01 | 95 | 1017.0 |
| 20260902150156 | 70 | 80 | 1.7 | 6.1 | 0.00 | 0.27 | 0.01 | 95 | 1017.0 |
| 20260902150152 | 70 | 83 | 1.7 | 6.1 | 0.00 | 0.27 | 0.01 | 95 | 1017.0 |
| 20260902150021 | 70 | 80 | 1.7 | 6.1 | 0.00 | 0.27 | 0.01 | 95 | 1017.1 |
| 20260902145959 | 70 | 80 | 1.7 | 6.1 | 0.00 | 0.27 | 0.01 | 95 | 1017.0 |
| 20260902145849 | 70 | 80 | 1.7 | 6.1 | 0.00 | 0.27 | 0.01 | 95 | 1017.0 |
| 20260902145840 | 70 | 76 | 1.7 | 6.1 | 0.00 | 0.27 | 0.01 | 95 | 1017.1 |
| 20260902145727 | 70 | 62 | 1.7 | 6.1 | 0.00 | 0.27 | 0.01 | 95 | 1017.0 |
| 20260902145520 | 70 | 92 | 2.6 | 5.2 | 0.00 | 0.27 | 0.01 | 95 | 1017.1 |
| 20260902145504 | 70 | 90 | 1.7 | 5.2 | 0.00 | 0.27 | 0.01 | 95 | 1017.0 |
| 20260902145455 | 70 | 88 | 1.7 | 5.2 | 0.00 | 0.27 | 0.01 | 95 | 1017.1 |
| 20260902145140 | 70 | 86 | 1.7 | 5.2 | 0.00 | 0.27 | 0.01 | 95 | 1017.1 |
| 20260902145107 | 70 | 78 | 1.7 | 5.2 | 0.00 | 0.27 | 0.01 | 95 | 1017.2 |
| 20260902145020 | 70 | 78 | 0.0 | 5.2 | 0.00 | 0.27 | 0.01 | 95 | 1017.2 |
| 20260902144954 | 70 | 77 | 1.7 | 5.2 | 0.00 | 0.27 | 0.01 | 95 | 1017.1 |
| 20260902144945 | 70 | 76 | 2.6 | 5.2 | 0.00 | 0.27 | 0.01 | 95 | 1017.2 |
| 20260902144738 | 70 | 77 | 1.7 | 5.2 | 0.00 | 0.27 | 0.01 | 96 | 1017.1 |
| 20260902144700 | 70 | 44 | 1.7 | 5.2 | 0.00 | 0.27 | 0.01 | 96 | 1017.0 |
| 20260902144546 | 70 | 105 | 1.7 | 5.2 | 0.00 | 0.27 | 0.01 | 96 | 1017.0 |
| 20260902144521 | 70 | 105 | 1.7 | 5.2 | 0.00 | 0.27 | 0.01 | 96 | 1017.1 |
| 20260902144400 | 70 | 108 | 2.6 | 5.2 | 0.00 | 0.27 | 0.01 | 96 | 1017.0 |
| 20260902144349 | 70 | 108 | 2.6 | 6.1 | 0.00 | 0.27 | 0.01 | 96 | 1017.0 |
| 20260902144345 | 70 | 108 | 2.6 | 6.1 | 0.00 | 0.27 | 0.01 | 96 | 1017.0 |
| 20260902144135 | 70 | 92 | 2.6 | 6.1 | 0.00 | 0.27 | 0.01 | 96 | 1017.0 |
| 20260902144034 | 70 | 92 | 2.6 | 6.1 | 0.00 | 0.27 | 0.01 | 96 | 1017.0 |
| 20260902144020 | 70 | 92 | 2.6 | 6.1 | 0.00 | 0.27 | 0.01 | 96 | 1017.1 |
| 20260902143934 | 70 | 77 | 2.6 | 6.1 | 0.00 | 0.27 | 0.01 | 96 | 1017.0 |
| 20260902143859 | 70 | 84 | 2.6 | 6.1 | 0.00 | 0.27 | 0.01 | 96 | 1017.0 |
| 20260902143833 | 70 | 83 | 2.6 | 6.1 | 0.00 | 0.27 | 0.01 | 96 | 1017.0 |
| 20260902143733 | 70 | 82 | 2.6 | 6.1 | 0.00 | 0.27 | 0.01 | 96 | 1017.0 |
| 20260902143632 | 70 | 85 | 2.6 | 6.1 | 0.00 | 0.27 | 0.01 | 96 | 1017.0 |
| 20260902143531 | 70 | 80 | 2.6 | 6.1 | 0.00 | 0.27 | 0.01 | 96 | 1017.0 |
| 20260902143520 | 70 | 83 | 3.5 | 6.1 | 0.00 | 0.27 | 0.01 | 96 | 1017.1 |
| 20260902143431 | 70 | 71 | 2.6 | 6.1 | 0.00 | 0.27 | 0.01 | 96 | 1017.0 |
| 20260902143359 | 70 | 104 | 1.7 | 6.1 | 0.00 | 0.27 | 0.01 | 96 | 1017.0 |
| 20260902143329 | 70 | 80 | 1.7 | 6.1 | 0.00 | 0.27 | 0.01 | 96 | 1017.0 |
| 20260902143242 | 70 | 14 | 1.7 | 5.2 | 0.00 | 0.27 | 0.01 | 96 | 1017.0 |
| 20260902143238 | 70 | 77 | 1.7 | 5.2 | 0.00 | 0.27 | 0.01 | 96 | 1017.0 |
| 20260902143028 | 70 | 13 | 0.9 | 5.2 | 0.00 | 0.27 | 0.01 | 96 | 1017.1 |
| 20260902143020 | 70 | 117 | 2.6 | 5.2 | 0.00 | 0.27 | 0.01 | 96 | 1017.2 |
| 20260902142928 | 70 | 60 | 0.9 | 5.2 | 0.00 | 0.27 | 0.01 | 96 | 1017.1 |
| 20260902142859 | 70 | 71 | 0.9 | 4.3 | 0.00 | 0.27 | 0.01 | 96 | 1017.1 |
| 20260902142828 | 70 | 76 | 0.9 | 4.3 | 0.00 | 0.27 | 0.01 | 96 | 1017.1 |
| 20260902142726 | 70 | 100 | 0.9 | 3.5 | 0.00 | 0.27 | 0.01 | 96 | 1017.2 |
| 20260902142633 | 70 | 78 | 0.9 | 3.5 | 0.00 | 0.27 | 0.01 | 97 | 1017.1 |
| 20260902142629 | 70 | 49 | 0.9 | 3.5 | 0.00 | 0.27 | 0.01 | 96 | 1017.1 |
| 20260902142625 | 70 | 98 | 0.9 | 3.5 | 0.00 | 0.27 | 0.01 | 96 | 1017.2 |
| 20260902142616 | 70 | 49 | 0.9 | 3.5 | 0.00 | 0.27 | 0.01 | 96 | 1017.2 |
| 20260902142521 | 70 | 49 | 0.0 | 3.5 | 0.00 | 0.27 | 0.01 | 96 | 1017.2 |
| 20260902142337 | 70 | 95 | 0.9 | 3.5 | 0.00 | 0.27 | 0.01 | 97 | 1017.1 |
| 20260902142333 | 70 | 71 | 0.9 | 3.5 | 0.00 | 0.27 | 0.01 | 97 | 1017.1 |
| 20260902142123 | 70 | 95 | 0.9 | 7.0 | 0.00 | 0.27 | 0.01 | 97 | 1017.0 |
| 20260902142035 | 70 | 95 | 0.0 | 7.0 | 0.00 | 0.27 | 0.01 | 97 | 1017.1 |
| 20260902142022 | 70 | 95 | 0.9 | 7.0 | 0.00 | 0.27 | 0.01 | 97 | 1017.1 |
| 20260902141922 | 70 | 85 | 0.9 | 7.0 | 0.00 | 0.27 | 0.01 | 97 | 1017.0 |
| 20260902141859 | 70 | 77 | 0.9 | 7.0 | 0.00 | 0.27 | 0.01 | 97 | 1016.9 |
| 20260902141821 | 70 | 83 | 0.9 | 7.0 | 0.00 | 0.27 | 0.01 | 97 | 1016.9 |
| 20260902141810 | 70 | 83 | 0.9 | 7.0 | 0.00 | 0.27 | 0.01 | 97 | 1016.9 |
| 20260902141658 | 69 | 87 | 0.9 | 7.0 | 0.00 | 0.27 | 0.01 | 97 | 1016.7 |
| 20260902141654 | 69 | 87 | 0.9 | 7.0 | 0.00 | 0.27 | 0.01 | 97 | 1016.7 |
| 20260902141648 | 69 | 83 | 0.9 | 7.0 | 0.00 | 0.27 | 0.01 | 97 | 1016.9 |
| 20260902141639 | 69 | 87 | 0.9 | 7.0 | 0.00 | 0.27 | 0.01 | 97 | 1016.9 |
| 20260902141550 | 70 | 87 | 0.0 | 7.0 | 0.00 | 0.27 | 0.01 | 97 | 1016.9 |
| 20260902141215 | 69 | 60 | 1.7 | 7.0 | 0.00 | 0.27 | 0.01 | 97 | 1016.7 |
| 20260902141113 | 69 | 65 | 0.9 | 6.1 | 0.00 | 0.27 | 0.01 | 97 | 1016.7 |
| 20260902141036 | 69 | 142 | 0.0 | 6.1 | 0.00 | 0.27 | 0.01 | 97 | 1016.9 |
| 20260902141013 | 69 | 142 | 0.9 | 6.1 | 0.00 | 0.27 | 0.01 | 97 | 1016.7 |
| 20260902140913 | 69 | 142 | 0.9 | 6.1 | 0.00 | 0.27 | 0.01 | 97 | 1016.8 |
| 20260902140900 | 69 | 145 | 0.9 | 6.1 | 0.00 | 0.27 | 0.01 | 97 | 1016.9 |
| 20260902140812 | 69 | 123 | 0.9 | 6.1 | 0.00 | 0.27 | 0.01 | 97 | 1016.9 |
| 20260902140711 | 69 | 112 | 0.9 | 6.1 | 0.00 | 0.27 | 0.01 | 97 | 1016.7 |
| 20260902140620 | 69 | 67 | 0.9 | 6.1 | 0.00 | 0.27 | 0.01 | 97 | 1016.8 |
| 20260902140611 | 69 | 112 | 0.9 | 6.1 | 0.00 | 0.27 | 0.01 | 97 | 1016.8 |
| 20260902140520 | 69 | 82 | 1.7 | 6.1 | 0.00 | 0.27 | 0.01 | 97 | 1016.8 |
| 20260902140517 | 69 | 86 | 0.9 | 6.1 | 0.00 | 0.27 | 0.01 | 97 | 1016.7 |
| 20260902140508 | 69 | 67 | 0.9 | 6.1 | 0.00 | 0.27 | 0.01 | 97 | 1016.7 |
| 20260902140309 | 69 | 93 | 0.9 | 6.1 | 0.00 | 0.27 | 0.01 | 97 | 1016.8 |
| 20260902140209 | 69 | 90 | 0.9 | 6.1 | 0.00 | 0.27 | 0.01 | 97 | 1016.8 |
| 20260902140108 | 69 | 92 | 0.9 | 3.5 | 0.00 | 0.27 | 0.01 | 97 | 1016.8 |
| 20260902140021 | 69 | 94 | 1.7 | 3.5 | 0.00 | 0.27 | 0.01 | 97 | 1017.0 |
| 20260902140009 | 69 | 94 | 0.9 | 3.5 | 0.00 | 0.27 | 0.01 | 97 | 1016.8 |
| 20260902135908 | 69 | 63 | 0.9 | 5.2 | 0.00 | 0.27 | 0.01 | 97 | 1016.9 |
| 20260902135859 | 69 | 78 | 0.9 | 5.2 | 0.00 | 0.27 | 0.01 | 97 | 1016.9 |
| 20260902135822 | 69 | 104 | 0.9 | 5.2 | 0.00 | 0.27 | 0.01 | 97 | 1016.9 |
| 20260902135818 | 69 | 80 | 0.9 | 5.2 | 0.00 | 0.27 | 0.01 | 97 | 1016.9 |
| 20260902135607 | 69 | 104 | 0.9 | 5.2 | 0.00 | 0.27 | 0.01 | 97 | 1016.8 |
| 20260902135520 | 69 | 82 | 0.0 | 5.2 | 0.00 | 0.27 | 0.01 | 97 | 1016.8 |
| 20260902135506 | 69 | 82 | 0.9 | 5.2 | 0.00 | 0.27 | 0.01 | 97 | 1016.8 |
| 20260902135406 | 69 | 106 | 0.9 | 5.2 | 0.00 | 0.27 | 0.01 | 97 | 1016.8 |
| 20260902135357 | 69 | 91 | 0.9 | 5.2 | 0.00 | 0.27 | 0.01 | 97 | 1016.8 |
| 20260902135307 | 69 | 86 | 0.9 | 5.2 | 0.00 | 0.27 | 0.01 | 97 | 1016.8 |
| 20260902135205 | 69 | 103 | 0.9 | 5.2 | 0.00 | 0.27 | 0.01 | 97 | 1016.9 |
| 20260902135104 | 69 | 98 | 0.9 | 5.2 | 0.00 | 0.27 | 0.01 | 97 | 1016.8 |
| 20260902135020 | 69 | 79 | 1.7 | 5.2 | 0.00 | 0.27 | 0.01 | 97 | 1016.9 |
| 20260902135005 | 69 | 91 | 0.9 | 5.2 | 0.00 | 0.27 | 0.01 | 97 | 1016.8 |
| 20260902134950 | 69 | 109 | 0.9 | 5.2 | 0.00 | 0.27 | 0.01 | 97 | 1016.8 |
| 20260902134945 | 69 | 89 | 0.9 | 5.2 | 0.00 | 0.27 | 0.01 | 97 | 1016.8 |
| 20260902134938 | 69 | 107 | 0.9 | 5.2 | 0.00 | 0.27 | 0.01 | 97 | 1016.8 |
| 20260902134827 | 69 | 112 | 0.9 | 3.5 | 0.00 | 0.27 | 0.01 | 97 | 1016.9 |
| 20260902134821 | 69 | 112 | 0.9 | 5.2 | 0.00 | 0.27 | 0.01 | 97 | 1016.8 |
| 20260902134521 | 69 | 93 | 0.0 | 3.5 | 0.00 | 0.27 | 0.01 | 97 | 1017.0 |
| 20260902134510 | 69 | 93 | 0.9 | 5.2 | 0.00 | 0.27 | 0.01 | 97 | 1016.9 |
| 20260902134500 | 69 | 116 | 0.9 | 5.2 | 0.00 | 0.27 | 0.01 | 97 | 1016.9 |
| 20260902134301 | 69 | 71 | 0.9 | 3.5 | 0.00 | 0.27 | 0.01 | 97 | 1016.9 |
| 20260902134201 | 69 | 105 | 0.9 | 3.5 | 0.00 | 0.27 | 0.01 | 97 | 1016.9 |
| 20260902134100 | 69 | 87 | 0.0 | 3.5 | 0.00 | 0.27 | 0.01 | 97 | 1017.0 |
| 20260902134050 | 69 | 127 | 2.6 | 3.5 | 0.00 | 0.27 | 0.01 | 97 | 1017.1 |
| 20260902134000 | 69 | 107 | 0.0 | 3.5 | 0.00 | 0.27 | 0.01 | 97 | 1017.0 |
| 20260902133901 | 69 | 79 | 0.9 | 3.5 | 0.00 | 0.27 | 0.01 | 97 | 1017.0 |
| 20260902133855 | 69 | 78 | 0.9 | 3.5 | 0.00 | 0.27 | 0.01 | 97 | 1017.0 |
| 20260902133759 | 69 | 78 | 0.9 | 3.5 | 0.00 | 0.27 | 0.01 | 97 | 1017.0 |
| 20260902133658 | 69 | 76 | 0.9 | 3.5 | 0.00 | 0.27 | 0.01 | 97 | 1017.0 |
| 20260902133558 | 69 | 70 | 0.9 | 3.5 | 0.00 | 0.27 | 0.01 | 97 | 1017.0 |
| 20260902133535 | 69 | 69 | 0.0 | 3.5 | 0.00 | 0.27 | 0.01 | 97 | 1017.1 |
| 20260902133457 | 69 | 69 | 0.9 | 3.5 | 0.00 | 0.27 | 0.01 | 97 | 1017.0 |
| 20260902133359 | 69 | 92 | 0.9 | 3.5 | 0.00 | 0.27 | 0.01 | 97 | 1016.9 |
| 20260902133352 | 69 | 93 | 0.9 | 3.5 | 0.00 | 0.27 | 0.01 | 97 | 1016.9 |
| 20260902133256 | 69 | 63 | 0.0 | 3.5 | 0.00 | 0.27 | 0.01 | 97 | 1016.9 |
| 20260902133156 | 69 | 61 | 0.0 | 3.5 | 0.00 | 0.27 | 0.01 | 97 | 1016.8 |
| 20260902133055 | 69 | 60 | 0.0 | 3.5 | 0.00 | 0.27 | 0.01 | 97 | 1016.8 |
| 20260902133021 | 69 | 67 | 0.0 | 2.6 | 0.00 | 0.27 | 0.01 | 97 | 1016.9 |
| 20260902132955 | 69 | 67 | 0.0 | 2.6 | 0.00 | 0.27 | 0.01 | 97 | 1016.8 |
| 20260902132850 | 69 | 77 | 0.0 | 2.6 | 0.00 | 0.27 | 0.01 | 97 | 1016.8 |
| 20260902132816 | 69 | 77 | 0.0 | 2.6 | 0.00 | 0.27 | 0.01 | 97 | 1016.8 |
| 20260902132702 | 69 | 77 | 0.0 | 2.6 | 0.00 | 0.27 | 0.01 | 97 | 1016.7 |
| 20260902132520 | 69 | 79 | 0.0 | 1.7 | 0.00 | 0.27 | 0.01 | 97 | 1016.9 |
| 20260902132453 | 69 | 79 | 0.0 | 1.7 | 0.00 | 0.27 | 0.01 | 97 | 1016.8 |
| 20260902132354 | 69 | 79 | 0.0 | 2.6 | 0.00 | 0.27 | 0.01 | 97 | 1016.7 |
| 20260902132252 | 69 | 57 | 0.9 | 2.6 | 0.00 | 0.27 | 0.01 | 97 | 1016.7 |
| 20260902132151 | 69 | 64 | 0.9 | 2.6 | 0.00 | 0.27 | 0.01 | 97 | 1016.7 |
| 20260902132051 | 69 | 74 | 0.9 | 2.6 | 0.00 | 0.27 | 0.01 | 97 | 1016.7 |
| 20260902132020 | 69 | 74 | 0.0 | 2.6 | 0.00 | 0.27 | 0.01 | 97 | 1016.8 |
| 20260902131951 | 69 | 74 | 0.9 | 2.6 | 0.00 | 0.27 | 0.01 | 97 | 1016.7 |
| 20260902131852 | 69 | 74 | 0.9 | 2.6 | 0.00 | 0.27 | 0.01 | 97 | 1016.7 |
| 20260902131804 | 69 | 72 | 0.9 | 2.6 | 0.00 | 0.27 | 0.01 | 97 | 1016.6 |
| 20260902131759 | 69 | 74 | 0.9 | 2.6 | 0.00 | 0.27 | 0.01 | 97 | 1016.7 |
| 20260902131548 | 69 | 72 | 0.9 | 2.6 | 0.00 | 0.27 | 0.01 | 97 | 1016.7 |
| 20260902131521 | 69 | 72 | 0.9 | 2.6 | 0.00 | 0.27 | 0.01 | 97 | 1016.7 |
| 20260902131448 | 69 | 71 | 0.9 | 2.6 | 0.00 | 0.27 | 0.01 | 97 | 1016.6 |
| 20260902131407 | 69 | 107 | 0.9 | 3.5 | 0.00 | 0.27 | 0.01 | 97 | 1016.6 |
| 20260902131401 | 69 | 60 | 0.9 | 2.6 | 0.00 | 0.27 | 0.01 | 97 | 1016.6 |
| 20260902131356 | 69 | 53 | 0.9 | 2.6 | 0.00 | 0.27 | 0.01 | 97 | 1016.6 |
| 20260902131206 | 69 | 94 | 0.9 | 3.5 | 0.00 | 0.27 | 0.01 | 97 | 1016.4 |
| 20260902131147 | 69 | 101 | 0.9 | 3.5 | 0.00 | 0.27 | 0.01 | 97 | 1016.5 |
| 20260902131114 | 69 | 94 | 0.9 | 3.5 | 0.00 | 0.27 | 0.01 | 97 | 1016.4 |
| 20260902131109 | 69 | 104 | 0.9 | 3.5 | 0.00 | 0.27 | 0.01 | 97 | 1016.5 |
| 20260902131100 | 69 | 107 | 0.9 | 3.5 | 0.00 | 0.27 | 0.01 | 97 | 1016.4 |
| 20260902131020 | 69 | 103 | 0.9 | 3.5 | 0.00 | 0.27 | 0.01 | 97 | 1016.5 |
| 20260902130758 | 69 | 110 | 0.9 | 3.5 | 0.00 | 0.27 | 0.01 | 97 | 1016.4 |
| 20260902130753 | 69 | 92 | 0.9 | 3.5 | 0.00 | 0.27 | 0.01 | 97 | 1016.4 |
| 20260902130544 | 68 | 109 | 0.9 | 3.5 | 0.00 | 0.27 | 0.01 | 97 | 1016.4 |
| 20260902130521 | 68 | 109 | 0.9 | 3.5 | 0.00 | 0.27 | 0.01 | 97 | 1016.6 |
| 20260902130443 | 68 | 109 | 0.9 | 3.5 | 0.00 | 0.27 | 0.01 | 97 | 1016.5 |
| 20260902130341 | 68 | 97 | 0.9 | 3.5 | 0.00 | 0.27 | 0.01 | 97 | 1016.5 |
| 20260902130241 | 68 | 69 | 0.9 | 2.6 | 0.00 | 0.27 | 0.01 | 97 | 1016.5 |
| 20260902130141 | 68 | 57 | 0.9 | 2.6 | 0.00 | 0.27 | 0.01 | 97 | 1016.5 |
| 20260902130040 | 68 | 57 | 0.0 | 2.6 | 0.00 | 0.27 | 0.01 | 97 | 1016.5 |
| 20260902130021 | 68 | 100 | 0.0 | 2.6 | 0.00 | 0.27 | 0.01 | 97 | 1016.6 |
| 20260902125958 | 68 | 73 | 0.0 | 2.6 | 0.00 | 0.27 | 0.01 | 97 | 1016.5 |
| 20260902125953 | 68 | 100 | 0.0 | 2.6 | 0.00 | 0.27 | 0.01 | 97 | 1016.5 |
| 20260902125945 | 68 | 98 | 0.0 | 2.6 | 0.00 | 0.27 | 0.01 | 97 | 1016.5 |
| 20260902125738 | 68 | 84 | 0.0 | 2.6 | 0.00 | 0.27 | 0.01 | 97 | 1016.5 |
| 20260902125636 | 68 | 88 | 0.0 | 1.7 | 0.00 | 0.27 | 0.01 | 97 | 1016.5 |
| 20260902125536 | 68 | 68 | 0.0 | 1.7 | 0.00 | 0.27 | 0.01 | 97 | 1016.5 |
| 20260902125520 | 68 | 62 | 0.9 | 3.5 | 0.00 | 0.27 | 0.01 | 97 | 1016.6 |
| 20260902125450 | 68 | 78 | 0.0 | 3.5 | 0.00 | 0.27 | 0.01 | 97 | 1016.5 |
| 20260902125442 | 68 | 78 | 0.0 | 3.5 | 0.00 | 0.27 | 0.01 | 97 | 1016.5 |
| 20260902125235 | 68 | 78 | 0.0 | 3.5 | 0.00 | 0.27 | 0.01 | 97 | 1016.5 |
| 20260902125135 | 68 | 78 | 0.0 | 3.5 | 0.00 | 0.27 | 0.01 | 97 | 1016.5 |
| 20260902125108 | 68 | 65 | 0.9 | 4.3 | 0.00 | 0.27 | 0.01 | 97 | 1016.6 |
| 20260902125033 | 68 | 78 | 0.0 | 3.5 | 0.00 | 0.27 | 0.01 | 97 | 1016.6 |
| 20260902125021 | 68 | 78 | 0.0 | 3.5 | 0.00 | 0.27 | 0.01 | 97 | 1016.6 |
| 20260902124953 | 68 | 78 | 0.9 | 3.5 | 0.00 | 0.27 | 0.01 | 97 | 1016.5 |
| 20260902124833 | 68 | 65 | 0.9 | 4.3 | 0.00 | 0.27 | 0.01 | 97 | 1016.6 |
| 20260902124732 | 68 | 96 | 0.9 | 4.3 | 0.00 | 0.27 | 0.01 | 97 | 1016.6 |
| 20260902124631 | 68 | 96 | 0.9 | 4.3 | 0.00 | 0.27 | 0.01 | 97 | 1016.5 |
| 20260902124531 | 68 | 90 | 0.9 | 4.3 | 0.00 | 0.27 | 0.01 | 97 | 1016.5 |
| 20260902124520 | 68 | 85 | 1.7 | 6.1 | 0.00 | 0.27 | 0.01 | 97 | 1016.6 |
| 20260902124430 | 68 | 71 | 0.9 | 6.1 | 0.00 | 0.27 | 0.01 | 97 | 1016.5 |
| 20260902124343 | 68 | 91 | 0.9 | 6.1 | 0.00 | 0.27 | 0.01 | 97 | 1016.5 |
| 20260902124331 | 68 | 89 | 0.9 | 6.1 | 0.00 | 0.27 | 0.01 | 97 | 1016.5 |
| 20260902124230 | 68 | 71 | 0.9 | 6.1 | 0.00 | 0.27 | 0.01 | 97 | 1016.5 |
| 20260902124129 | 68 | 71 | 1.7 | 6.1 | 0.00 | 0.27 | 0.01 | 97 | 1016.6 |
| 20260902124044 | 68 | 82 | 1.7 | 6.1 | 0.00 | 0.27 | 0.01 | 97 | 1016.6 |
| 20260902124039 | 68 | 88 | 1.7 | 6.1 | 0.00 | 0.27 | 0.01 | 97 | 1016.6 |
| 20260902124036 | 68 | 89 | 0.9 | 6.1 | 0.00 | 0.27 | 0.01 | 97 | 1016.7 |
| 20260902123857 | 68 | 86 | 1.7 | 6.1 | 0.00 | 0.27 | 0.01 | 97 | 1016.5 |
| 20260902123850 | 68 | 90 | 1.7 | 6.1 | 0.00 | 0.27 | 0.01 | 97 | 1016.5 |
| 20260902123737 | 68 | 85 | 0.9 | 6.1 | 0.00 | 0.27 | 0.01 | 97 | 1016.6 |
| 20260902123527 | 68 | 104 | 0.9 | 6.1 | 0.00 | 0.27 | 0.01 | 97 | 1016.6 |
| 20260902123520 | 68 | 68 | 0.9 | 5.2 | 0.00 | 0.27 | 0.01 | 97 | 1016.6 |
| 20260902123427 | 68 | 89 | 0.9 | 5.2 | 0.00 | 0.27 | 0.01 | 97 | 1016.5 |
| 20260902123342 | 68 | 105 | 0.9 | 5.2 | 0.00 | 0.27 | 0.01 | 97 | 1016.5 |
| 20260902123327 | 68 | 115 | 0.9 | 5.2 | 0.00 | 0.27 | 0.01 | 97 | 1016.5 |
| 20260902123226 | 68 | 98 | 0.9 | 5.2 | 0.00 | 0.27 | 0.01 | 97 | 1016.5 |
| 20260902123126 | 68 | 100 | 0.9 | 5.2 | 0.00 | 0.27 | 0.01 | 97 | 1016.4 |
| 20260902123026 | 68 | 61 | 0.0 | 3.5 | 0.00 | 0.27 | 0.01 | 97 | 1016.4 |
| 20260902123021 | 68 | 72 | 2.6 | 2.6 | 0.00 | 0.27 | 0.01 | 97 | 1016.6 |
| 20260902122925 | 68 | 108 | 0.0 | 1.7 | 0.00 | 0.27 | 0.01 | 97 | 1016.5 |
| 20260902122841 | 68 | 108 | 0.0 | 1.7 | 0.00 | 0.27 | 0.01 | 97 | 1016.5 |
| 20260902122823 | 68 | 108 | 0.0 | 2.6 | 0.00 | 0.27 | 0.01 | 97 | 1016.5 |
| 20260902122723 | 68 | 108 | 0.9 | 3.5 | 0.00 | 0.27 | 0.01 | 97 | 1016.4 |
| 20260902122622 | 68 | 107 | 0.9 | 3.5 | 0.00 | 0.27 | 0.01 | 97 | 1016.5 |
| 20260902122522 | 68 | 79 | 0.9 | 3.5 | 0.00 | 0.27 | 0.01 | 97 | 1016.5 |
| 20260902122440 | 68 | 79 | 0.9 | 3.5 | 0.00 | 0.27 | 0.01 | 97 | 1016.6 |
| 20260902122435 | 68 | 79 | 0.9 | 3.5 | 0.00 | 0.27 | 0.01 | 97 | 1016.6 |
| 20260902122427 | 68 | 79 | 0.9 | 3.5 | 0.00 | 0.27 | 0.01 | 97 | 1016.6 |
| 20260902122220 | 68 | 78 | 0.9 | 3.5 | 0.00 | 0.27 | 0.01 | 97 | 1016.5 |
| 20260902122119 | 68 | 80 | 0.9 | 3.5 | 0.00 | 0.27 | 0.01 | 97 | 1016.6 |
| 20260902122021 | 68 | 86 | 0.9 | 3.5 | 0.00 | 0.27 | 0.01 | 97 | 1016.7 |
| 20260902122019 | 68 | 86 | 0.9 | 3.5 | 0.00 | 0.27 | 0.01 | 97 | 1016.6 |
| 20260902121919 | 68 | 71 | 0.0 | 3.5 | 0.00 | 0.27 | 0.01 | 97 | 1016.6 |
| 20260902121838 | 68 | 66 | 0.9 | 3.5 | 0.00 | 0.27 | 0.01 | 97 | 1016.7 |
| 20260902121818 | 68 | 49 | 0.9 | 3.5 | 0.00 | 0.27 | 0.01 | 97 | 1016.7 |
| 20260902121718 | 68 | 63 | 0.9 | 3.5 | 0.00 | 0.27 | 0.01 | 97 | 1016.6 |
| 20260902121616 | 68 | 119 | 0.0 | 3.5 | 0.00 | 0.27 | 0.01 | 97 | 1016.6 |
| 20260902121520 | 68 | 107 | 0.0 | 2.6 | 0.00 | 0.27 | 0.01 | 97 | 1016.7 |
| 20260902121517 | 68 | 107 | 0.0 | 2.6 | 0.00 | 0.27 | 0.01 | 97 | 1016.6 |
| 20260902121417 | 68 | 107 | 0.0 | 2.6 | 0.00 | 0.27 | 0.01 | 97 | 1016.6 |
| 20260902121339 | 68 | 94 | 0.0 | 2.6 | 0.00 | 0.27 | 0.01 | 97 | 1016.5 |
| 20260902121329 | 68 | 55 | 0.0 | 2.6 | 0.00 | 0.27 | 0.01 | 97 | 1016.5 |
| 20260902121324 | 68 | 89 | 0.0 | 2.6 | 0.00 | 0.27 | 0.01 | 97 | 1016.5 |
| 20260902121114 | 68 | 55 | 0.0 | 2.6 | 0.00 | 0.27 | 0.01 | 97 | 1016.5 |
| 20260902121020 | 68 | 55 | 0.0 | 2.6 | 0.00 | 0.27 | 0.01 | 97 | 1016.5 |
| 20260902121015 | 68 | 55 | 0.9 | 2.6 | 0.00 | 0.27 | 0.01 | 97 | 1016.5 |
| 20260902120913 | 68 | 55 | 0.9 | 3.5 | 0.00 | 0.27 | 0.01 | 97 | 1016.4 |
| 20260902120837 | 68 | 61 | 0.9 | 3.5 | 0.00 | 0.27 | 0.01 | 97 | 1016.4 |
| 20260902120827 | 68 | 67 | 0.9 | 3.5 | 0.00 | 0.27 | 0.01 | 97 | 1016.4 |
| 20260902120822 | 68 | 86 | 0.9 | 3.5 | 0.00 | 0.27 | 0.01 | 97 | 1016.4 |
| 20260902120610 | 68 | 81 | 0.9 | 3.5 | 0.00 | 0.27 | 0.01 | 97 | 1016.4 |
| 20260902120523 | 68 | 81 | 0.9 | 3.5 | 0.00 | 0.27 | 0.01 | 97 | 1016.3 |
| 20260902120521 | 68 | 81 | 0.0 | 3.5 | 0.00 | 0.27 | 0.01 | 97 | 1016.4 |
| 20260902120518 | 68 | 81 | 0.9 | 3.5 | 0.00 | 0.27 | 0.01 | 97 | 1016.4 |
| 20260902120308 | 68 | 81 | 0.9 | 3.5 | 0.00 | 0.27 | 0.01 | 97 | 1016.3 |
| 20260902120221 | 68 | 68 | 0.9 | 3.5 | 0.00 | 0.27 | 0.01 | 97 | 1016.3 |
| 20260902120216 | 68 | 62 | 0.9 | 3.5 | 0.00 | 0.27 | 0.01 | 97 | 1016.3 |
| 20260902120021 | 68 | 110 | 1.7 | 3.5 | 0.00 | 0.27 | 0.01 | 97 | 1016.4 |
| 20260902120006 | 68 | 87 | 0.9 | 3.5 | 0.00 | 0.27 | 0.01 | 97 | 1016.3 |
| 20260902115905 | 68 | 67 | 0.9 | 3.5 | 0.00 | 0.27 | 0.01 | 97 | 1016.2 |
| 20260902115836 | 68 | 69 | 0.9 | 3.5 | 0.00 | 0.27 | 0.01 | 97 | 1016.2 |
| 20260902115813 | 68 | 57 | 0.9 | 3.5 | 0.00 | 0.27 | 0.01 | 97 | 1016.2 |
| 20260902115804 | 68 | 93 | 0.9 | 7.0 | 0.00 | 0.27 | 0.01 | 97 | 1016.2 |
| 20260902115651 | 68 | 88 | 0.9 | 7.0 | 0.00 | 0.27 | 0.01 | 97 | 1016.2 |
| 20260902115540 | 68 | 61 | 0.9 | 7.0 | 0.00 | 0.27 | 0.01 | 97 | 1016.3 |
| 20260902115533 | 68 | 88 | 0.9 | 7.0 | 0.00 | 0.27 | 0.01 | 97 | 1016.3 |
| 20260902115524 | 68 | 88 | 0.9 | 7.0 | 0.00 | 0.27 | 0.01 | 97 | 1016.2 |
| 20260902115521 | 68 | 88 | 0.9 | 7.0 | 0.00 | 0.27 | 0.01 | 97 | 1016.4 |
| 20260902115058 | 68 | 89 | 0.9 | 7.0 | 0.00 | 0.27 | 0.01 | 97 | 1016.3 |
| 20260902115021 | 68 | 78 | 0.0 | 7.0 | 0.00 | 0.27 | 0.01 | 97 | 1016.5 |
| 20260902114958 | 68 | 78 | 0.9 | 7.0 | 0.00 | 0.27 | 0.01 | 97 | 1016.4 |
| 20260902114858 | 68 | 72 | 0.9 | 7.0 | 0.00 | 0.27 | 0.01 | 97 | 1016.3 |
| 20260902114837 | 68 | 55 | 0.9 | 7.0 | 0.00 | 0.27 | 0.01 | 97 | 1016.3 |
| 20260902114811 | 68 | 99 | 0.0 | 3.5 | 0.00 | 0.27 | 0.01 | 97 | 1016.3 |
| 20260902114806 | 68 | 92 | 0.9 | 7.0 | 0.00 | 0.27 | 0.01 | 97 | 1016.3 |
| 20260902114556 | 68 | 88 | 0.0 | 3.5 | 0.00 | 0.27 | 0.01 | 97 | 1016.3 |
| 20260902114520 | 68 | 92 | 0.0 | 3.5 | 0.00 | 0.27 | 0.01 | 97 | 1016.4 |
| 20260902114456 | 68 | 92 | 0.0 | 3.5 | 0.00 | 0.27 | 0.01 | 97 | 1016.3 |
| 20260902114353 | 68 | 93 | 0.0 | 3.5 | 0.00 | 0.27 | 0.01 | 97 | 1016.3 |
| 20260902114334 | 68 | 84 | 0.0 | 3.5 | 0.00 | 0.27 | 0.01 | 97 | 1016.3 |
| 20260902114308 | 68 | 85 | 0.9 | 3.5 | 0.00 | 0.27 | 0.01 | 97 | 1016.3 |
| 20260902114303 | 68 | 85 | 0.9 | 2.6 | 0.00 | 0.27 | 0.01 | 97 | 1016.3 |
| 20260902114116 | 68 | 85 | 0.9 | 3.5 | 0.00 | 0.27 | 0.01 | 97 | 1016.3 |
| 20260902114020 | 68 | 85 | 0.0 | 3.5 | 0.00 | 0.27 | 0.01 | 97 | 1016.4 |
| 20260902114003 | 68 | 85 | 0.9 | 3.5 | 0.00 | 0.27 | 0.01 | 97 | 1016.3 |
| 20260902113833 | 68 | 81 | 0.9 | 3.5 | 0.00 | 0.27 | 0.01 | 97 | 1016.3 |
| 20260902113807 | 68 | 68 | 0.9 | 3.5 | 0.00 | 0.27 | 0.01 | 97 | 1016.3 |
| 20260902113801 | 68 | 82 | 0.9 | 3.5 | 0.00 | 0.27 | 0.01 | 97 | 1016.3 |
| 20260902113552 | 68 | 68 | 0.9 | 3.5 | 0.00 | 0.27 | 0.01 | 97 | 1016.3 |
| 20260902113521 | 68 | 68 | 0.0 | 3.5 | 0.00 | 0.27 | 0.01 | 97 | 1016.4 |
| 20260902113452 | 68 | 68 | 0.9 | 3.5 | 0.00 | 0.27 | 0.01 | 97 | 1016.3 |
| 20260902113351 | 68 | 62 | 0.9 | 3.5 | 0.00 | 0.27 | 0.01 | 97 | 1016.4 |
| 20260902113332 | 68 | 57 | 0.9 | 3.5 | 0.00 | 0.27 | 0.01 | 97 | 1016.4 |
| 20260902113306 | 68 | 101 | 0.0 | 3.5 | 0.00 | 0.27 | 0.01 | 97 | 1016.3 |
| 20260902113300 | 68 | 57 | 0.9 | 3.5 | 0.00 | 0.27 | 0.01 | 97 | 1016.3 |
| 20260902113050 | 68 | 70 | 0.0 | 3.5 | 0.00 | 0.27 | 0.01 | 97 | 1016.3 |
| 20260902113020 | 68 | 66 | 2.6 | 3.5 | 0.00 | 0.27 | 0.01 | 97 | 1016.4 |
| 20260902112950 | 68 | 61 | 0.0 | 3.5 | 0.00 | 0.27 | 0.01 | 97 | 1016.3 |
| 20260902112849 | 68 | 45 | 0.0 | 2.6 | 0.00 | 0.27 | 0.01 | 97 | 1016.3 |
| 20260902112830 | 68 | 44 | 0.0 | 2.6 | 0.00 | 0.27 | 0.01 | 97 | 1016.3 |
| 20260902112749 | 68 | 44 | 0.0 | 2.6 | 0.00 | 0.27 | 0.01 | 97 | 1016.3 |
| 20260902112648 | 68 | 49 | 0.0 | 2.6 | 0.00 | 0.27 | 0.01 | 97 | 1016.2 |
| 20260902112601 | 68 | 92 | 0.0 | 2.6 | 0.00 | 0.27 | 0.01 | 97 | 1016.2 |
| 20260902112556 | 68 | 77 | 0.0 | 2.6 | 0.00 | 0.27 | 0.01 | 97 | 1016.2 |
| 20260902112521 | 68 | 82 | 0.9 | 2.6 | 0.00 | 0.27 | 0.01 | 97 | 1016.3 |
| 20260902112330 | 68 | 109 | 0.0 | 2.6 | 0.00 | 0.27 | 0.01 | 97 | 1016.2 |
| 20260902112246 | 69 | 65 | 0.0 | 2.6 | 0.00 | 0.27 | 0.01 | 97 | 1016.2 |
| 20260902112159 | 69 | 65 | 0.0 | 0.0 | 0.00 | 0.27 | 0.01 | 97 | 1016.2 |
| 20260902112154 | 69 | 69 | 0.0 | 0.0 | 0.00 | 0.27 | 0.01 | 97 | 1016.2 |
| 20260902112020 | 69 | 65 | 0.0 | 0.0 | 0.00 | 0.27 | 0.01 | 97 | 1016.4 |
| 20260902112013 | 69 | 63 | 0.0 | 0.0 | 0.00 | 0.27 | 0.01 | 97 | 1016.2 |
| 20260902112008 | 69 | 65 | 0.0 | 0.0 | 0.00 | 0.27 | 0.01 | 97 | 1016.2 |
| 20260902111852 | 69 | 65 | 0.0 | 0.0 | 0.00 | 0.27 | 0.01 | 97 | 1016.2 |
| 20260902111702 | 69 | 86 | 0.0 | 0.9 | 0.00 | 0.27 | 0.01 | 97 | 1016.2 |
| 20260902111658 | 68 | 84 | 0.0 | 2.6 | 0.00 | 0.27 | 0.01 | 97 | 1016.2 |
| 20260902111653 | 69 | 86 | 0.0 | 0.0 | 0.00 | 0.27 | 0.01 | 97 | 1016.2 |
| 20260902111521 | 68 | 86 | 0.0 | 0.9 | 0.00 | 0.27 | 0.01 | 97 | 1016.2 |
| 20260902111443 | 69 | 86 | 0.0 | 0.9 | 0.00 | 0.27 | 0.01 | 97 | 1016.1 |
| 20260902111433 | 69 | 86 | 0.0 | 2.6 | 0.00 | 0.27 | 0.01 | 97 | 1016.2 |
| 20260902111243 | 68 | 87 | 0.0 | 2.6 | 0.00 | 0.27 | 0.01 | 97 | 1016.2 |
| 20260902111141 | 68 | 89 | 0.0 | 2.6 | 0.00 | 0.27 | 0.01 | 97 | 1016.2 |
| 20260902111041 | 68 | 89 | 0.9 | 3.5 | 0.00 | 0.27 | 0.01 | 97 | 1016.2 |
| 20260902111021 | 68 | 84 | 0.0 | 3.5 | 0.00 | 0.27 | 0.01 | 97 | 1016.3 |
| 20260902110941 | 68 | 84 | 0.9 | 3.5 | 0.00 | 0.27 | 0.01 | 97 | 1016.2 |
| 20260902110824 | 68 | 84 | 0.9 | 3.5 | 0.00 | 0.27 | 0.01 | 97 | 1016.2 |
| 20260902110740 | 68 | 84 | 0.9 | 3.5 | 0.00 | 0.27 | 0.01 | 97 | 1016.3 |
| 20260902110654 | 68 | 80 | 0.9 | 3.5 | 0.00 | 0.27 | 0.01 | 97 | 1016.3 |
| 20260902110649 | 68 | 84 | 0.9 | 3.5 | 0.00 | 0.27 | 0.01 | 97 | 1016.2 |
| 20260902110520 | 68 | 80 | 0.0 | 3.5 | 0.00 | 0.27 | 0.01 | 97 | 1016.4 |
| 20260902110438 | 68 | 80 | 0.9 | 3.5 | 0.00 | 0.27 | 0.01 | 97 | 1016.3 |
| 20260902110324 | 68 | 84 | 0.9 | 3.5 | 0.00 | 0.27 | 0.01 | 97 | 1016.3 |
| 20260902110236 | 68 | 112 | 0.9 | 3.5 | 0.00 | 0.27 | 0.01 | 97 | 1016.3 |
| 20260902110136 | 68 | 72 | 0.9 | 3.5 | 0.00 | 0.27 | 0.01 | 97 | 1016.3 |
| 20260902110034 | 68 | 71 | 0.9 | 3.5 | 0.00 | 0.27 | 0.01 | 97 | 1016.3 |
| 20260902110020 | 69 | 65 | 3.5 | 3.5 | 0.00 | 0.27 | 0.01 | 97 | 1016.5 |
| 20260902105935 | 69 | 74 | 0.0 | 3.5 | 0.00 | 0.27 | 0.01 | 97 | 1016.3 |
| 20260902105823 | 68 | 88 | 0.0 | 1.7 | 0.00 | 0.27 | 0.01 | 97 | 1016.3 |
| 20260902105733 | 68 | 99 | 0.9 | 1.7 | 0.00 | 0.27 | 0.01 | 97 | 1016.3 |
| 20260902105632 | 68 | 99 | 0.9 | 1.7 | 0.00 | 0.27 | 0.01 | 97 | 1016.3 |
| 20260902105546 | 68 | 100 | 0.0 | 1.7 | 0.00 | 0.27 | 0.01 | 97 | 1016.3 |
| 20260902105540 | 68 | 70 | 0.0 | 1.7 | 0.00 | 0.27 | 0.01 | 97 | 1016.4 |
| 20260902105521 | 68 | 68 | 1.7 | 1.7 | 0.00 | 0.27 | 0.01 | 97 | 1016.5 |
| 20260902105331 | 68 | 91 | 0.0 | 1.7 | 0.00 | 0.27 | 0.01 | 97 | 1016.3 |
| 20260902105323 | 68 | 80 | 0.0 | 1.7 | 0.00 | 0.27 | 0.01 | 97 | 1016.3 |
| 20260902105229 | 68 | 83 | 0.0 | 1.7 | 0.00 | 0.27 | 0.01 | 97 | 1016.3 |
| 20260902105129 | 68 | 92 | 0.0 | 1.7 | 0.00 | 0.27 | 0.01 | 97 | 1016.3 |
| 20260902105028 | 68 | 92 | 0.0 | 2.6 | 0.00 | 0.27 | 0.01 | 97 | 1016.2 |
| 20260902105020 | 68 | 92 | 0.0 | 2.6 | 0.00 | 0.27 | 0.01 | 97 | 1016.5 |
| 20260902105000 | 68 | 74 | 0.0 | 2.6 | 0.00 | 0.27 | 0.01 | 97 | 1016.3 |
| 20260902104956 | 68 | 69 | 0.0 | 2.6 | 0.00 | 0.27 | 0.01 | 97 | 1016.3 |
| 20260902104951 | 68 | 92 | 0.9 | 2.6 | 0.00 | 0.27 | 0.01 | 97 | 1016.3 |
| 20260902104835 | 68 | 74 | 0.0 | 2.6 | 0.00 | 0.27 | 0.01 | 97 | 1016.3 |
| 20260902104626 | 68 | 76 | 0.9 | 2.6 | 0.00 | 0.27 | 0.01 | 97 | 1016.3 |
| 20260902104526 | 68 | 71 | 0.9 | 2.6 | 0.00 | 0.27 | 0.01 | 97 | 1016.3 |
| 20260902104521 | 68 | 71 | 0.9 | 2.6 | 0.00 | 0.27 | 0.01 | 97 | 1016.5 |
| 20260902104426 | 68 | 87 | 0.9 | 2.6 | 0.00 | 0.27 | 0.01 | 97 | 1016.3 |
| 20260902104321 | 68 | 86 | 0.9 | 2.6 | 0.00 | 0.27 | 0.01 | 97 | 1016.3 |
| 20260902104224 | 68 | 86 | 0.9 | 2.6 | 0.00 | 0.27 | 0.01 | 97 | 1016.2 |
| 20260902104123 | 68 | 86 | 0.9 | 2.6 | 0.00 | 0.27 | 0.01 | 97 | 1016.2 |
| 20260902104106 | 68 | 53 | 1.7 | 2.6 | 0.00 | 0.27 | 0.01 | 97 | 1016.4 |
| 20260902104021 | 68 | 64 | 0.9 | 2.6 | 0.00 | 0.27 | 0.01 | 97 | 1016.2 |
| 20260902103921 | 68 | 95 | 0.9 | 2.6 | 0.00 | 0.27 | 0.01 | 97 | 1016.2 |
| 20260902103819 | 68 | 92 | 0.9 | 2.6 | 0.00 | 0.27 | 0.01 | 97 | 1016.1 |
| 20260902103721 | 68 | 89 | 0.9 | 2.6 | 0.00 | 0.27 | 0.01 | 97 | 1016.1 |
| 20260902103621 | 68 | 76 | 0.9 | 2.6 | 0.00 | 0.27 | 0.01 | 97 | 1016.1 |
| 20260902103521 | 68 | 61 | 0.0 | 2.6 | 0.00 | 0.27 | 0.01 | 97 | 1016.3 |
| 20260902103420 | 68 | 61 | 0.9 | 2.6 | 0.00 | 0.27 | 0.01 | 97 | 1016.1 |
| 20260902103322 | 68 | 86 | 0.0 | 2.6 | 0.00 | 0.27 | 0.01 | 97 | 1016.1 |
| 20260902103220 | 68 | 89 | 0.0 | 2.6 | 0.00 | 0.27 | 0.01 | 97 | 1016.1 |
| 20260902103120 | 68 | 93 | 0.9 | 2.6 | 0.00 | 0.27 | 0.01 | 97 | 1016.1 |
| 20260902103020 | 68 | 93 | 0.9 | 2.6 | 0.00 | 0.27 | 0.01 | 97 | 1016.3 |
| 20260902102919 | 68 | 93 | 0.9 | 2.6 | 0.00 | 0.27 | 0.01 | 97 | 1016.1 |
| 20260902102820 | 69 | 93 | 0.9 | 2.6 | 0.01 | 0.27 | 0.01 | 97 | 1016.0 |
| 20260902102718 | 68 | 96 | 0.9 | 2.6 | 0.01 | 0.27 | 0.01 | 97 | 1016.0 |
| 20260902102638 | 68 | 103 | 0.9 | 3.5 | 0.01 | 0.27 | 0.01 | 97 | 1015.9 |
| 20260902102618 | 68 | 96 | 0.9 | 2.6 | 0.01 | 0.27 | 0.01 | 97 | 1016.0 |
| 20260902102543 | 68 | 103 | 0.9 | 3.5 | 0.01 | 0.27 | 0.01 | 97 | 1015.9 |
| 20260902102538 | 68 | 101 | 0.9 | 2.6 | 0.01 | 0.27 | 0.01 | 97 | 1016.0 |
| 20260902102528 | 68 | 103 | 0.9 | 2.6 | 0.01 | 0.27 | 0.01 | 97 | 1016.0 |
| 20260902102521 | 68 | 101 | 0.0 | 2.6 | 0.01 | 0.27 | 0.01 | 97 | 1016.2 |
| 20260902102213 | 69 | 87 | 0.9 | 3.5 | 0.01 | 0.27 | 0.01 | 97 | 1015.9 |
| 20260902102125 | 69 | 84 | 0.9 | 3.5 | 0.01 | 0.27 | 0.01 | 97 | 1015.9 |
| 20260902102120 | 68 | 90 | 0.9 | 3.5 | 0.01 | 0.27 | 0.01 | 97 | 1015.9 |
| 20260902102021 | 69 | 84 | 0.0 | 3.5 | 0.01 | 0.27 | 0.01 | 97 | 1016.1 |
| 20260902101911 | 69 | 74 | 0.9 | 3.5 | 0.01 | 0.27 | 0.01 | 97 | 1015.9 |
| 20260902101817 | 69 | 74 | 0.9 | 5.2 | 0.01 | 0.27 | 0.01 | 97 | 1015.9 |
| 20260902101810 | 69 | 76 | 0.9 | 5.2 | 0.01 | 0.27 | 0.01 | 97 | 1015.9 |
| 20260902101710 | 69 | 80 | 0.9 | 5.2 | 0.01 | 0.27 | 0.01 | 97 | 1015.8 |
| 20260902101610 | 69 | 81 | 0.9 | 5.2 | 0.01 | 0.27 | 0.01 | 97 | 1015.9 |
| 20260902101535 | 69 | 81 | 0.0 | 5.2 | 0.01 | 0.27 | 0.01 | 97 | 1016.1 |
| 20260902101509 | 69 | 81 | 0.9 | 5.2 | 0.01 | 0.27 | 0.01 | 97 | 1015.9 |
| 20260902101409 | 69 | 89 | 0.9 | 5.2 | 0.01 | 0.27 | 0.01 | 97 | 1015.9 |
| 20260902101313 | 69 | 96 | 0.9 | 5.2 | 0.01 | 0.27 | 0.01 | 97 | 1015.9 |
| 20260902101306 | 69 | 93 | 0.9 | 5.2 | 0.01 | 0.27 | 0.01 | 97 | 1015.9 |
| 20260902101206 | 69 | 97 | 0.9 | 5.2 | 0.01 | 0.27 | 0.01 | 97 | 1015.9 |
| 20260902101104 | 69 | 73 | 0.0 | 5.2 | 0.01 | 0.27 | 0.01 | 97 | 1015.9 |
| 20260902101022 | 69 | 102 | 0.0 | 2.6 | 0.01 | 0.27 | 0.01 | 97 | 1015.9 |
| 20260902101018 | 69 | 97 | 0.0 | 2.6 | 0.01 | 0.27 | 0.01 | 97 | 1015.9 |
| 20260902101014 | 69 | 96 | 0.0 | 2.6 | 0.01 | 0.27 | 0.01 | 97 | 1016.0 |
| 20260902101009 | 69 | 74 | 0.0 | 5.2 | 0.01 | 0.27 | 0.01 | 97 | 1015.9 |
| 20260902101000 | 69 | 74 | 0.0 | 5.2 | 0.01 | 0.27 | 0.01 | 97 | 1015.9 |
| 20260902100952 | 69 | 100 | 0.0 | 5.2 | 0.01 | 0.27 | 0.01 | 97 | 1015.9 |
| 20260902100622 | 69 | 96 | 0.0 | 2.6 | 0.01 | 0.27 | 0.01 | 97 | 1015.9 |
| 20260902100521 | 69 | 96 | 0.0 | 2.6 | 0.01 | 0.27 | 0.01 | 97 | 1016.2 |
| 20260902100312 | 69 | 90 | 0.0 | 2.6 | 0.01 | 0.27 | 0.01 | 97 | 1015.9 |
| 20260902100302 | 69 | 74 | 0.0 | 2.6 | 0.01 | 0.27 | 0.01 | 97 | 1016.0 |
| 20260902100202 | 69 | 74 | 0.0 | 2.6 | 0.01 | 0.27 | 0.01 | 97 | 1015.9 |
| 20260902100050 | 69 | 73 | 0.9 | 2.6 | 0.01 | 0.27 | 0.01 | 97 | 1016.1 |
| 20260902100004 | 69 | 73 | 0.0 | 2.6 | 0.01 | 0.27 | 0.01 | 97 | 1015.9 |
| 20260902095903 | 69 | 77 | 0.0 | 2.6 | 0.01 | 0.27 | 0.01 | 97 | 1015.9 |
| 20260902095812 | 69 | 94 | 0.0 | 3.5 | 0.01 | 0.27 | 0.01 | 97 | 1015.9 |
| 20260902095802 | 69 | 93 | 0.9 | 3.5 | 0.01 | 0.27 | 0.01 | 97 | 1015.9 |
| 20260902095715 | 69 | 93 | 0.9 | 3.5 | 0.01 | 0.27 | 0.01 | 97 | 1015.9 |
| 20260902095711 | 69 | 93 | 0.9 | 3.5 | 0.01 | 0.27 | 0.01 | 97 | 1015.9 |
| 20260902095521 | 69 | 94 | 2.6 | 3.5 | 0.01 | 0.27 | 0.01 | 97 | 1016.1 |
| 20260902095501 | 69 | 94 | 0.9 | 3.5 | 0.01 | 0.27 | 0.01 | 97 | 1015.9 |
| 20260902095401 | 69 | 59 | 0.9 | 3.5 | 0.01 | 0.27 | 0.01 | 97 | 1015.9 |
| 20260902095312 | 69 | 82 | 0.9 | 3.5 | 0.01 | 0.27 | 0.01 | 97 | 1015.9 |
| 20260902095300 | 69 | 82 | 0.9 | 3.5 | 0.01 | 0.27 | 0.01 | 97 | 1015.9 |
| 20260902095234 | 69 | 82 | 0.0 | 3.5 | 0.01 | 0.27 | 0.01 | 97 | 1015.9 |
| 20260902095121 | 69 | 71 | 0.0 | 3.5 | 0.01 | 0.27 | 0.01 | 97 | 1015.9 |
| 20260902095116 | 69 | 82 | 0.0 | 3.5 | 0.01 | 0.27 | 0.01 | 97 | 1015.9 |
| 20260902095035 | 69 | 84 | 0.9 | 3.5 | 0.01 | 0.27 | 0.01 | 97 | 1016.1 |
| 20260902094810 | 69 | 71 | 0.0 | 3.5 | 0.01 | 0.27 | 0.01 | 97 | 1015.9 |
| 20260902094757 | 69 | 71 | 0.0 | 3.5 | 0.01 | 0.27 | 0.01 | 97 | 1015.9 |
| 20260902094732 | 69 | 65 | 0.0 | 2.6 | 0.01 | 0.27 | 0.01 | 97 | 1015.9 |
| 20260902094727 | 69 | 65 | 0.0 | 2.6 | 0.01 | 0.27 | 0.01 | 97 | 1015.9 |
| 20260902094614 | 69 | 65 | 0.0 | 2.6 | 0.01 | 0.27 | 0.01 | 97 | 1015.9 |
| 20260902094550 | 69 | 65 | 0.0 | 2.6 | 0.01 | 0.27 | 0.01 | 97 | 1016.1 |
| 20260902094311 | 69 | 65 | 0.0 | 3.5 | 0.01 | 0.27 | 0.01 | 97 | 1015.9 |
| 20260902094255 | 69 | 65 | 0.0 | 3.5 | 0.01 | 0.27 | 0.01 | 97 | 1015.9 |
| 20260902094207 | 69 | 70 | 0.0 | 3.5 | 0.01 | 0.27 | 0.01 | 97 | 1015.9 |
| 20260902094203 | 69 | 70 | 0.0 | 3.5 | 0.01 | 0.27 | 0.01 | 97 | 1015.9 |
| 20260902094036 | 69 | 70 | 0.0 | 3.5 | 0.01 | 0.27 | 0.01 | 97 | 1016.1 |
| 20260902094006 | 69 | 70 | 0.9 | 3.5 | 0.01 | 0.27 | 0.01 | 97 | 1015.8 |
| 20260902094000 | 69 | 70 | 0.9 | 3.5 | 0.01 | 0.27 | 0.01 | 97 | 1015.9 |
| 20260902093811 | 69 | 51 | 0.9 | 3.5 | 0.01 | 0.27 | 0.01 | 97 | 1015.8 |
| 20260902093805 | 69 | 86 | 0.9 | 4.3 | 0.01 | 0.27 | 0.01 | 97 | 1015.9 |
| 20260902093801 | 69 | 79 | 0.9 | 3.5 | 0.01 | 0.27 | 0.01 | 97 | 1015.9 |
| 20260902093551 | 69 | 86 | 0.9 | 4.3 | 0.01 | 0.27 | 0.01 | 97 | 1015.9 |
| 20260902093536 | 69 | 85 | 0.9 | 4.3 | 0.01 | 0.27 | 0.01 | 97 | 1016.1 |
| 20260902093504 | 69 | 63 | 0.9 | 4.3 | 0.01 | 0.27 | 0.01 | 97 | 1015.8 |
| 20260902093500 | 69 | 70 | 0.9 | 4.3 | 0.01 | 0.27 | 0.01 | 97 | 1015.9 |
| 20260902093323 | 69 | 63 | 0.9 | 4.3 | 0.01 | 0.27 | 0.01 | 97 | 1015.8 |
| 20260902093319 | 69 | 63 | 0.9 | 4.3 | 0.01 | 0.27 | 0.01 | 97 | 1015.8 |
| 20260902093314 | 69 | 63 | 0.9 | 4.3 | 0.01 | 0.27 | 0.01 | 97 | 1015.8 |
| 20260902093308 | 69 | 63 | 0.9 | 4.3 | 0.01 | 0.27 | 0.01 | 97 | 1015.8 |
| 20260902093051 | 69 | 78 | 0.9 | 4.3 | 0.01 | 0.27 | 0.01 | 97 | 1016.0 |
| 20260902092950 | 69 | 82 | 0.9 | 4.3 | 0.01 | 0.27 | 0.01 | 97 | 1015.8 |
| 20260902092849 | 69 | 79 | 0.9 | 4.3 | 0.01 | 0.27 | 0.01 | 97 | 1015.9 |
| 20260902092810 | 69 | 67 | 0.9 | 4.3 | 0.00 | 0.26 | 0.01 | 97 | 1015.9 |
| 20260902092745 | 69 | 82 | 0.0 | 4.3 | 0.00 | 0.26 | 0.01 | 97 | 1015.8 |
| 20260902092647 | 69 | 79 | 0.0 | 2.6 | 0.00 | 0.26 | 0.00 | 97 | 1015.8 |
| 20260902092546 | 69 | 86 | 0.9 | 2.6 | 0.00 | 0.26 | 0.00 | 97 | 1015.8 |
| 20260902092521 | 69 | 88 | 0.0 | 2.6 | 0.00 | 0.26 | 0.00 | 97 | 1016.0 |
| 20260902092446 | 69 | 88 | 0.9 | 2.6 | 0.00 | 0.26 | 0.00 | 97 | 1015.8 |
| 20260902092345 | 69 | 88 | 0.9 | 3.5 | 0.00 | 0.26 | 0.00 | 97 | 1015.8 |
| 20260902092309 | 69 | 88 | 0.9 | 3.5 | 0.00 | 0.26 | 0.00 | 97 | 1015.8 |
| 20260902092244 | 69 | 88 | 0.9 | 3.5 | 0.00 | 0.26 | 0.00 | 97 | 1015.8 |
| 20260902092144 | 69 | 88 | 0.9 | 3.5 | 0.00 | 0.26 | 0.00 | 97 | 1015.8 |
| 20260902092044 | 69 | 88 | 0.9 | 3.5 | 0.00 | 0.26 | 0.00 | 97 | 1015.8 |
| 20260902092021 | 69 | 82 | 0.9 | 3.5 | 0.00 | 0.26 | 0.00 | 97 | 1016.0 |
| 20260902091942 | 69 | 83 | 0.9 | 3.5 | 0.00 | 0.26 | 0.00 | 97 | 1015.8 |
| 20260902091908 | 69 | 97 | 0.9 | 3.5 | 0.00 | 0.26 | 0.00 | 97 | 1015.9 |
| 20260902091859 | 69 | 96 | 0.9 | 3.5 | 0.00 | 0.26 | 0.00 | 97 | 1015.9 |
| 20260902091749 | 69 | 80 | 0.9 | 3.5 | 0.00 | 0.26 | 0.00 | 97 | 1015.8 |
| 20260902091540 | 69 | 83 | 0.9 | 3.5 | 0.00 | 0.26 | 0.00 | 97 | 1015.8 |
| 20260902091520 | 69 | 71 | 2.6 | 3.5 | 0.00 | 0.26 | 0.00 | 97 | 1015.9 |
| 20260902091439 | 69 | 84 | 0.9 | 3.5 | 0.00 | 0.26 | 0.00 | 97 | 1015.7 |
| 20260902091339 | 69 | 59 | 0.0 | 3.5 | 0.00 | 0.26 | 0.00 | 97 | 1015.7 |
| 20260902091308 | 69 | 121 | 0.0 | 2.6 | 0.00 | 0.26 | 0.00 | 97 | 1015.7 |
| 20260902091239 | 69 | 121 | 0.9 | 2.6 | 0.00 | 0.26 | 0.00 | 97 | 1015.7 |
| 20260902091203 | 69 | 121 | 0.9 | 3.5 | 0.00 | 0.26 | 0.00 | 97 | 1015.7 |
| 20260902091050 | 69 | 82 | 0.9 | 4.3 | 0.00 | 0.26 | 0.00 | 97 | 1015.6 |
| 20260902091045 | 69 | 122 | 0.9 | 3.5 | 0.00 | 0.26 | 0.00 | 97 | 1015.7 |
| 20260902091021 | 69 | 86 | 0.0 | 3.5 | 0.00 | 0.26 | 0.00 | 97 | 1015.9 |
| 20260902090913 | 69 | 82 | 0.9 | 3.5 | 0.00 | 0.26 | 0.00 | 97 | 1015.6 |
| 20260902090735 | 69 | 82 | 0.9 | 4.3 | 0.00 | 0.26 | 0.00 | 97 | 1015.5 |
| 20260902090634 | 69 | 82 | 0.9 | 4.3 | 0.00 | 0.26 | 0.00 | 96 | 1015.6 |
| 20260902090534 | 69 | 83 | 0.9 | 4.3 | 0.00 | 0.26 | 0.00 | 96 | 1015.6 |
| 20260902090521 | 69 | 83 | 0.0 | 4.3 | 0.00 | 0.26 | 0.00 | 96 | 1015.8 |
| 20260902090435 | 69 | 83 | 0.9 | 4.3 | 0.00 | 0.26 | 0.00 | 96 | 1015.6 |
| 20260902090333 | 69 | 83 | 0.9 | 4.3 | 0.00 | 0.26 | 0.00 | 96 | 1015.5 |
| 20260902090305 | 69 | 86 | 0.9 | 4.3 | 0.00 | 0.26 | 0.00 | 96 | 1015.5 |
| 20260902090232 | 69 | 69 | 0.9 | 4.3 | 0.00 | 0.26 | 0.00 | 96 | 1015.5 |
| 20260902090133 | 69 | 96 | 0.9 | 4.3 | 0.00 | 0.26 | 0.00 | 96 | 1015.5 |
| 20260902090033 | 69 | 103 | 0.9 | 4.3 | 0.00 | 0.26 | 0.00 | 97 | 1015.5 |
| 20260902090021 | 69 | 76 | 0.9 | 4.3 | 0.00 | 0.26 | 0.00 | 97 | 1015.7 |
| 20260902085931 | 69 | 96 | 0.9 | 4.3 | 0.00 | 0.26 | 0.00 | 96 | 1015.5 |
| 20260902085830 | 69 | 46 | 0.9 | 4.3 | 0.00 | 0.26 | 0.00 | 97 | 1015.5 |
| 20260902085805 | 69 | 84 | 0.9 | 3.5 | 0.00 | 0.26 | 0.00 | 97 | 1015.5 |
| 20260902085757 | 69 | 68 | 0.0 | 2.6 | 0.00 | 0.26 | 0.00 | 96 | 1015.5 |
| 20260902085752 | 69 | 65 | 0.0 | 2.6 | 0.00 | 0.26 | 0.00 | 96 | 1015.5 |
| 20260902085748 | 69 | 69 | 0.0 | 2.6 | 0.00 | 0.26 | 0.00 | 97 | 1015.5 |
| 20260902085520 | 69 | 65 | 0.0 | 2.6 | 0.00 | 0.26 | 0.00 | 96 | 1015.6 |
| 20260902085429 | 69 | 65 | 0.0 | 2.6 | 0.00 | 0.26 | 0.00 | 97 | 1015.4 |
| 20260902085327 | 69 | 69 | 0.0 | 2.6 | 0.00 | 0.26 | 0.00 | 97 | 1015.4 |
| 20260902085306 | 69 | 84 | 0.0 | 2.6 | 0.00 | 0.26 | 0.00 | 97 | 1015.4 |
| 20260902085227 | 69 | 84 | 0.0 | 2.6 | 0.00 | 0.26 | 0.00 | 97 | 1015.5 |
| 20260902085127 | 69 | 84 | 0.0 | 2.6 | 0.00 | 0.26 | 0.00 | 97 | 1015.5 |
| 20260902085035 | 69 | 92 | 0.0 | 2.6 | 0.00 | 0.26 | 0.00 | 97 | 1015.7 |
| 20260902085026 | 69 | 91 | 0.0 | 2.6 | 0.00 | 0.26 | 0.00 | 97 | 1015.5 |
| 20260902084926 | 69 | 92 | 0.0 | 2.6 | 0.00 | 0.26 | 0.00 | 97 | 1015.5 |
| 20260902084804 | 69 | 91 | 0.0 | 2.6 | 0.00 | 0.26 | 0.00 | 97 | 1015.5 |
| 20260902084725 | 69 | 91 | 0.0 | 2.6 | 0.00 | 0.26 | 0.00 | 97 | 1015.4 |
| 20260902084624 | 69 | 91 | 0.9 | 2.6 | 0.00 | 0.26 | 0.00 | 97 | 1015.4 |
| 20260902084549 | 69 | 91 | 0.9 | 2.6 | 0.00 | 0.26 | 0.00 | 97 | 1015.4 |
| 20260902084544 | 69 | 90 | 0.0 | 2.6 | 0.00 | 0.26 | 0.00 | 97 | 1015.4 |
| 20260902084539 | 69 | 91 | 0.9 | 2.6 | 0.00 | 0.26 | 0.00 | 97 | 1015.4 |
| 20260902084521 | 69 | 91 | 0.0 | 2.6 | 0.00 | 0.26 | 0.00 | 97 | 1015.6 |
| 20260902084304 | 69 | 71 | 0.0 | 2.6 | 0.00 | 0.26 | 0.00 | 97 | 1015.4 |
| 20260902084220 | 69 | 57 | 0.0 | 2.6 | 0.00 | 0.26 | 0.00 | 97 | 1015.4 |
| 20260902084120 | 69 | 57 | 0.0 | 2.6 | 0.00 | 0.26 | 0.00 | 97 | 1015.4 |
| 20260902084021 | 69 | 55 | 0.0 | 2.6 | 0.00 | 0.26 | 0.00 | 97 | 1015.6 |
| 20260902084019 | 69 | 55 | 0.0 | 2.6 | 0.00 | 0.26 | 0.00 | 97 | 1015.4 |
| 20260902083919 | 69 | 55 | 0.9 | 3.5 | 0.00 | 0.26 | 0.00 | 97 | 1015.4 |
| 20260902083803 | 69 | 44 | 0.9 | 3.5 | 0.00 | 0.26 | 0.00 | 97 | 1015.3 |
| 20260902083718 | 69 | 76 | 0.0 | 3.5 | 0.00 | 0.26 | 0.00 | 97 | 1015.3 |
| 20260902083618 | 69 | 105 | 0.0 | 3.5 | 0.00 | 0.26 | 0.00 | 97 | 1015.3 |
| 20260902083521 | 69 | 117 | 0.9 | 3.5 | 0.00 | 0.26 | 0.00 | 97 | 1015.5 |
| 20260902083518 | 69 | 140 | 0.0 | 3.5 | 0.00 | 0.26 | 0.00 | 97 | 1015.2 |
| 20260902083417 | 69 | 117 | 0.0 | 3.5 | 0.00 | 0.26 | 0.00 | 97 | 1015.3 |
| 20260902083303 | 69 | 117 | 0.9 | 3.5 | 0.00 | 0.26 | 0.00 | 97 | 1015.3 |
| 20260902083216 | 69 | 117 | 0.9 | 3.5 | 0.00 | 0.26 | 0.00 | 97 | 1015.3 |
| 20260902083116 | 69 | 117 | 0.9 | 6.1 | 0.00 | 0.26 | 0.00 | 97 | 1015.3 |
| 20260902083021 | 69 | 117 | 0.9 | 6.1 | 0.00 | 0.26 | 0.00 | 97 | 1015.5 |
| 20260902083016 | 69 | 117 | 0.9 | 6.1 | 0.00 | 0.26 | 0.00 | 97 | 1015.3 |
| 20260902082915 | 69 | 107 | 0.9 | 6.1 | 0.00 | 0.26 | 0.00 | 97 | 1015.3 |
| 20260902082814 | 69 | 98 | 0.9 | 6.1 | 0.00 | 0.26 | 0.00 | 97 | 1015.2 |
| 20260902082803 | 69 | 97 | 0.9 | 6.1 | 0.00 | 0.26 | 0.00 | 97 | 1015.2 |
| 20260902082734 | 69 | 97 | 0.9 | 6.1 | 0.00 | 0.26 | 0.00 | 97 | 1015.2 |
| 20260902082621 | 69 | 101 | 0.9 | 6.1 | 0.00 | 0.26 | 0.00 | 97 | 1015.2 |
| 20260902082520 | 69 | 100 | 0.0 | 6.1 | 0.00 | 0.26 | 0.00 | 97 | 1015.4 |
| 20260902082424 | 69 | 108 | 0.9 | 6.1 | 0.00 | 0.26 | 0.00 | 97 | 1015.1 |
| 20260902082420 | 69 | 108 | 0.9 | 6.1 | 0.00 | 0.26 | 0.00 | 97 | 1015.2 |
| 20260902082308 | 69 | 108 | 0.9 | 6.1 | 0.00 | 0.26 | 0.00 | 97 | 1015.1 |
| 20260902082210 | 69 | 78 | 0.9 | 6.1 | 0.00 | 0.26 | 0.00 | 97 | 1015.1 |
| 20260902082110 | 69 | 67 | 0.9 | 4.3 | 0.00 | 0.26 | 0.00 | 97 | 1015.1 |
| 20260902082021 | 69 | 67 | 0.9 | 6.1 | 0.00 | 0.26 | 0.00 | 96 | 1015.2 |
| 20260902082009 | 69 | 67 | 0.9 | 6.1 | 0.00 | 0.26 | 0.00 | 96 | 1015.1 |
| 20260902081908 | 69 | 64 | 0.9 | 6.1 | 0.00 | 0.26 | 0.00 | 96 | 1015.0 |
| 20260902081810 | 69 | 80 | 0.9 | 6.1 | 0.00 | 0.26 | 0.00 | 96 | 1015.0 |
| 20260902081802 | 69 | 80 | 0.9 | 6.1 | 0.00 | 0.26 | 0.00 | 96 | 1015.1 |
| 20260902081708 | 69 | 81 | 0.9 | 6.1 | 0.00 | 0.26 | 0.00 | 96 | 1015.1 |
| 20260902081608 | 69 | 76 | 0.9 | 6.1 | 0.00 | 0.26 | 0.00 | 96 | 1015.0 |
| 20260902081535 | 69 | 76 | 0.9 | 6.1 | 0.00 | 0.26 | 0.00 | 96 | 1015.1 |
| 20260902081507 | 69 | 78 | 0.9 | 6.1 | 0.00 | 0.26 | 0.00 | 96 | 1015.0 |
| 20260902081423 | 69 | 92 | 1.7 | 6.1 | 0.00 | 0.26 | 0.00 | 96 | 1014.9 |
| 20260902081419 | 69 | 92 | 0.9 | 6.1 | 0.00 | 0.26 | 0.00 | 96 | 1014.9 |
| 20260902081303 | 69 | 92 | 1.7 | 6.1 | 0.00 | 0.26 | 0.00 | 96 | 1014.9 |
| 20260902081205 | 69 | 80 | 1.7 | 6.1 | 0.00 | 0.26 | 0.00 | 96 | 1014.8 |
| 20260902081116 | 69 | 93 | 1.7 | 6.1 | 0.00 | 0.26 | 0.00 | 96 | 1014.8 |
| 20260902081112 | 69 | 81 | 1.7 | 6.1 | 0.00 | 0.26 | 0.00 | 96 | 1014.8 |
| 20260902081021 | 69 | 93 | 0.0 | 6.1 | 0.00 | 0.26 | 0.00 | 96 | 1015.0 |
| 20260902080901 | 69 | 39 | 1.7 | 6.1 | 0.00 | 0.26 | 0.00 | 96 | 1014.8 |
| 20260902080806 | 69 | 90 | 0.9 | 6.1 | 0.00 | 0.26 | 0.00 | 96 | 1014.8 |
| 20260902080800 | 69 | 94 | 0.9 | 6.1 | 0.00 | 0.26 | 0.00 | 96 | 1014.8 |
| 20260902080700 | 69 | 63 | 0.9 | 6.1 | 0.00 | 0.26 | 0.00 | 96 | 1014.9 |
| 20260902080610 | 69 | 86 | 0.9 | 6.1 | 0.00 | 0.26 | 0.00 | 97 | 1014.9 |
| 20260902080606 | 69 | 101 | 0.9 | 6.1 | 0.00 | 0.26 | 0.00 | 96 | 1014.9 |
| 20260902080536 | 70 | 92 | 0.9 | 6.1 | 0.00 | 0.26 | 0.00 | 97 | 1015.2 |
| 20260902080357 | 70 | 76 | 0.9 | 6.1 | 0.00 | 0.26 | 0.00 | 96 | 1014.9 |
| 20260902080302 | 70 | 77 | 0.9 | 4.3 | 0.00 | 0.26 | 0.00 | 96 | 1014.9 |
| 20260902080256 | 70 | 71 | 0.9 | 4.3 | 0.00 | 0.26 | 0.00 | 96 | 1014.9 |
| 20260902080156 | 70 | 86 | 0.9 | 4.3 | 0.00 | 0.26 | 0.00 | 96 | 1014.9 |
| 20260902080055 | 70 | 97 | 0.9 | 4.3 | 0.00 | 0.26 | 0.00 | 96 | 1014.9 |
| 20260902080021 | 70 | 78 | 0.9 | 4.3 | 0.00 | 0.26 | 0.00 | 96 | 1015.2 |
| 20260902075954 | 70 | 72 | 0.9 | 4.3 | 0.00 | 0.26 | 0.00 | 96 | 1014.9 |
| 20260902075853 | 70 | 80 | 0.9 | 7.0 | 0.00 | 0.26 | 0.00 | 96 | 1014.9 |
| 20260902075752 | 70 | 80 | 0.9 | 7.0 | 0.00 | 0.26 | 0.00 | 96 | 1014.9 |
| 20260902075652 | 70 | 80 | 0.9 | 7.0 | 0.00 | 0.26 | 0.00 | 96 | 1014.9 |
| 20260902075551 | 70 | 70 | 0.9 | 7.0 | 0.00 | 0.26 | 0.00 | 96 | 1014.9 |
| 20260902075536 | 70 | 77 | 0.9 | 7.0 | 0.00 | 0.26 | 0.00 | 96 | 1015.0 |
| 20260902075503 | 70 | 119 | 0.9 | 7.0 | 0.00 | 0.26 | 0.00 | 96 | 1014.8 |
| 20260902075459 | 70 | 75 | 0.9 | 7.0 | 0.00 | 0.26 | 0.00 | 96 | 1014.8 |
| 20260902075302 | 70 | 72 | 0.9 | 7.0 | 0.00 | 0.26 | 0.00 | 96 | 1014.8 |
| 20260902075249 | 70 | 56 | 0.9 | 7.0 | 0.00 | 0.26 | 0.00 | 96 | 1014.8 |
| 20260902075148 | 70 | 80 | 0.9 | 7.0 | 0.00 | 0.26 | 0.00 | 96 | 1014.9 |
| 20260902075047 | 70 | 88 | 0.9 | 7.0 | 0.00 | 0.26 | 0.00 | 96 | 1014.8 |
| 20260902075021 | 70 | 96 | 0.9 | 7.0 | 0.00 | 0.26 | 0.00 | 96 | 1015.0 |
| 20260902074944 | 70 | 81 | 0.9 | 7.0 | 0.00 | 0.26 | 0.00 | 96 | 1014.8 |
| 20260902074843 | 70 | 67 | 0.9 | 3.5 | 0.00 | 0.26 | 0.00 | 96 | 1014.8 |
| 20260902074801 | 70 | 61 | 0.9 | 3.5 | 0.00 | 0.26 | 0.00 | 96 | 1014.8 |
| 20260902074742 | 70 | 126 | 0.9 | 3.5 | 0.00 | 0.26 | 0.00 | 96 | 1014.8 |
| 20260902074642 | 70 | 106 | 0.9 | 3.5 | 0.00 | 0.26 | 0.00 | 96 | 1014.8 |
| 20260902074542 | 70 | 98 | 0.9 | 3.5 | 0.00 | 0.26 | 0.00 | 96 | 1014.8 |
| 20260902074521 | 70 | 79 | 1.7 | 3.5 | 0.00 | 0.26 | 0.00 | 96 | 1015.0 |
| 20260902074441 | 70 | 96 | 0.0 | 3.5 | 0.00 | 0.26 | 0.00 | 96 | 1014.8 |
| 20260902074341 | 70 | 93 | 0.9 | 3.5 | 0.00 | 0.26 | 0.00 | 97 | 1014.8 |
| 20260902074300 | 70 | 86 | 0.9 | 3.5 | 0.00 | 0.26 | 0.00 | 97 | 1014.8 |
| 20260902074240 | 70 | 82 | 0.9 | 3.5 | 0.00 | 0.26 | 0.00 | 97 | 1014.8 |
| 20260902074140 | 70 | 80 | 0.9 | 4.3 | 0.00 | 0.26 | 0.00 | 97 | 1014.8 |
| 20260902074038 | 70 | 86 | 0.9 | 4.3 | 0.00 | 0.26 | 0.00 | 97 | 1014.8 |
| 20260902074021 | 70 | 105 | 0.0 | 4.3 | 0.00 | 0.26 | 0.00 | 97 | 1015.0 |
| 20260902073948 | 70 | 76 | 0.9 | 5.2 | 0.00 | 0.26 | 0.00 | 97 | 1014.8 |
| 20260902073944 | 70 | 105 | 0.9 | 4.3 | 0.00 | 0.26 | 0.00 | 97 | 1014.8 |
| 20260902073759 | 70 | 71 | 0.9 | 5.2 | 0.00 | 0.26 | 0.00 | 97 | 1014.8 |
| 20260902073735 | 70 | 57 | 0.9 | 5.2 | 0.00 | 0.26 | 0.00 | 97 | 1014.8 |
| 20260902073635 | 70 | 50 | 0.9 | 5.2 | 0.00 | 0.26 | 0.00 | 97 | 1014.7 |
| 20260902073535 | 70 | 50 | 1.7 | 5.2 | 0.00 | 0.26 | 0.00 | 97 | 1014.7 |
| 20260902073521 | 70 | 50 | 0.0 | 5.2 | 0.00 | 0.26 | 0.00 | 97 | 1014.9 |
| 20260902073447 | 70 | 70 | 1.7 | 6.1 | 0.00 | 0.26 | 0.00 | 97 | 1014.7 |
| 20260902073443 | 70 | 50 | 1.7 | 5.2 | 0.00 | 0.26 | 0.00 | 97 | 1014.7 |
| 20260902073315 | 71 | 103 | 1.7 | 6.1 | 0.00 | 0.26 | 0.00 | 97 | 1014.7 |
| 20260902073311 | 70 | 80 | 1.7 | 6.1 | 0.00 | 0.26 | 0.00 | 97 | 1014.6 |
| 20260902073304 | 70 | 71 | 1.7 | 6.1 | 0.00 | 0.26 | 0.00 | 97 | 1014.6 |
| 20260902073042 | 71 | 111 | 1.7 | 6.1 | 0.00 | 0.26 | 0.00 | 97 | 1014.6 |
| 20260902073020 | 71 | 99 | 0.9 | 6.1 | 0.00 | 0.26 | 0.00 | 97 | 1014.9 |
| 20260902072831 | 71 | 90 | 1.7 | 6.1 | 0.00 | 0.26 | 0.00 | 97 | 1014.6 |
| 20260902072800 | 71 | 90 | 1.7 | 7.8 | 0.00 | 0.26 | 0.00 | 97 | 1014.6 |
| 20260902072728 | 71 | 90 | 1.7 | 7.8 | 0.00 | 0.26 | 0.00 | 97 | 1014.6 |
| 20260902072629 | 71 | 90 | 2.6 | 7.8 | 0.00 | 0.26 | 0.00 | 96 | 1014.6 |
| 20260902072529 | 71 | 90 | 1.7 | 7.8 | 0.00 | 0.26 | 0.00 | 96 | 1014.6 |
| 20260902072520 | 71 | 63 | 1.7 | 7.8 | 0.00 | 0.26 | 0.00 | 96 | 1014.9 |
| 20260902072428 | 71 | 101 | 1.7 | 7.8 | 0.00 | 0.26 | 0.00 | 96 | 1014.6 |
| 20260902072327 | 71 | 74 | 1.7 | 7.8 | 0.00 | 0.26 | 0.00 | 96 | 1014.6 |
| 20260902072259 | 71 | 77 | 1.7 | 7.8 | 0.00 | 0.26 | 0.00 | 96 | 1014.6 |
| 20260902072226 | 71 | 83 | 1.7 | 7.8 | 0.00 | 0.26 | 0.00 | 96 | 1014.6 |
| 20260902072126 | 71 | 86 | 2.6 | 7.8 | 0.00 | 0.26 | 0.00 | 96 | 1014.5 |
| 20260902072027 | 71 | 82 | 2.6 | 7.8 | 0.00 | 0.26 | 0.00 | 96 | 1014.5 |
| 20260902072021 | 71 | 83 | 0.9 | 7.8 | 0.00 | 0.26 | 0.00 | 96 | 1014.8 |
| 20260902071923 | 71 | 53 | 2.6 | 7.8 | 0.00 | 0.26 | 0.00 | 96 | 1014.5 |
| 20260902071907 | 71 | 33 | 2.6 | 7.8 | 0.00 | 0.26 | 0.00 | 96 | 1014.5 |
| 20260902071723 | 71 | 49 | 1.7 | 7.0 | 0.00 | 0.26 | 0.00 | 96 | 1014.6 |
| 20260902071623 | 71 | 107 | 2.6 | 7.0 | 0.00 | 0.26 | 0.00 | 96 | 1014.5 |
| 20260902071522 | 71 | 92 | 1.7 | 7.0 | 0.00 | 0.26 | 0.00 | 96 | 1014.5 |
| 20260902071455 | 71 | 96 | 1.7 | 7.0 | 0.00 | 0.26 | 0.00 | 97 | 1014.5 |
| 20260902071451 | 71 | 93 | 1.7 | 6.1 | 0.00 | 0.26 | 0.00 | 97 | 1014.5 |
| 20260902071445 | 71 | 93 | 1.7 | 7.0 | 0.00 | 0.26 | 0.00 | 96 | 1014.5 |
| 20260902071328 | 71 | 69 | 1.7 | 6.1 | 0.00 | 0.26 | 0.00 | 97 | 1014.5 |
| 20260902071120 | 71 | 110 | 1.7 | 6.1 | 0.00 | 0.26 | 0.00 | 97 | 1014.5 |
| 20260902071021 | 71 | 103 | 1.7 | 6.1 | 0.00 | 0.26 | 0.00 | 97 | 1014.7 |
| 20260902070919 | 71 | 78 | 0.9 | 6.1 | 0.00 | 0.26 | 0.00 | 97 | 1014.4 |
| 20260902070818 | 71 | 101 | 0.9 | 6.1 | 0.00 | 0.26 | 0.00 | 97 | 1014.5 |
| 20260902070758 | 71 | 88 | 0.9 | 6.1 | 0.00 | 0.26 | 0.00 | 97 | 1014.5 |
| 20260902070744 | 71 | 58 | 0.9 | 6.1 | 0.00 | 0.26 | 0.00 | 97 | 1014.5 |
| 20260902070740 | 71 | 78 | 0.9 | 6.1 | 0.00 | 0.26 | 0.00 | 97 | 1014.5 |
| 20260902070735 | 71 | 101 | 0.9 | 6.1 | 0.00 | 0.26 | 0.00 | 97 | 1014.5 |
| 20260902070520 | 71 | 78 | 0.0 | 6.1 | 0.00 | 0.26 | 0.00 | 97 | 1014.8 |
| 20260902070416 | 71 | 78 | 0.9 | 6.1 | 0.00 | 0.26 | 0.00 | 97 | 1014.5 |
| 20260902070314 | 71 | 78 | 0.9 | 6.1 | 0.00 | 0.26 | 0.00 | 97 | 1014.5 |
| 20260902070259 | 71 | 78 | 0.9 | 6.1 | 0.00 | 0.26 | 0.00 | 97 | 1014.5 |
| 20260902070214 | 71 | 103 | 0.9 | 6.1 | 0.00 | 0.26 | 0.00 | 97 | 1014.5 |
| 20260902070142 | 71 | 69 | 0.9 | 6.1 | 0.00 | 0.26 | 0.00 | 97 | 1014.5 |
| 20260902070028 | 71 | 86 | 1.7 | 6.1 | 0.00 | 0.26 | 0.00 | 97 | 1014.5 |
| 20260902070024 | 71 | 56 | 0.9 | 6.1 | 0.00 | 0.26 | 0.00 | 97 | 1014.5 |
| 20260902070021 | 71 | 58 | 0.0 | 6.1 | 0.00 | 0.26 | 0.00 | 97 | 1014.8 |
| 20260902070015 | 71 | 51 | 0.9 | 6.1 | 0.00 | 0.26 | 0.00 | 97 | 1014.5 |
| 20260902065724 | 71 | 85 | 0.9 | 5.2 | 0.00 | 0.26 | 0.00 | 97 | 1014.4 |
| 20260902065720 | 71 | 85 | 0.9 | 5.2 | 0.00 | 0.26 | 0.00 | 97 | 1014.5 |
| 20260902065521 | 71 | 91 | 0.9 | 3.5 | 0.00 | 0.26 | 0.00 | 97 | 1014.8 |
| 20260902065510 | 71 | 91 | 0.9 | 5.2 | 0.00 | 0.26 | 0.00 | 97 | 1014.5 |
| 20260902065410 | 71 | 94 | 0.9 | 3.5 | 0.00 | 0.26 | 0.00 | 97 | 1014.5 |
| 20260902065309 | 71 | 95 | 0.9 | 3.5 | 0.00 | 0.26 | 0.00 | 97 | 1014.5 |
| 20260902065258 | 71 | 95 | 0.9 | 3.5 | 0.00 | 0.26 | 0.00 | 97 | 1014.5 |
| 20260902065210 | 71 | 46 | 0.9 | 3.5 | 0.00 | 0.26 | 0.00 | 97 | 1014.5 |
| 20260902065109 | 71 | 90 | 0.9 | 3.5 | 0.00 | 0.26 | 0.00 | 97 | 1014.5 |
| 20260902065020 | 71 | 117 | 2.6 | 2.6 | 0.00 | 0.26 | 0.00 | 97 | 1014.8 |
| 20260902065009 | 71 | 109 | 0.0 | 2.6 | 0.00 | 0.26 | 0.00 | 97 | 1014.5 |
| 20260902064908 | 71 | 111 | 0.0 | 2.6 | 0.00 | 0.26 | 0.00 | 97 | 1014.5 |
| 20260902064822 | 71 | 85 | 0.0 | 1.7 | 0.00 | 0.26 | 0.00 | 97 | 1014.6 |
| 20260902064815 | 71 | 84 | 0.0 | 1.7 | 0.00 | 0.26 | 0.00 | 97 | 1014.5 |
| 20260902064607 | 71 | 84 | 0.0 | 1.7 | 0.00 | 0.26 | 0.00 | 97 | 1014.6 |
| 20260902064520 | 71 | 84 | 0.9 | 0.9 | 0.00 | 0.26 | 0.00 | 97 | 1014.9 |
| 20260902064507 | 71 | 84 | 0.0 | 1.7 | 0.00 | 0.26 | 0.00 | 97 | 1014.6 |
| 20260902064419 | 71 | 84 | 0.0 | 2.6 | 0.00 | 0.26 | 0.00 | 97 | 1014.6 |
| 20260902064415 | 71 | 84 | 0.0 | 0.9 | 0.00 | 0.26 | 0.00 | 97 | 1014.6 |
| 20260902064254 | 71 | 84 | 0.0 | 2.6 | 0.00 | 0.26 | 0.00 | 97 | 1014.6 |
| 20260902064205 | 71 | 84 | 0.0 | 2.6 | 0.00 | 0.26 | 0.00 | 97 | 1014.6 |
| 20260902064105 | 71 | 84 | 0.0 | 2.6 | 0.00 | 0.26 | 0.00 | 97 | 1014.6 |
| 20260902064020 | 71 | 84 | 0.0 | 2.6 | 0.00 | 0.26 | 0.00 | 97 | 1014.9 |
| 20260902064017 | 71 | 84 | 0.0 | 2.6 | 0.00 | 0.26 | 0.00 | 97 | 1014.6 |
| 20260902064004 | 71 | 84 | 0.0 | 2.6 | 0.00 | 0.26 | 0.00 | 97 | 1014.6 |
| 20260902063907 | 71 | 84 | 0.0 | 2.6 | 0.00 | 0.26 | 0.00 | 97 | 1014.6 |
| 20260902063858 | 71 | 84 | 0.0 | 2.6 | 0.00 | 0.26 | 0.00 | 97 | 1014.6 |
| 20260902063704 | 71 | 84 | 0.0 | 2.6 | 0.00 | 0.26 | 0.00 | 97 | 1014.5 |
| 20260902063602 | 71 | 84 | 0.0 | 2.6 | 0.00 | 0.26 | 0.00 | 97 | 1014.5 |
| 20260902063524 | 71 | 84 | 0.0 | 2.6 | 0.00 | 0.26 | 0.00 | 97 | 1014.4 |
| 20260902063521 | 71 | 84 | 0.0 | 2.6 | 0.00 | 0.26 | 0.00 | 97 | 1014.8 |
| 20260902063514 | 71 | 84 | 0.0 | 2.6 | 0.00 | 0.26 | 0.00 | 97 | 1014.5 |
| 20260902063356 | 71 | 84 | 0.0 | 2.6 | 0.00 | 0.26 | 0.00 | 97 | 1014.5 |
| 20260902063201 | 71 | 102 | 0.0 | 2.6 | 0.00 | 0.26 | 0.00 | 97 | 1014.4 |
| 20260902063113 | 71 | 102 | 0.0 | 2.6 | 0.00 | 0.26 | 0.00 | 97 | 1014.4 |
| 20260902063109 | 71 | 102 | 0.0 | 2.6 | 0.00 | 0.26 | 0.00 | 97 | 1014.4 |
| 20260902063021 | 71 | 102 | 1.7 | 2.6 | 0.00 | 0.26 | 0.00 | 97 | 1014.7 |
| 20260902062912 | 71 | 103 | 0.0 | 0.9 | 0.00 | 0.26 | 0.00 | 97 | 1014.4 |
| 20260902062908 | 71 | 103 | 0.0 | 0.9 | 0.00 | 0.26 | 0.00 | 97 | 1014.5 |
| 20260902062749 | 71 | 103 | 0.0 | 2.6 | 0.00 | 0.26 | 0.00 | 97 | 1014.4 |
| 20260902062658 | 71 | 103 | 0.0 | 2.6 | 0.00 | 0.26 | 0.00 | 97 | 1014.4 |
| 20260902062557 | 71 | 103 | 0.0 | 2.6 | 0.00 | 0.26 | 0.00 | 97 | 1014.4 |
| 20260902062521 | 71 | 103 | 0.0 | 0.9 | 0.00 | 0.26 | 0.00 | 97 | 1014.7 |
| 20260902062508 | 71 | 103 | 0.0 | 2.6 | 0.00 | 0.26 | 0.00 | 97 | 1014.4 |
| 20260902062504 | 71 | 103 | 0.0 | 2.6 | 0.00 | 0.26 | 0.00 | 97 | 1014.4 |
| 20260902062247 | 71 | 103 | 0.0 | 2.6 | 0.00 | 0.26 | 0.00 | 97 | 1014.3 |
| 20260902062154 | 71 | 103 | 0.0 | 2.6 | 0.00 | 0.26 | 0.00 | 97 | 1014.3 |
| 20260902062054 | 71 | 103 | 0.0 | 2.6 | 0.00 | 0.26 | 0.00 | 97 | 1014.4 |
| 20260902062020 | 71 | 103 | 0.0 | 0.9 | 0.00 | 0.26 | 0.00 | 97 | 1014.6 |
| 20260902061951 | 71 | 103 | 0.0 | 2.6 | 0.00 | 0.26 | 0.00 | 97 | 1014.3 |
| 20260902061925 | 71 | 103 | 0.0 | 2.6 | 0.00 | 0.26 | 0.00 | 97 | 1014.3 |
| 20260902061921 | 71 | 103 | 0.0 | 2.6 | 0.00 | 0.26 | 0.00 | 97 | 1014.4 |
| 20260902061916 | 71 | 103 | 0.0 | 2.6 | 0.00 | 0.26 | 0.00 | 97 | 1014.3 |
| 20260902061759 | 71 | 103 | 0.0 | 2.6 | 0.00 | 0.26 | 0.00 | 97 | 1014.3 |
| 20260902061604 | 71 | 103 | 0.0 | 2.6 | 0.00 | 0.26 | 0.00 | 97 | 1014.3 |
| 20260902061559 | 71 | 103 | 0.0 | 2.6 | 0.00 | 0.26 | 0.00 | 97 | 1014.4 |
| 20260902061535 | 71 | 103 | 0.0 | 2.6 | 0.00 | 0.26 | 0.00 | 97 | 1014.6 |
| 20260902061408 | 71 | 103 | 0.0 | 2.6 | 0.00 | 0.26 | 0.00 | 97 | 1014.3 |
| 20260902061403 | 71 | 103 | 0.0 | 2.6 | 0.00 | 0.26 | 0.00 | 97 | 1014.3 |
| 20260902061249 | 71 | 103 | 0.0 | 2.6 | 0.00 | 0.26 | 0.00 | 97 | 1014.3 |
| 20260902061147 | 71 | 103 | 0.0 | 2.6 | 0.00 | 0.26 | 0.00 | 97 | 1014.3 |
| 20260902061105 | 71 | 103 | 0.0 | 2.6 | 0.00 | 0.26 | 0.00 | 97 | 1014.4 |
| 20260902061059 | 71 | 103 | 0.0 | 2.6 | 0.00 | 0.26 | 0.00 | 97 | 1014.4 |
| 20260902061021 | 71 | 103 | 0.0 | 2.6 | 0.00 | 0.26 | 0.00 | 97 | 1014.7 |
| 20260902060937 | 71 | 105 | 0.0 | 2.6 | 0.00 | 0.26 | 0.00 | 97 | 1014.4 |
| 20260902060928 | 71 | 105 | 0.0 | 1.7 | 0.00 | 0.26 | 0.00 | 97 | 1014.4 |
| 20260902060710 | 71 | 132 | 0.0 | 0.0 | 0.00 | 0.26 | 0.00 | 97 | 1014.5 |
| 20260902060705 | 71 | 132 | 0.0 | 0.0 | 0.00 | 0.26 | 0.00 | 97 | 1014.5 |
| 20260902060521 | 71 | 132 | 0.0 | 0.0 | 0.00 | 0.26 | 0.00 | 97 | 1014.8 |
| 20260902060345 | 71 | 132 | 0.0 | 0.0 | 0.00 | 0.26 | 0.00 | 97 | 1014.5 |
| 20260902060244 | 71 | 132 | 0.0 | 0.0 | 0.00 | 0.26 | 0.00 | 97 | 1014.5 |
| 20260902060144 | 71 | 132 | 0.0 | 0.0 | 0.00 | 0.26 | 0.00 | 97 | 1014.5 |
| 20260902060050 | 71 | 132 | 0.0 | 0.0 | 0.00 | 0.26 | 0.00 | 97 | 1014.7 |
| 20260902060043 | 71 | 132 | 0.0 | 0.0 | 0.00 | 0.26 | 0.00 | 97 | 1014.4 |
| 20260902055942 | 70 | 132 | 0.0 | 0.0 | 0.00 | 0.26 | 0.00 | 97 | 1014.4 |
| 20260902055841 | 70 | 132 | 0.0 | 0.0 | 0.00 | 0.26 | 0.00 | 97 | 1014.3 |
| 20260902055739 | 70 | 132 | 0.0 | 0.0 | 0.00 | 0.26 | 0.00 | 96 | 1014.4 |
| 20260902055653 | 70 | 132 | 0.0 | 0.0 | 0.00 | 0.26 | 0.00 | 96 | 1014.4 |
| 20260902055648 | 70 | 132 | 0.0 | 0.0 | 0.00 | 0.26 | 0.00 | 96 | 1014.4 |
| 20260902055520 | 70 | 132 | 0.0 | 0.0 | 0.00 | 0.26 | 0.00 | 96 | 1014.5 |
| 20260902055438 | 70 | 132 | 0.0 | 0.9 | 0.00 | 0.26 | 0.00 | 96 | 1014.3 |
| 20260902055338 | 71 | 132 | 0.0 | 0.9 | 0.00 | 0.26 | 0.00 | 96 | 1014.4 |
| 20260902055237 | 71 | 132 | 0.0 | 0.9 | 0.00 | 0.26 | 0.00 | 96 | 1014.4 |
| 20260902055137 | 71 | 132 | 0.0 | 0.9 | 0.00 | 0.26 | 0.00 | 96 | 1014.3 |
| 20260902055037 | 71 | 132 | 0.0 | 0.9 | 0.00 | 0.26 | 0.00 | 96 | 1014.3 |
| 20260902055021 | 71 | 132 | 0.0 | 0.9 | 0.00 | 0.26 | 0.00 | 96 | 1014.6 |
| 20260902054936 | 71 | 132 | 0.0 | 0.9 | 0.00 | 0.26 | 0.00 | 96 | 1014.3 |
| 20260902054834 | 71 | 132 | 0.0 | 0.9 | 0.00 | 0.26 | 0.00 | 96 | 1014.2 |
| 20260902054734 | 71 | 132 | 0.0 | 0.9 | 0.00 | 0.26 | 0.00 | 96 | 1014.2 |
| 20260902054634 | 71 | 132 | 0.0 | 0.9 | 0.00 | 0.26 | 0.00 | 96 | 1014.2 |
| 20260902054533 | 71 | 132 | 0.0 | 0.9 | 0.00 | 0.26 | 0.00 | 96 | 1014.2 |
| 20260902054521 | 71 | 132 | 0.0 | 0.9 | 0.00 | 0.26 | 0.00 | 96 | 1014.5 |
| 20260902054446 | 71 | 132 | 0.0 | 0.0 | 0.00 | 0.26 | 0.00 | 96 | 1014.2 |
| 20260902054440 | 71 | 132 | 0.0 | 0.0 | 0.00 | 0.26 | 0.00 | 96 | 1014.2 |
| 20260902054231 | 70 | 132 | 0.0 | 0.0 | 0.00 | 0.26 | 0.00 | 96 | 1014.3 |
| 20260902054130 | 71 | 132 | 0.0 | 0.0 | 0.00 | 0.26 | 0.00 | 96 | 1014.3 |
| 20260902054029 | 71 | 132 | 0.0 | 0.0 | 0.00 | 0.26 | 0.00 | 96 | 1014.3 |
| 20260902054021 | 71 | 132 | 0.0 | 0.0 | 0.00 | 0.26 | 0.00 | 96 | 1014.6 |
| 20260902053943 | 71 | 132 | 0.0 | 0.0 | 0.00 | 0.26 | 0.00 | 96 | 1014.3 |
| 20260902053937 | 71 | 132 | 0.0 | 0.0 | 0.00 | 0.26 | 0.00 | 96 | 1014.3 |
| 20260902053749 | 71 | 132 | 0.0 | 0.0 | 0.00 | 0.26 | 0.00 | 96 | 1014.3 |
| 20260902053636 | 71 | 132 | 0.0 | 0.0 | 0.00 | 0.26 | 0.00 | 96 | 1014.3 |
| 20260902053521 | 71 | 132 | 0.0 | 0.0 | 0.00 | 0.26 | 0.00 | 96 | 1014.6 |
| 20260902053426 | 71 | 132 | 0.0 | 0.0 | 0.00 | 0.26 | 0.00 | 96 | 1014.3 |
| 20260902053326 | 71 | 132 | 0.0 | 0.0 | 0.00 | 0.26 | 0.00 | 96 | 1014.3 |
| 20260902053257 | 71 | 132 | 0.0 | 0.0 | 0.00 | 0.26 | 0.00 | 96 | 1014.3 |
| 20260902053253 | 71 | 132 | 0.0 | 0.0 | 0.00 | 0.26 | 0.00 | 96 | 1014.3 |
| 20260902053242 | 71 | 132 | 0.0 | 0.0 | 0.00 | 0.26 | 0.00 | 96 | 1014.3 |
| 20260902053035 | 71 | 132 | 0.0 | 0.0 | 0.00 | 0.26 | 0.00 | 96 | 1014.6 |
| 20260902052924 | 71 | 132 | 0.0 | 0.0 | 0.00 | 0.26 | 0.00 | 96 | 1014.3 |
| 20260902052823 | 71 | 132 | 0.0 | 0.0 | 0.00 | 0.26 | 0.00 | 96 | 1014.3 |
| 20260902052723 | 71 | 132 | 0.0 | 0.0 | 0.00 | 0.26 | 0.00 | 96 | 1014.3 |
| 20260902052622 | 71 | 132 | 0.0 | 0.0 | 0.00 | 0.26 | 0.00 | 96 | 1014.4 |
| 20260902052522 | 71 | 132 | 0.0 | 0.0 | 0.00 | 0.26 | 0.00 | 96 | 1014.3 |
| 20260902052438 | 71 | 132 | 0.0 | 0.0 | 0.00 | 0.26 | 0.00 | 96 | 1014.3 |
| 20260902052433 | 71 | 132 | 0.0 | 0.0 | 0.00 | 0.26 | 0.00 | 96 | 1014.4 |
| 20260902052223 | 71 | 132 | 0.0 | 0.0 | 0.00 | 0.26 | 0.00 | 96 | 1014.3 |
| 20260902052122 | 71 | 132 | 0.0 | 0.0 | 0.00 | 0.26 | 0.00 | 96 | 1014.4 |
| 20260902052022 | 71 | 132 | 0.0 | 0.0 | 0.00 | 0.26 | 0.00 | 96 | 1014.3 |
| 20260902052020 | 71 | 132 | 0.0 | 0.0 | 0.00 | 0.26 | 0.00 | 96 | 1014.7 |
| 20260902052003 | 71 | 132 | 0.0 | 0.0 | 0.00 | 0.26 | 0.00 | 96 | 1014.4 |
| 20260902051956 | 71 | 132 | 0.0 | 0.0 | 0.00 | 0.26 | 0.00 | 96 | 1014.4 |
| 20260902051728 | 71 | 132 | 0.0 | 0.0 | 0.00 | 0.26 | 0.00 | 96 | 1014.4 |
| 20260902051539 | 71 | 132 | 0.0 | 0.0 | 0.00 | 0.26 | 0.00 | 96 | 1014.4 |
| 20260902051536 | 71 | 132 | 0.0 | 0.0 | 0.00 | 0.26 | 0.00 | 96 | 1014.7 |
| 20260902051426 | 71 | 132 | 0.0 | 0.0 | 0.00 | 0.26 | 0.00 | 96 | 1014.4 |
| 20260902051217 | 71 | 132 | 0.0 | 0.0 | 0.00 | 0.26 | 0.00 | 96 | 1014.4 |
| 20260902051116 | 71 | 132 | 0.0 | 0.0 | 0.00 | 0.26 | 0.00 | 96 | 1014.4 |
| 20260902051035 | 71 | 132 | 0.0 | 0.0 | 0.00 | 0.26 | 0.00 | 96 | 1014.8 |
| 20260902051016 | 71 | 132 | 0.0 | 0.0 | 0.00 | 0.26 | 0.00 | 96 | 1014.5 |
| 20260902050928 | 71 | 132 | 0.0 | 0.0 | 0.00 | 0.26 | 0.00 | 96 | 1014.5 |
| 20260902050923 | 71 | 132 | 0.0 | 0.0 | 0.00 | 0.26 | 0.00 | 96 | 1014.5 |
| 20260902050714 | 71 | 132 | 0.0 | 0.0 | 0.00 | 0.26 | 0.00 | 96 | 1014.6 |
| 20260902050613 | 71 | 132 | 0.0 | 0.0 | 0.00 | 0.26 | 0.00 | 96 | 1014.6 |
| 20260902050555 | 71 | 132 | 0.0 | 0.0 | 0.00 | 0.26 | 0.00 | 96 | 1014.6 |
| 20260902050548 | 71 | 132 | 0.0 | 0.0 | 0.00 | 0.26 | 0.00 | 96 | 1014.6 |
| 20260902050521 | 71 | 132 | 0.0 | 0.0 | 0.00 | 0.26 | 0.00 | 96 | 1014.9 |
| 20260902050326 | 71 | 132 | 0.0 | 0.0 | 0.00 | 0.26 | 0.00 | 96 | 1014.6 |
| 20260902050318 | 71 | 132 | 0.0 | 0.0 | 0.00 | 0.26 | 0.00 | 96 | 1014.6 |
| 20260902050112 | 71 | 132 | 0.0 | 0.0 | 0.00 | 0.26 | 0.00 | 96 | 1014.6 |
| 20260902050021 | 71 | 132 | 0.0 | 0.0 | 0.00 | 0.26 | 0.00 | 96 | 1015.0 |
| 20260902050011 | 71 | 132 | 0.0 | 0.0 | 0.00 | 0.26 | 0.00 | 96 | 1014.7 |
| 20260902045910 | 71 | 132 | 0.0 | 0.0 | 0.00 | 0.26 | 0.00 | 96 | 1014.7 |
| 20260902045809 | 71 | 132 | 0.0 | 0.0 | 0.00 | 0.26 | 0.00 | 96 | 1014.7 |
| 20260902045709 | 71 | 132 | 0.0 | 0.0 | 0.00 | 0.26 | 0.00 | 96 | 1014.7 |
| 20260902045607 | 71 | 132 | 0.0 | 0.0 | 0.00 | 0.26 | 0.00 | 96 | 1014.7 |
| 20260902045507 | 71 | 132 | 0.0 | 0.0 | 0.00 | 0.26 | 0.00 | 96 | 1014.7 |
| 20260902045434 | 71 | 132 | 0.0 | 0.0 | 0.00 | 0.26 | 0.00 | 96 | 1014.8 |
| 20260902045321 | 71 | 132 | 0.0 | 0.0 | 0.00 | 0.26 | 0.00 | 96 | 1014.7 |
| 20260902045313 | 71 | 132 | 0.0 | 0.0 | 0.00 | 0.26 | 0.00 | 96 | 1014.7 |
| 20260902045104 | 71 | 132 | 0.0 | 0.0 | 0.00 | 0.26 | 0.00 | 96 | 1014.7 |
| 20260902045021 | 71 | 132 | 0.0 | 0.0 | 0.00 | 0.26 | 0.00 | 96 | 1015.0 |
| 20260902045003 | 71 | 132 | 0.0 | 0.0 | 0.00 | 0.26 | 0.00 | 96 | 1014.7 |
| 20260902044903 | 71 | 132 | 0.0 | 0.0 | 0.00 | 0.26 | 0.00 | 96 | 1014.8 |
| 20260902044802 | 71 | 132 | 0.0 | 0.0 | 0.00 | 0.26 | 0.00 | 96 | 1014.8 |
| 20260902044728 | 71 | 132 | 0.0 | 0.0 | 0.00 | 0.26 | 0.00 | 96 | 1014.8 |
| 20260902044701 | 71 | 132 | 0.0 | 0.0 | 0.00 | 0.26 | 0.00 | 96 | 1014.8 |
| 20260902044602 | 71 | 132 | 0.0 | 0.0 | 0.00 | 0.26 | 0.00 | 96 | 1014.8 |
| 20260902044521 | 71 | 132 | 0.0 | 0.0 | 0.00 | 0.26 | 0.00 | 96 | 1015.0 |
| 20260902044502 | 71 | 132 | 0.0 | 0.0 | 0.00 | 0.26 | 0.00 | 96 | 1014.8 |
| 20260902044358 | 71 | 132 | 0.0 | 0.0 | 0.00 | 0.26 | 0.00 | 96 | 1014.9 |
| 20260902044229 | 71 | 132 | 0.0 | 0.0 | 0.00 | 0.26 | 0.00 | 96 | 1014.9 |
| 20260902044209 | 71 | 132 | 0.0 | 0.0 | 0.00 | 0.26 | 0.00 | 96 | 1014.9 |
| 20260902044204 | 71 | 132 | 0.0 | 0.0 | 0.00 | 0.26 | 0.00 | 96 | 1014.9 |
| 20260902044021 | 71 | 132 | 0.0 | 0.0 | 0.00 | 0.26 | 0.00 | 96 | 1015.0 |
| 20260902043955 | 71 | 132 | 0.0 | 0.0 | 0.00 | 0.26 | 0.00 | 96 | 1014.8 |
| 20260902043854 | 71 | 132 | 0.0 | 0.0 | 0.00 | 0.26 | 0.00 | 96 | 1014.8 |
| 20260902043726 | 71 | 132 | 0.0 | 0.0 | 0.00 | 0.26 | 0.00 | 96 | 1014.8 |
| 20260902043654 | 71 | 132 | 0.0 | 0.0 | 0.00 | 0.26 | 0.00 | 96 | 1014.8 |
| 20260902043554 | 71 | 132 | 0.0 | 0.0 | 0.00 | 0.26 | 0.00 | 96 | 1014.7 |
| 20260902043551 | 71 | 132 | 0.0 | 0.0 | 0.00 | 0.26 | 0.00 | 96 | 1014.9 |
| 20260902043515 | 71 | 132 | 0.0 | 0.0 | 0.00 | 0.26 | 0.00 | 96 | 1014.7 |
| 20260902043402 | 71 | 132 | 0.0 | 0.0 | 0.00 | 0.26 | 0.00 | 96 | 1014.7 |
| 20260902043228 | 71 | 132 | 0.0 | 0.0 | 0.00 | 0.26 | 0.00 | 96 | 1014.7 |
| 20260902043152 | 71 | 132 | 0.0 | 0.0 | 0.00 | 0.26 | 0.00 | 96 | 1014.7 |
| 20260902043052 | 71 | 132 | 0.0 | 0.0 | 0.00 | 0.26 | 0.00 | 96 | 1014.7 |
| 20260902043021 | 71 | 132 | 0.0 | 0.0 | 0.00 | 0.27 | 0.00 | 96 | 1014.9 |
| 20260902042951 | 71 | 132 | 0.0 | 0.0 | 0.00 | 0.27 | 0.00 | 96 | 1014.7 |
| 20260902042850 | 71 | 132 | 0.0 | 0.0 | 0.00 | 0.27 | 0.00 | 96 | 1014.6 |
| 20260902042726 | 71 | 132 | 0.0 | 0.0 | 0.00 | 0.27 | 0.00 | 96 | 1014.6 |
| 20260902042703 | 71 | 132 | 0.0 | 0.0 | 0.00 | 0.27 | 0.00 | 96 | 1014.6 |
| 20260902042658 | 71 | 132 | 0.0 | 0.0 | 0.00 | 0.27 | 0.00 | 96 | 1014.6 |
| 20260902042536 | 71 | 132 | 0.0 | 0.0 | 0.00 | 0.27 | 0.00 | 96 | 1014.8 |
| 20260902042449 | 71 | 132 | 0.0 | 0.0 | 0.00 | 0.27 | 0.00 | 96 | 1014.6 |
| 20260902042347 | 71 | 132 | 0.0 | 0.0 | 0.00 | 0.27 | 0.00 | 96 | 1014.6 |
| 20260902042223 | 71 | 132 | 0.0 | 0.0 | 0.00 | 0.27 | 0.00 | 96 | 1014.5 |
| 20260902042200 | 71 | 132 | 0.0 | 0.0 | 0.00 | 0.27 | 0.00 | 96 | 1014.6 |
| 20260902042155 | 71 | 132 | 0.0 | 0.0 | 0.00 | 0.27 | 0.00 | 96 | 1014.6 |
| 20260902042030 | 71 | 132 | 0.0 | 0.0 | 0.00 | 0.27 | 0.00 | 96 | 1014.5 |
| 20260902042025 | 71 | 132 | 0.0 | 0.0 | 0.00 | 0.27 | 0.00 | 96 | 1014.6 |
| 20260902042021 | 71 | 132 | 0.0 | 0.0 | 0.00 | 0.27 | 0.00 | 96 | 1014.8 |
| 20260902042019 | 71 | 132 | 0.0 | 0.0 | 0.00 | 0.27 | 0.00 | 96 | 1014.6 |
| 20260902042010 | 71 | 132 | 0.0 | 0.0 | 0.00 | 0.27 | 0.00 | 96 | 1014.6 |
| 20260902041546 | 71 | 132 | 0.0 | 0.0 | 0.00 | 0.27 | 0.00 | 96 | 1014.6 |
| 20260902041521 | 71 | 132 | 0.0 | 0.0 | 0.00 | 0.27 | 0.00 | 96 | 1014.8 |
| 20260902041444 | 71 | 132 | 0.0 | 0.0 | 0.00 | 0.27 | 0.00 | 96 | 1014.6 |
| 20260902041344 | 71 | 132 | 0.0 | 0.0 | 0.00 | 0.27 | 0.00 | 96 | 1014.6 |
| 20260902041222 | 71 | 132 | 0.0 | 0.0 | 0.00 | 0.27 | 0.00 | 96 | 1014.6 |
| 20260902041143 | 71 | 132 | 0.0 | 0.0 | 0.00 | 0.27 | 0.00 | 96 | 1014.5 |
| 20260902041041 | 71 | 132 | 0.0 | 0.0 | 0.00 | 0.27 | 0.00 | 96 | 1014.5 |
| 20260902041020 | 71 | 132 | 0.0 | 0.0 | 0.00 | 0.27 | 0.00 | 96 | 1014.7 |
| 20260902040947 | 71 | 132 | 0.0 | 0.0 | 0.00 | 0.27 | 0.00 | 96 | 1014.5 |
| 20260902040942 | 71 | 132 | 0.0 | 0.0 | 0.00 | 0.27 | 0.00 | 96 | 1014.5 |
| 20260902040841 | 71 | 132 | 0.0 | 0.0 | 0.00 | 0.27 | 0.00 | 96 | 1014.5 |
| 20260902040827 | 71 | 132 | 0.0 | 0.0 | 0.00 | 0.27 | 0.00 | 96 | 1014.5 |
| 20260902040640 | 71 | 132 | 0.0 | 0.0 | 0.00 | 0.27 | 0.00 | 96 | 1014.4 |
| 20260902040540 | 71 | 132 | 0.0 | 0.0 | 0.00 | 0.27 | 0.00 | 96 | 1014.4 |
| 20260902040520 | 71 | 132 | 0.0 | 0.0 | 0.00 | 0.27 | 0.00 | 96 | 1014.6 |
| 20260902040439 | 71 | 132 | 0.0 | 0.0 | 0.00 | 0.27 | 0.00 | 96 | 1014.4 |
| 20260902040339 | 71 | 132 | 0.0 | 0.0 | 0.00 | 0.27 | 0.00 | 96 | 1014.4 |
| 20260902040258 | 71 | 132 | 0.0 | 0.0 | 0.00 | 0.27 | 0.00 | 96 | 1014.4 |
| 20260902040246 | 71 | 132 | 0.0 | 0.0 | 0.00 | 0.27 | 0.00 | 96 | 1014.4 |
| 20260902040037 | 71 | 132 | 0.0 | 0.0 | 0.00 | 0.27 | 0.00 | 96 | 1014.4 |
| 20260902040021 | 71 | 132 | 0.0 | 0.0 | 0.00 | 0.27 | 0.00 | 96 | 1014.6 |
| 20260902035939 | 71 | 132 | 0.0 | 0.0 | 0.00 | 0.27 | 0.27 | 96 | 1014.4 |
| 20260902035851 | 71 | 132 | 0.0 | 0.0 | 0.00 | 0.27 | 0.27 | 96 | 1014.4 |
| 20260902035847 | 71 | 132 | 0.0 | 0.0 | 0.00 | 0.27 | 0.27 | 96 | 1014.5 |
| 20260902035720 | 71 | 132 | 0.0 | 0.0 | 0.00 | 0.27 | 0.27 | 96 | 1014.4 |
| 20260902035637 | 71 | 132 | 0.0 | 0.0 | 0.00 | 0.27 | 0.27 | 96 | 1014.4 |
| 20260902035537 | 71 | 131 | 0.0 | 0.0 | 0.00 | 0.27 | 0.27 | 96 | 1014.3 |
| 20260902035521 | 71 | 132 | 0.0 | 0.0 | 0.00 | 0.27 | 0.27 | 96 | 1014.6 |
| 20260902035435 | 71 | 132 | 0.0 | 0.0 | 0.00 | 0.27 | 0.27 | 96 | 1014.4 |
| 20260902035335 | 71 | 132 | 0.0 | 0.0 | 0.00 | 0.27 | 0.27 | 96 | 1014.3 |
| 20260902035217 | 71 | 132 | 0.0 | 0.0 | 0.00 | 0.27 | 0.27 | 96 | 1014.3 |
| 20260902035134 | 71 | 132 | 0.0 | 0.0 | 0.00 | 0.27 | 0.27 | 96 | 1014.2 |
| 20260902035034 | 71 | 132 | 0.0 | 0.0 | 0.00 | 0.27 | 0.27 | 96 | 1014.2 |
| 20260902035020 | 71 | 132 | 0.0 | 0.0 | 0.00 | 0.27 | 0.27 | 96 | 1014.4 |
| 20260902034932 | 71 | 132 | 0.0 | 0.0 | 0.00 | 0.27 | 0.27 | 96 | 1014.2 |
| 20260902034846 | 71 | 132 | 0.0 | 0.0 | 0.00 | 0.27 | 0.27 | 96 | 1014.1 |
| 20260902034842 | 71 | 131 | 0.0 | 0.0 | 0.00 | 0.27 | 0.27 | 96 | 1014.1 |
| 20260902034717 | 71 | 131 | 0.0 | 0.0 | 0.00 | 0.27 | 0.27 | 96 | 1014.1 |
| 20260902034632 | 71 | 132 | 0.0 | 0.0 | 0.00 | 0.27 | 0.27 | 96 | 1014.0 |
| 20260902034553 | 71 | 132 | 0.0 | 0.0 | 0.00 | 0.27 | 0.27 | 96 | 1014.0 |
| 20260902034520 | 71 | 132 | 0.0 | 0.0 | 0.00 | 0.27 | 0.27 | 96 | 1014.2 |
| 20260902034440 | 71 | 132 | 0.0 | 0.0 | 0.00 | 0.27 | 0.27 | 96 | 1014.0 |
| 20260902034215 | 71 | 132 | 0.0 | 0.0 | 0.00 | 0.27 | 0.27 | 96 | 1013.8 |
| 20260902034131 | 71 | 132 | 0.0 | 0.0 | 0.00 | 0.27 | 0.27 | 96 | 1013.8 |
| 20260902034030 | 71 | 132 | 0.0 | 0.0 | 0.00 | 0.27 | 0.27 | 96 | 1013.8 |
| 20260902034020 | 71 | 132 | 0.0 | 0.0 | 0.00 | 0.27 | 0.27 | 96 | 1013.8 |
| 20260902033955 | 71 | 132 | 0.0 | 0.9 | 0.00 | 0.27 | 0.27 | 96 | 1013.7 |
| 20260902033930 | 71 | 132 | 0.0 | 0.0 | 0.00 | 0.27 | 0.27 | 96 | 1013.6 |
| 20260902033858 | 71 | 131 | 0.0 | 0.9 | 0.00 | 0.27 | 0.27 | 96 | 1013.7 |
| 20260902033852 | 71 | 132 | 0.0 | 0.9 | 0.00 | 0.27 | 0.27 | 96 | 1013.7 |
| 20260902033843 | 71 | 131 | 0.0 | 0.9 | 0.00 | 0.27 | 0.27 | 96 | 1013.7 |
| 20260902033527 | 71 | 131 | 0.0 | 0.9 | 0.00 | 0.27 | 0.27 | 96 | 1013.7 |
| 20260902033521 | 71 | 132 | 0.0 | 0.9 | 0.00 | 0.27 | 0.27 | 96 | 1013.9 |
| 20260902033427 | 71 | 132 | 0.0 | 0.9 | 0.00 | 0.27 | 0.27 | 96 | 1013.7 |
| 20260902033326 | 71 | 132 | 0.0 | 0.9 | 0.00 | 0.27 | 0.27 | 96 | 1013.7 |
| 20260902033212 | 71 | 132 | 0.0 | 0.9 | 0.00 | 0.27 | 0.27 | 96 | 1013.7 |
| 20260902033127 | 71 | 132 | 0.0 | 0.9 | 0.00 | 0.27 | 0.27 | 96 | 1013.6 |
| 20260902033024 | 71 | 132 | 0.0 | 0.9 | 0.00 | 0.27 | 0.27 | 96 | 1013.6 |
| 20260902033021 | 71 | 132 | 0.0 | 0.9 | 0.00 | 0.27 | 0.27 | 96 | 1013.9 |
| 20260902032924 | 71 | 131 | 0.0 | 0.9 | 0.00 | 0.27 | 0.27 | 96 | 1013.7 |
| 20260902032822 | 71 | 131 | 0.0 | 0.9 | 0.00 | 0.27 | 0.27 | 96 | 1013.6 |
| 20260902032722 | 71 | 132 | 0.0 | 0.9 | 0.00 | 0.27 | 0.27 | 96 | 1013.6 |
| 20260902032712 | 71 | 132 | 0.0 | 0.0 | 0.00 | 0.27 | 0.27 | 96 | 1013.6 |
| 20260902032622 | 71 | 132 | 0.0 | 0.0 | 0.00 | 0.27 | 0.27 | 96 | 1013.6 |
| 20260902032521 | 71 | 132 | 0.0 | 0.0 | 0.00 | 0.27 | 0.27 | 96 | 1013.6 |
| 20260902032422 | 71 | 132 | 0.0 | 0.0 | 0.00 | 0.27 | 0.27 | 96 | 1013.4 |
| 20260902032414 | 71 | 132 | 0.0 | 0.0 | 0.00 | 0.27 | 0.27 | 96 | 1013.4 |
| 20260902032410 | 71 | 132 | 0.0 | 0.0 | 0.00 | 0.27 | 0.27 | 96 | 1013.4 |
| 20260902032405 | 71 | 132 | 0.0 | 0.0 | 0.00 | 0.27 | 0.27 | 96 | 1013.4 |
| 20260902032247 | 71 | 132 | 0.0 | 0.0 | 0.00 | 0.27 | 0.27 | 96 | 1013.4 |
| 20260902032036 | 71 | 132 | 0.0 | 0.0 | 0.00 | 0.27 | 0.27 | 96 | 1013.6 |
| 20260902032027 | 71 | 132 | 0.0 | 0.0 | 0.00 | 0.27 | 0.27 | 96 | 1013.4 |
| 20260902031817 | 71 | 132 | 0.0 | 0.0 | 0.00 | 0.27 | 0.27 | 96 | 1013.4 |
| 20260902031749 | 71 | 132 | 0.0 | 0.0 | 0.00 | 0.27 | 0.27 | 96 | 1013.6 |
| 20260902031744 | 71 | 132 | 0.0 | 0.0 | 0.00 | 0.27 | 0.27 | 96 | 1013.6 |
| 20260902031731 | 71 | 132 | 0.0 | 0.0 | 0.00 | 0.27 | 0.27 | 96 | 1013.5 |
| 20260902031521 | 71 | 132 | 0.0 | 0.0 | 0.00 | 0.27 | 0.27 | 96 | 1013.8 |
| 20260902031415 | 71 | 132 | 0.0 | 0.0 | 0.00 | 0.27 | 0.27 | 96 | 1013.6 |
| 20260902031314 | 71 | 132 | 0.0 | 0.0 | 0.00 | 0.27 | 0.27 | 96 | 1013.6 |
| 20260902031215 | 71 | 132 | 0.0 | 0.0 | 0.00 | 0.27 | 0.27 | 96 | 1013.6 |
| 20260902031126 | 71 | 132 | 0.0 | 0.0 | 0.00 | 0.27 | 0.27 | 96 | 1013.6 |
| 20260902031122 | 71 | 132 | 0.0 | 0.0 | 0.00 | 0.27 | 0.27 | 96 | 1013.6 |
| 20260902031021 | 71 | 132 | 0.0 | 0.0 | 0.00 | 0.27 | 0.27 | 96 | 1013.9 |
| 20260902030912 | 71 | 132 | 0.0 | 0.0 | 0.00 | 0.27 | 0.27 | 96 | 1013.7 |
| 20260902030812 | 71 | 132 | 0.0 | 0.0 | 0.00 | 0.27 | 0.27 | 96 | 1013.8 |
| 20260902030711 | 71 | 132 | 0.0 | 0.0 | 0.00 | 0.27 | 0.27 | 96 | 1013.8 |
| 20260902030611 | 71 | 132 | 0.0 | 0.0 | 0.00 | 0.27 | 0.27 | 96 | 1013.8 |
| 20260902030521 | 71 | 132 | 0.0 | 0.0 | 0.00 | 0.27 | 0.27 | 96 | 1014.0 |
| 20260902030509 | 71 | 132 | 0.0 | 0.9 | 0.00 | 0.27 | 0.27 | 96 | 1013.8 |
| 20260902030409 | 71 | 132 | 0.0 | 0.9 | 0.00 | 0.27 | 0.27 | 96 | 1013.8 |
| 20260902030308 | 71 | 132 | 0.0 | 0.9 | 0.00 | 0.27 | 0.27 | 96 | 1013.8 |
| 20260902030209 | 71 | 132 | 0.0 | 0.9 | 0.00 | 0.27 | 0.27 | 96 | 1013.8 |
| 20260902030108 | 71 | 132 | 0.0 | 0.9 | 0.00 | 0.27 | 0.27 | 96 | 1013.9 |
| 20260902030020 | 71 | 132 | 0.0 | 0.9 | 0.00 | 0.27 | 0.27 | 96 | 1014.1 |
| 20260902030009 | 71 | 132 | 0.0 | 0.9 | 0.00 | 0.27 | 0.27 | 96 | 1013.9 |
| 20260902025905 | 71 | 132 | 0.0 | 0.9 | 0.00 | 0.27 | 0.27 | 96 | 1013.9 |
| 20260902025805 | 71 | 132 | 0.0 | 0.9 | 0.00 | 0.27 | 0.27 | 96 | 1013.9 |
| 20260902025710 | 71 | 132 | 0.0 | 0.9 | 0.00 | 0.27 | 0.27 | 96 | 1013.9 |
| 20260902025704 | 71 | 132 | 0.0 | 0.9 | 0.00 | 0.27 | 0.27 | 96 | 1013.8 |
| 20260902025603 | 71 | 132 | 0.0 | 0.9 | 0.00 | 0.27 | 0.27 | 96 | 1013.7 |
| 20260902025521 | 71 | 132 | 0.0 | 0.9 | 0.00 | 0.27 | 0.27 | 96 | 1013.8 |
| 20260902025503 | 71 | 132 | 0.0 | 0.9 | 0.00 | 0.27 | 0.27 | 96 | 1013.6 |
| 20260902025436 | 71 | 132 | 0.0 | 0.9 | 0.00 | 0.27 | 0.27 | 96 | 1013.5 |
| 20260902025402 | 71 | 132 | 0.0 | 0.9 | 0.00 | 0.27 | 0.27 | 96 | 1013.7 |
| 20260902025331 | 71 | 132 | 0.0 | 0.9 | 0.00 | 0.27 | 0.27 | 96 | 1013.4 |
| 20260902025325 | 71 | 132 | 0.0 | 0.9 | 0.00 | 0.27 | 0.27 | 96 | 1013.5 |
| 20260902025211 | 71 | 132 | 0.0 | 0.9 | 0.00 | 0.27 | 0.27 | 96 | 1013.5 |
| 20260902025028 | 71 | 132 | 0.0 | 0.9 | 0.00 | 0.27 | 0.27 | 96 | 1013.3 |
| 20260902025023 | 71 | 132 | 0.0 | 0.9 | 0.00 | 0.27 | 0.27 | 96 | 1013.3 |
| 20260902025021 | 71 | 132 | 0.0 | 0.9 | 0.00 | 0.27 | 0.27 | 96 | 1013.4 |
| 20260902025018 | 71 | 132 | 0.0 | 0.9 | 0.00 | 0.27 | 0.27 | 96 | 1013.3 |
| 20260902024709 | 71 | 132 | 0.0 | 0.9 | 0.00 | 0.27 | 0.27 | 96 | 1013.3 |
| 20260902024700 | 71 | 132 | 0.0 | 0.9 | 0.00 | 0.27 | 0.27 | 96 | 1013.3 |
| 20260902024559 | 71 | 132 | 0.0 | 0.9 | 0.00 | 0.27 | 0.27 | 96 | 1013.2 |
| 20260902024521 | 71 | 132 | 0.9 | 0.9 | 0.00 | 0.27 | 0.27 | 96 | 1013.4 |
| 20260902024459 | 71 | 132 | 0.0 | 0.9 | 0.00 | 0.27 | 0.27 | 96 | 1013.3 |
| 20260902024358 | 71 | 132 | 0.0 | 0.9 | 0.00 | 0.27 | 0.27 | 96 | 1013.2 |
| 20260902024257 | 71 | 132 | 0.0 | 0.9 | 0.00 | 0.27 | 0.27 | 95 | 1013.3 |
| 20260902024230 | 71 | 132 | 0.0 | 0.0 | 0.00 | 0.27 | 0.27 | 95 | 1013.2 |
| 20260902024226 | 71 | 132 | 0.0 | 0.0 | 0.00 | 0.27 | 0.27 | 95 | 1013.2 |
| 20260902024221 | 71 | 132 | 0.0 | 0.0 | 0.00 | 0.27 | 0.27 | 95 | 1013.2 |
| 20260902024215 | 71 | 132 | 0.0 | 0.0 | 0.00 | 0.27 | 0.27 | 95 | 1013.2 |
| 20260902024021 | 71 | 132 | 0.0 | 0.0 | 0.00 | 0.27 | 0.27 | 95 | 1013.3 |
| 20260902023855 | 71 | 132 | 0.0 | 0.0 | 0.00 | 0.27 | 0.27 | 95 | 1013.2 |
| 20260902023755 | 71 | 132 | 0.0 | 0.0 | 0.00 | 0.27 | 0.27 | 95 | 1013.2 |
| 20260902023705 | 71 | 132 | 0.0 | 0.0 | 0.00 | 0.27 | 0.27 | 95 | 1013.2 |
| 20260902023655 | 71 | 131 | 0.0 | 0.0 | 0.00 | 0.27 | 0.27 | 95 | 1013.1 |
| 20260902023553 | 71 | 132 | 0.0 | 1.7 | 0.00 | 0.27 | 0.27 | 95 | 1013.1 |
| 20260902023521 | 71 | 132 | 0.0 | 1.7 | 0.00 | 0.27 | 0.27 | 95 | 1013.2 |
| 20260902023451 | 71 | 132 | 0.0 | 1.7 | 0.00 | 0.27 | 0.27 | 95 | 1013.1 |
| 20260902023404 | 71 | 132 | 0.0 | 1.7 | 0.00 | 0.27 | 0.27 | 95 | 1013.0 |
| 20260902023400 | 71 | 132 | 0.0 | 1.7 | 0.00 | 0.27 | 0.27 | 95 | 1013.0 |
| 20260902023206 | 71 | 132 | 0.0 | 1.7 | 0.00 | 0.27 | 0.27 | 95 | 1013.0 |
| 20260902023150 | 71 | 132 | 0.0 | 1.7 | 0.00 | 0.27 | 0.27 | 95 | 1013.0 |
| 20260902023050 | 71 | 132 | 0.0 | 1.7 | 0.00 | 0.27 | 0.27 | 95 | 1013.0 |
| 20260902023020 | 71 | 132 | 0.0 | 1.7 | 0.00 | 0.27 | 0.27 | 95 | 1013.1 |
| 20260902022950 | 71 | 132 | 0.0 | 1.7 | 0.00 | 0.27 | 0.27 | 95 | 1013.0 |
| 20260902022848 | 71 | 132 | 0.0 | 1.7 | 0.00 | 0.27 | 0.27 | 95 | 1013.0 |
| 20260902022748 | 71 | 132 | 0.0 | 1.7 | 0.00 | 0.27 | 0.27 | 95 | 1013.0 |
| 20260902022706 | 71 | 132 | 0.0 | 1.7 | 0.00 | 0.27 | 0.27 | 95 | 1013.0 |
| 20260902022648 | 71 | 132 | 0.0 | 1.7 | 0.00 | 0.27 | 0.27 | 95 | 1013.0 |
| 20260902022558 | 71 | 132 | 0.0 | 1.7 | 0.00 | 0.27 | 0.27 | 95 | 1013.3 |
| 20260902022554 | 71 | 132 | 0.0 | 1.7 | 0.00 | 0.27 | 0.27 | 95 | 1013.2 |
| 20260902022520 | 71 | 132 | 0.0 | 1.7 | 0.00 | 0.27 | 0.27 | 95 | 1013.4 |
| 20260902022427 | 71 | 132 | 0.0 | 1.7 | 0.00 | 0.27 | 0.27 | 95 | 1013.4 |
| 20260902022343 | 71 | 132 | 0.0 | 1.7 | 0.00 | 0.27 | 0.27 | 95 | 1013.4 |
| 20260902022315 | 71 | 131 | 0.0 | 1.7 | 0.00 | 0.27 | 0.27 | 95 | 1013.4 |
| 20260902022143 | 71 | 132 | 0.0 | 1.7 | 0.00 | 0.27 | 0.27 | 95 | 1013.5 |
| 20260902022043 | 71 | 132 | 0.0 | 1.7 | 0.00 | 0.27 | 0.27 | 95 | 1013.5 |
| 20260902022021 | 71 | 132 | 0.0 | 1.7 | 0.00 | 0.27 | 0.27 | 95 | 1013.7 |
| 20260902021943 | 71 | 132 | 0.0 | 1.7 | 0.00 | 0.27 | 0.27 | 95 | 1013.6 |
| 20260902021843 | 71 | 132 | 0.0 | 1.7 | 0.00 | 0.27 | 0.27 | 95 | 1013.6 |
| 20260902021822 | 71 | 132 | 0.0 | 1.7 | 0.00 | 0.27 | 0.27 | 95 | 1013.6 |
| 20260902021807 | 71 | 132 | 0.0 | 1.7 | 0.00 | 0.27 | 0.27 | 95 | 1013.6 |
| 20260902021548 | 71 | 132 | 0.0 | 1.7 | 0.00 | 0.27 | 0.27 | 95 | 1013.5 |
| 20260902021521 | 71 | 132 | 0.0 | 1.7 | 0.00 | 0.27 | 0.27 | 95 | 1013.6 |
| 20260902021339 | 71 | 132 | 0.0 | 3.5 | 0.00 | 0.27 | 0.27 | 95 | 1013.4 |
| 20260902021238 | 71 | 128 | 0.0 | 3.5 | 0.00 | 0.27 | 0.27 | 95 | 1013.5 |
| 20260902021206 | 71 | 126 | 0.0 | 3.5 | 0.00 | 0.27 | 0.27 | 95 | 1013.5 |
| 20260902021137 | 71 | 126 | 0.0 | 3.5 | 0.00 | 0.27 | 0.27 | 95 | 1013.5 |
| 20260902021037 | 71 | 108 | 0.9 | 3.5 | 0.00 | 0.27 | 0.27 | 95 | 1013.4 |
| 20260902021021 | 71 | 108 | 0.0 | 2.6 | 0.00 | 0.27 | 0.27 | 95 | 1013.5 |
| 20260902020935 | 71 | 108 | 0.9 | 3.5 | 0.00 | 0.27 | 0.27 | 95 | 1013.4 |
| 20260902020835 | 71 | 108 | 0.9 | 3.5 | 0.00 | 0.27 | 0.27 | 95 | 1013.4 |
| 20260902020705 | 71 | 108 | 0.9 | 3.5 | 0.00 | 0.27 | 0.27 | 95 | 1013.3 |
| 20260902020633 | 71 | 108 | 0.9 | 3.5 | 0.00 | 0.27 | 0.27 | 95 | 1013.3 |
| 20260902020533 | 71 | 139 | 0.9 | 3.5 | 0.00 | 0.27 | 0.27 | 95 | 1013.2 |
| 20260902020521 | 71 | 140 | 0.9 | 2.6 | 0.00 | 0.27 | 0.27 | 95 | 1013.3 |
| 20260902020431 | 71 | 90 | 0.9 | 3.5 | 0.00 | 0.27 | 0.27 | 95 | 1013.2 |
| 20260902020344 | 71 | 59 | 0.9 | 3.5 | 0.00 | 0.27 | 0.27 | 95 | 1013.2 |
| 20260902020340 | 71 | 61 | 0.9 | 3.5 | 0.00 | 0.27 | 0.27 | 95 | 1013.2 |
| 20260902020206 | 71 | 121 | 0.9 | 3.5 | 0.00 | 0.27 | 0.27 | 95 | 1013.2 |
| 20260902020155 | 71 | 84 | 0.9 | 3.5 | 0.00 | 0.27 | 0.27 | 95 | 1013.1 |
| 20260902020150 | 71 | 111 | 0.9 | 3.5 | 0.00 | 0.27 | 0.27 | 95 | 1013.0 |
| 20260902020146 | 71 | 102 | 0.9 | 3.5 | 0.00 | 0.27 | 0.27 | 95 | 1013.1 |
| 20260902020021 | 71 | 92 | 1.7 | 3.5 | 0.00 | 0.27 | 0.27 | 95 | 1013.1 |
| 20260902015840 | 71 | 79 | 0.9 | 3.5 | 0.00 | 0.27 | 0.27 | 95 | 1013.0 |
| 20260902015836 | 71 | 100 | 0.9 | 3.5 | 0.00 | 0.27 | 0.27 | 95 | 1013.0 |
| 20260902015705 | 71 | 80 | 0.9 | 3.5 | 0.00 | 0.27 | 0.27 | 95 | 1013.1 |
| 20260902015627 | 71 | 58 | 0.9 | 3.5 | 0.00 | 0.27 | 0.27 | 95 | 1013.1 |
| 20260902015526 | 71 | 90 | 0.9 | 3.5 | 0.00 | 0.27 | 0.27 | 95 | 1013.1 |
| 20260902015521 | 71 | 90 | 1.7 | 3.5 | 0.00 | 0.27 | 0.27 | 95 | 1013.2 |
| 20260902015426 | 71 | 71 | 0.9 | 3.5 | 0.00 | 0.27 | 0.27 | 95 | 1013.1 |
| 20260902015324 | 71 | 107 | 0.9 | 2.6 | 0.00 | 0.27 | 0.27 | 95 | 1013.1 |
| 20260902015224 | 71 | 126 | 0.0 | 2.6 | 0.00 | 0.27 | 0.27 | 95 | 1013.1 |
| 20260902015204 | 71 | 107 | 0.0 | 2.6 | 0.00 | 0.27 | 0.27 | 95 | 1013.1 |
| 20260902015124 | 71 | 107 | 0.0 | 2.6 | 0.00 | 0.27 | 0.27 | 95 | 1013.1 |
| 20260902015023 | 71 | 101 | 0.0 | 2.6 | 0.00 | 0.27 | 0.27 | 95 | 1013.1 |
| 20260902015021 | 71 | 98 | 2.6 | 2.6 | 0.00 | 0.27 | 0.27 | 95 | 1013.2 |
| 20260902014923 | 71 | 204 | 0.0 | 1.7 | 0.00 | 0.27 | 0.27 | 95 | 1013.1 |
| 20260902014823 | 71 | 205 | 0.0 | 0.9 | 0.00 | 0.27 | 0.27 | 95 | 1013.1 |
| 20260902014703 | 71 | 225 | 0.0 | 0.9 | 0.00 | 0.27 | 0.27 | 95 | 1013.0 |
| 20260902014622 | 71 | 225 | 0.0 | 0.9 | 0.00 | 0.27 | 0.27 | 95 | 1013.0 |
| 20260902014522 | 71 | 225 | 0.0 | 0.0 | 0.00 | 0.27 | 0.27 | 95 | 1013.0 |
| 20260902014421 | 71 | 225 | 0.0 | 0.0 | 0.00 | 0.27 | 0.27 | 95 | 1012.9 |
| 20260902014320 | 71 | 225 | 0.0 | 0.0 | 0.00 | 0.27 | 0.27 | 95 | 1013.0 |
| 20260902014253 | 71 | 225 | 0.0 | 0.0 | 0.00 | 0.27 | 0.27 | 95 | 1012.9 |
| 20260902014248 | 71 | 225 | 0.0 | 0.0 | 0.00 | 0.27 | 0.27 | 95 | 1012.9 |
| 20260902014235 | 71 | 225 | 0.0 | 0.0 | 0.00 | 0.27 | 0.27 | 95 | 1012.9 |
| 20260902014036 | 71 | 225 | 0.0 | 0.0 | 0.00 | 0.27 | 0.27 | 95 | 1012.9 |
| 20260902013918 | 71 | 225 | 0.0 | 0.0 | 0.00 | 0.27 | 0.27 | 95 | 1012.8 |
| 20260902013831 | 71 | 225 | 0.0 | 0.0 | 0.00 | 0.27 | 0.27 | 95 | 1012.6 |
| 20260902013826 | 71 | 225 | 0.0 | 0.0 | 0.00 | 0.27 | 0.27 | 95 | 1012.7 |
| 20260902013700 | 71 | 225 | 0.0 | 0.0 | 0.00 | 0.27 | 0.27 | 95 | 1012.6 |
| 20260902013617 | 71 | 225 | 0.0 | 0.0 | 0.00 | 0.27 | 0.27 | 95 | 1012.6 |
| 20260902013529 | 71 | 225 | 0.0 | 0.0 | 0.00 | 0.27 | 0.27 | 95 | 1012.3 |
| 20260902013525 | 71 | 225 | 0.0 | 0.0 | 0.00 | 0.27 | 0.27 | 95 | 1012.4 |
| 20260902013521 | 71 | 225 | 0.0 | 0.0 | 0.00 | 0.27 | 0.27 | 95 | 1012.4 |
| 20260902013316 | 71 | 225 | 0.0 | 0.0 | 0.00 | 0.27 | 0.27 | 95 | 1012.2 |
| 20260902013215 | 71 | 225 | 0.0 | 0.0 | 0.00 | 0.27 | 0.27 | 95 | 1012.2 |
| 20260902013159 | 71 | 225 | 0.0 | 0.0 | 0.00 | 0.27 | 0.27 | 95 | 1012.2 |
| 20260902013115 | 71 | 225 | 0.0 | 0.0 | 0.00 | 0.27 | 0.27 | 94 | 1012.2 |
| 20260902013021 | 71 | 225 | 0.0 | 0.0 | 0.00 | 0.27 | 0.27 | 95 | 1012.1 |
| 20260902013014 | 71 | 225 | 0.0 | 0.0 | 0.00 | 0.27 | 0.27 | 95 | 1012.1 |
| 20260902012958 | 71 | 225 | 0.0 | 0.0 | 0.00 | 0.27 | 0.27 | 95 | 1011.7 |
| 20260902012954 | 71 | 225 | 0.0 | 0.0 | 0.00 | 0.27 | 0.27 | 95 | 1011.6 |
| 20260902012950 | 71 | 225 | 0.0 | 0.0 | 0.01 | 0.27 | 0.27 | 95 | 1011.6 |
| 20260902012945 | 71 | 225 | 0.0 | 0.0 | 0.00 | 0.27 | 0.27 | 94 | 1012.0 |
| 20260902012935 | 71 | 225 | 0.0 | 0.0 | 0.00 | 0.27 | 0.27 | 95 | 1011.8 |
| 20260902012521 | 71 | 225 | 0.0 | 0.0 | 0.01 | 0.27 | 0.27 | 94 | 1011.6 |
| 20260902012511 | 71 | 225 | 0.0 | 0.0 | 0.01 | 0.27 | 0.27 | 94 | 1011.6 |
| 20260902012411 | 71 | 225 | 0.0 | 0.0 | 0.02 | 0.27 | 0.27 | 94 | 1011.5 |
| 20260902012310 | 71 | 225 | 0.0 | 0.0 | 0.02 | 0.27 | 0.27 | 94 | 1011.4 |
| 20260902012210 | 71 | 225 | 0.0 | 0.0 | 0.04 | 0.27 | 0.27 | 94 | 1011.3 |
| 20260902012158 | 71 | 225 | 0.0 | 0.0 | 0.04 | 0.27 | 0.27 | 94 | 1011.3 |
| 20260902012120 | 71 | 225 | 0.0 | 0.0 | 0.08 | 0.27 | 0.27 | 94 | 1011.3 |
| 20260902012115 | 71 | 225 | 0.0 | 0.0 | 0.06 | 0.27 | 0.27 | 94 | 1011.3 |
| 20260902012021 | 71 | 225 | 0.0 | 0.0 | 0.07 | 0.27 | 0.27 | 94 | 1011.4 |
| 20260902011916 | 71 | 225 | 0.0 | 0.0 | 0.14 | 0.27 | 0.27 | 95 | 1011.5 |
| 20260902011907 | 71 | 225 | 0.0 | 0.0 | 0.10 | 0.27 | 0.27 | 94 | 1011.4 |
| 20260902011815 | 71 | 225 | 0.0 | 0.0 | 0.12 | 0.27 | 0.27 | 94 | 1011.5 |
| 20260902011806 | 71 | 225 | 0.0 | 0.0 | 0.14 | 0.27 | 0.27 | 95 | 1011.5 |
| 20260902011605 | 71 | 225 | 0.0 | 0.0 | 0.15 | 0.27 | 0.27 | 94 | 1011.5 |
| 20260902011536 | 72 | 225 | 0.0 | 0.0 | 0.15 | 0.27 | 0.27 | 94 | 1011.6 |
| 20260902011505 | 71 | 225 | 0.0 | 0.0 | 0.16 | 0.27 | 0.27 | 94 | 1011.5 |
| 20260902011405 | 71 | 225 | 0.0 | 0.0 | 0.18 | 0.27 | 0.27 | 94 | 1011.5 |
| 20260902011304 | 71 | 225 | 0.0 | 0.0 | 0.18 | 0.27 | 0.27 | 94 | 1011.5 |
| 20260902011157 | 71 | 225 | 0.0 | 0.0 | 0.19 | 0.27 | 0.27 | 94 | 1011.4 |
| 20260902011103 | 71 | 225 | 0.0 | 0.0 | 0.20 | 0.27 | 0.27 | 94 | 1011.4 |
| 20260902011036 | 72 | 225 | 0.0 | 0.0 | 0.20 | 0.27 | 0.27 | 94 | 1011.5 |
| 20260902011004 | 72 | 225 | 0.0 | 0.0 | 0.20 | 0.27 | 0.27 | 94 | 1011.4 |
| 20260902010903 | 72 | 225 | 0.0 | 0.0 | 0.22 | 0.27 | 0.27 | 94 | 1011.5 |
| 20260902010801 | 72 | 225 | 0.0 | 1.7 | 0.23 | 0.27 | 0.27 | 94 | 1011.5 |
| 20260902010655 | 72 | 225 | 0.0 | 1.7 | 0.24 | 0.27 | 0.27 | 94 | 1011.5 |
| 20260902010600 | 72 | 225 | 0.0 | 1.7 | 0.24 | 0.27 | 0.27 | 94 | 1011.4 |
| 20260902010521 | 72 | 225 | 0.0 | 1.7 | 0.24 | 0.27 | 0.27 | 94 | 1011.6 |
| 20260902010458 | 72 | 225 | 0.0 | 1.7 | 0.24 | 0.27 | 0.27 | 94 | 1011.5 |
| 20260902010411 | 72 | 225 | 0.9 | 2.6 | 0.25 | 0.27 | 0.27 | 94 | 1011.7 |
| 20260902010407 | 72 | 225 | 0.0 | 2.6 | 0.25 | 0.27 | 0.27 | 94 | 1011.6 |
| 20260902010158 | 72 | 225 | 0.9 | 2.6 | 0.25 | 0.27 | 0.27 | 94 | 1011.7 |
| 20260902010056 | 72 | 225 | 0.9 | 3.5 | 0.26 | 0.27 | 0.27 | 94 | 1011.8 |
| 20260902010036 | 72 | 225 | 0.0 | 3.5 | 0.26 | 0.27 | 0.27 | 94 | 1012.0 |
| 20260902005955 | 72 | 225 | 0.9 | 3.5 | 0.26 | 0.27 | 0.27 | 94 | 1011.9 |
| 20260902005853 | 72 | 225 | 0.9 | 3.5 | 0.26 | 0.27 | 0.27 | 94 | 1011.8 |
| 20260902005753 | 72 | 204 | 0.9 | 3.5 | 0.26 | 0.27 | 0.27 | 94 | 1011.6 |
| 20260902005652 | 72 | 204 | 0.9 | 3.5 | 0.26 | 0.27 | 0.27 | 93 | 1011.5 |
| 20260902005551 | 72 | 204 | 0.9 | 3.5 | 0.26 | 0.27 | 0.27 | 93 | 1011.5 |
| 20260902005521 | 72 | 204 | 0.9 | 3.5 | 0.26 | 0.27 | 0.27 | 93 | 1011.7 |
| 20260902005451 | 72 | 204 | 0.9 | 3.5 | 0.26 | 0.27 | 0.27 | 93 | 1011.7 |
| 20260902005350 | 72 | 204 | 0.9 | 3.5 | 0.26 | 0.27 | 0.27 | 93 | 1011.7 |
| 20260902005250 | 72 | 204 | 0.0 | 3.5 | 0.26 | 0.27 | 0.27 | 93 | 1011.9 |
| 20260902005149 | 72 | 203 | 0.0 | 3.5 | 0.26 | 0.27 | 0.27 | 93 | 1011.9 |
| 20260902005048 | 72 | 172 | 0.0 | 1.7 | 0.26 | 0.27 | 0.27 | 93 | 1012.0 |
| 20260902005021 | 72 | 172 | 0.0 | 1.7 | 0.26 | 0.27 | 0.27 | 93 | 1011.9 |
| 20260902004948 | 72 | 172 | 0.9 | 1.7 | 0.26 | 0.27 | 0.27 | 93 | 1011.9 |
| 20260902004848 | 72 | 120 | 0.9 | 2.6 | 0.26 | 0.27 | 0.27 | 93 | 1011.9 |
| 20260902004748 | 72 | 109 | 0.9 | 2.6 | 0.26 | 0.27 | 0.27 | 93 | 1011.9 |
| 20260902004647 | 72 | 109 | 0.9 | 2.6 | 0.26 | 0.27 | 0.27 | 93 | 1011.8 |
| 20260902004546 | 72 | 109 | 0.9 | 2.6 | 0.26 | 0.27 | 0.27 | 93 | 1011.6 |
| 20260902004520 | 72 | 109 | 0.9 | 2.6 | 0.26 | 0.27 | 0.27 | 93 | 1011.3 |
| 20260902004456 | 72 | 109 | 0.9 | 2.6 | 0.26 | 0.27 | 0.27 | 93 | 1011.2 |
| 20260902004452 | 72 | 109 | 0.9 | 2.6 | 0.26 | 0.27 | 0.27 | 93 | 1011.3 |
| 20260902004242 | 72 | 109 | 0.9 | 2.6 | 0.26 | 0.27 | 0.27 | 93 | 1011.0 |
| 20260902004142 | 72 | 109 | 0.9 | 2.6 | 0.26 | 0.27 | 0.27 | 92 | 1010.9 |
| 20260902004041 | 72 | 109 | 0.9 | 2.6 | 0.26 | 0.27 | 0.27 | 92 | 1010.8 |
| 20260902004035 | 72 | 243 | 1.7 | 2.6 | 0.26 | 0.27 | 0.27 | 92 | 1010.7 |
| 20260902003941 | 73 | 243 | 0.9 | 2.6 | 0.26 | 0.27 | 0.27 | 92 | 1010.7 |
| 20260902003852 | 73 | 242 | 0.9 | 2.6 | 0.26 | 0.27 | 0.27 | 92 | 1010.4 |
| 20260902003848 | 73 | 242 | 0.9 | 2.6 | 0.26 | 0.27 | 0.27 | 92 | 1010.6 |
| 20260902003656 | 73 | 242 | 0.9 | 2.6 | 0.26 | 0.27 | 0.27 | 92 | 1010.4 |
| 20260902003646 | 73 | 242 | 0.9 | 2.6 | 0.26 | 0.27 | 0.27 | 92 | 1010.3 |
| 20260902003521 | 73 | 242 | 0.0 | 2.6 | 0.26 | 0.27 | 0.27 | 92 | 1010.4 |
| 20260902003435 | 73 | 242 | 0.9 | 2.6 | 0.26 | 0.27 | 0.27 | 92 | 1010.4 |
| 20260902003335 | 73 | 242 | 0.9 | 2.6 | 0.26 | 0.27 | 0.27 | 92 | 1010.4 |
| 20260902003235 | 73 | 242 | 0.9 | 2.6 | 0.26 | 0.27 | 0.27 | 92 | 1010.5 |
| 20260902003152 | 73 | 242 | 0.0 | 2.6 | 0.26 | 0.27 | 0.27 | 91 | 1010.7 |
| 20260902003149 | 73 | 242 | 0.0 | 2.6 | 0.26 | 0.27 | 0.27 | 92 | 1010.7 |
| 20260902003142 | 73 | 242 | 0.0 | 2.6 | 0.26 | 0.27 | 0.27 | 91 | 1010.7 |
| 20260902003021 | 73 | 242 | 0.9 | 2.6 | 0.26 | 0.27 | 0.27 | 91 | 1010.9 |
| 20260902002933 | 73 | 242 | 0.0 | 2.6 | 0.26 | 0.27 | 0.27 | 91 | 1010.9 |
| 20260902002831 | 73 | 243 | 0.0 | 2.6 | 0.26 | 0.27 | 0.27 | 91 | 1011.0 |
| 20260902002745 | 73 | 241 | 0.0 | 1.7 | 0.26 | 0.27 | 0.27 | 91 | 1011.0 |
| 20260902002736 | 73 | 232 | 0.0 | 0.0 | 0.25 | 0.26 | 0.27 | 90 | 1011.1 |
| 20260902002544 | 73 | 227 | 0.0 | 0.0 | 0.25 | 0.26 | 0.26 | 90 | 1011.1 |
| 20260902002540 | 73 | 229 | 0.0 | 0.0 | 0.25 | 0.26 | 0.26 | 90 | 1011.1 |
| 20260902002521 | 73 | 227 | 0.0 | 0.0 | 0.25 | 0.26 | 0.26 | 90 | 1011.1 |
| 20260902002329 | 74 | 227 | 0.0 | 0.0 | 0.24 | 0.25 | 0.25 | 90 | 1011.2 |
| 20260902002229 | 74 | 244 | 0.0 | 0.0 | 0.22 | 0.23 | 0.24 | 89 | 1011.3 |
| 20260902002145 | 74 | 244 | 0.0 | 0.0 | 0.20 | 0.21 | 0.23 | 89 | 1011.4 |
| 20260902002129 | 74 | 244 | 0.0 | 0.0 | 0.20 | 0.21 | 0.22 | 89 | 1011.4 |
| 20260902002039 | 74 | 288 | 0.0 | 0.0 | 0.16 | 0.17 | 0.19 | 89 | 1011.6 |
| 20260902002035 | 74 | 244 | 0.0 | 0.0 | 0.18 | 0.19 | 0.21 | 89 | 1011.6 |
| 20260902002022 | 74 | 244 | 0.0 | 0.0 | 0.19 | 0.20 | 0.20 | 89 | 1011.7 |
| 20260902001825 | 74 | 270 | 0.0 | 0.0 | 0.14 | 0.15 | 0.16 | 88 | 1011.7 |
| 20260902001725 | 74 | 252 | 0.0 | 0.0 | 0.12 | 0.13 | 0.15 | 88 | 1011.7 |
| 20260902001644 | 75 | 275 | 0.0 | 0.0 | 0.12 | 0.13 | 0.13 | 87 | 1011.6 |
| 20260902001637 | 75 | 210 | 0.0 | 0.0 | 0.10 | 0.11 | 0.12 | 87 | 1011.7 |
| 20260902001633 | 75 | 261 | 0.0 | 0.0 | 0.11 | 0.12 | 0.13 | 87 | 1011.6 |
| 20260902001551 | 75 | 273 | 0.0 | 0.0 | 0.11 | 0.12 | 0.12 | 86 | 1011.8 |
| 20260902001436 | 76 | 286 | 0.0 | 0.0 | 0.08 | 0.09 | 0.10 | 85 | 1011.7 |
| 20260902001432 | 75 | 277 | 0.0 | 0.0 | 0.08 | 0.09 | 0.10 | 86 | 1011.7 |
| 20260902001222 | 76 | 245 | 0.0 | 0.0 | 0.07 | 0.08 | 0.09 | 84 | 1011.8 |
| 20260902001145 | 76 | 277 | 0.0 | 0.0 | 0.07 | 0.08 | 0.08 | 84 | 1011.8 |
| 20260902001121 | 76 | 272 | 0.0 | 0.0 | 0.06 | 0.07 | 0.08 | 84 | 1011.8 |
| 20260902001047 | 77 | 249 | 0.0 | 0.0 | 0.04 | 0.05 | 0.06 | 84 | 1011.9 |
| 20260902001042 | 78 | 317 | 0.0 | 0.0 | 0.03 | 0.04 | 0.05 | 83 | 1011.8 |
| 20260902001037 | 77 | 310 | 0.0 | 0.0 | 0.06 | 0.07 | 0.07 | 84 | 1011.9 |
| 20260902001021 | 77 | 290 | 0.0 | 0.0 | 0.06 | 0.07 | 0.07 | 83 | 1011.9 |
| 20260902000719 | 78 | 223 | 0.0 | 0.0 | 0.02 | 0.03 | 0.04 | 83 | 1011.8 |
| 20260902000645 | 78 | 276 | 0.0 | 0.0 | 0.02 | 0.03 | 0.03 | 82 | 1011.9 |
| 20260902000618 | 78 | 244 | 0.0 | 0.0 | 0.02 | 0.03 | 0.03 | 82 | 1011.9 |
| 20260902000521 | 79 | 261 | 0.0 | 0.0 | 0.02 | 0.03 | 0.03 | 82 | 1011.9 |
| 20260902000518 | 79 | 314 | 0.0 | 0.0 | 0.02 | 0.03 | 0.03 | 82 | 1011.9 |
| 20260902000418 | 79 | 271 | 0.0 | 0.0 | 0.01 | 0.02 | 0.03 | 82 | 1011.9 |
| 20260902000409 | 81 | 298 | 0.0 | 0.0 | 0.01 | 0.02 | 0.02 | 86 | 1011.8 |
| 20260902000316 | 80 | 308 | 0.0 | 0.0 | 0.01 | 0.02 | 0.02 | 84 | 1011.9 |
| 20260902000252 | 81 | 293 | 0.0 | 0.0 | 0.01 | 0.02 | 0.02 | 86 | 1012.0 |
| 20260902000129 | 81 | 296 | 0.0 | 0.0 | 0.00 | 0.01 | 0.01 | 88 | 1011.6 |
| 20260902000125 | 81 | 287 | 0.0 | 0.0 | 0.00 | 0.01 | 0.02 | 87 | 1011.8 |
| 20260902000021 | 81 | 317 | 0.0 | 0.0 | 0.00 | 0.01 | 0.01 | 88 | 1011.4 |
| 20260901235916 | 81 | 279 | 0.0 | 0.0 | 0.00 | 0.01 | 0.01 | 89 | 1011.4 |
| 20260901235815 | 81 | 261 | 0.0 | 0.0 | 0.00 | 0.01 | 0.01 | 88 | 1011.3 |
| 20260901235756 | 81 | 219 | 0.0 | 0.0 | 0.00 | 0.01 | 0.01 | 88 | 1010.7 |
| 20260901235751 | 81 | 219 | 0.0 | 0.0 | 0.00 | 0.01 | 0.01 | 88 | 1010.6 |
| 20260901235746 | 81 | 219 | 0.0 | 0.0 | 0.00 | 0.01 | 0.01 | 88 | 1010.9 |
| 20260901235738 | 81 | 219 | 0.0 | 0.0 | 0.00 | 0.01 | 0.01 | 88 | 1010.7 |
| 20260901235520 | 81 | 219 | 0.0 | 0.0 | 0.00 | 0.01 | 0.01 | 88 | 1010.6 |
| 20260901235325 | 81 | 218 | 0.0 | 0.0 | 0.00 | 0.01 | 0.01 | 87 | 1010.6 |
| 20260901235321 | 81 | 218 | 0.0 | 0.0 | 0.00 | 0.01 | 0.01 | 88 | 1010.6 |
| 20260901235112 | 81 | 218 | 0.0 | 0.0 | 0.00 | 0.01 | 0.01 | 87 | 1010.6 |
| 20260901235021 | 81 | 218 | 0.0 | 0.0 | 0.00 | 0.01 | 0.01 | 87 | 1010.5 |
| 20260901235011 | 81 | 218 | 0.0 | 0.0 | 0.00 | 0.01 | 0.01 | 87 | 1010.6 |
| 20260901234911 | 81 | 218 | 0.0 | 0.0 | 0.00 | 0.01 | 0.01 | 87 | 1010.5 |
| 20260901234709 | 81 | 218 | 0.0 | 0.0 | 0.00 | 0.01 | 0.01 | 87 | 1010.4 |
| 20260901234641 | 81 | 219 | 0.0 | 0.0 | 0.00 | 0.01 | 0.01 | 87 | 1010.5 |
| 20260901234608 | 81 | 218 | 0.0 | 0.0 | 0.00 | 0.01 | 0.01 | 87 | 1010.5 |
| 20260901234521 | 81 | 218 | 0.0 | 0.0 | 0.00 | 0.01 | 0.01 | 87 | 1010.4 |
| 20260901234508 | 81 | 218 | 0.0 | 0.0 | 0.00 | 0.01 | 0.01 | 87 | 1010.5 |
| 20260901234409 | 81 | 218 | 0.0 | 0.0 | 0.00 | 0.01 | 0.01 | 87 | 1010.4 |
| 20260901234307 | 81 | 218 | 0.0 | 0.0 | 0.00 | 0.01 | 0.01 | 86 | 1010.3 |
| 20260901234207 | 81 | 218 | 0.0 | 0.0 | 0.00 | 0.01 | 0.01 | 86 | 1010.2 |
| 20260901234142 | 82 | 218 | 0.0 | 0.0 | 0.00 | 0.01 | 0.01 | 86 | 1010.2 |
| 20260901234106 | 82 | 218 | 0.0 | 0.0 | 0.00 | 0.01 | 0.01 | 86 | 1010.3 |
| 20260901234021 | 82 | 218 | 0.0 | 0.0 | 0.00 | 0.01 | 0.01 | 86 | 1010.3 |
| 20260901234006 | 82 | 218 | 0.0 | 0.0 | 0.00 | 0.01 | 0.01 | 86 | 1010.3 |
| 20260901233947 | 82 | 218 | 0.0 | 0.0 | 0.00 | 0.01 | 0.01 | 86 | 1010.5 |
| 20260901233941 | 82 | 218 | 0.0 | 0.0 | 0.00 | 0.01 | 0.01 | 86 | 1010.4 |
| 20260901233719 | 82 | 218 | 0.0 | 0.0 | 0.00 | 0.01 | 0.01 | 86 | 1010.6 |
| 20260901233711 | 82 | 218 | 0.0 | 0.0 | 0.00 | 0.01 | 0.01 | 86 | 1010.6 |
| 20260901233521 | 82 | 218 | 0.0 | 0.0 | 0.00 | 0.01 | 0.01 | 85 | 1010.8 |
| 20260901233518 | 82 | 218 | 0.0 | 0.0 | 0.00 | 0.01 | 0.01 | 85 | 1010.8 |
| 20260901233514 | 82 | 218 | 0.0 | 0.0 | 0.00 | 0.01 | 0.01 | 85 | 1010.8 |
| 20260901233358 | 82 | 218 | 0.0 | 0.0 | 0.00 | 0.01 | 0.01 | 84 | 1010.9 |
| 20260901233304 | 82 | 218 | 0.0 | 0.0 | 0.00 | 0.01 | 0.01 | 85 | 1010.8 |
| 20260901233246 | 82 | 218 | 0.0 | 0.0 | 0.00 | 0.01 | 0.01 | 85 | 1010.8 |
| 20260901233103 | 82 | 218 | 0.0 | 0.0 | 0.00 | 0.01 | 0.01 | 84 | 1010.8 |
| 20260901233021 | 82 | 218 | 0.0 | 0.0 | 0.00 | 0.01 | 0.01 | 84 | 1010.7 |
| 20260901233003 | 82 | 218 | 0.0 | 0.0 | 0.00 | 0.01 | 0.01 | 84 | 1010.8 |
| 20260901232915 | 82 | 218 | 0.0 | 0.0 | 0.00 | 0.01 | 0.01 | 85 | 1010.6 |
| 20260901232911 | 82 | 218 | 0.0 | 0.0 | 0.00 | 0.01 | 0.01 | 85 | 1010.7 |
| 20260901232638 | 82 | 218 | 0.0 | 0.0 | 0.00 | 0.01 | 0.01 | 84 | 1010.6 |
| 20260901232601 | 82 | 218 | 0.0 | 0.0 | 0.00 | 0.01 | 0.01 | 84 | 1010.5 |
| 20260901232521 | 82 | 218 | 0.0 | 0.0 | 0.00 | 0.01 | 0.01 | 84 | 1010.4 |
| 20260901232500 | 82 | 218 | 0.0 | 0.0 | 0.00 | 0.01 | 0.01 | 84 | 1010.5 |
| 20260901232359 | 82 | 218 | 0.0 | 0.0 | 0.00 | 0.01 | 0.01 | 84 | 1010.5 |
| 20260901232300 | 82 | 218 | 0.0 | 0.0 | 0.00 | 0.01 | 0.01 | 84 | 1010.5 |
| 20260901232159 | 82 | 218 | 0.0 | 0.0 | 0.00 | 0.01 | 0.01 | 84 | 1010.5 |
| 20260901232138 | 83 | 218 | 0.0 | 0.0 | 0.00 | 0.01 | 0.01 | 84 | 1010.5 |
| 20260901232059 | 83 | 218 | 0.0 | 0.0 | 0.00 | 0.01 | 0.01 | 84 | 1010.5 |
| 20260901232021 | 83 | 218 | 0.0 | 0.0 | 0.00 | 0.01 | 0.01 | 83 | 1010.4 |
| 20260901231956 | 83 | 218 | 0.0 | 0.0 | 0.00 | 0.01 | 0.01 | 83 | 1010.5 |
| 20260901231855 | 83 | 218 | 0.0 | 0.0 | 0.00 | 0.01 | 0.01 | 83 | 1010.4 |
| 20260901231755 | 83 | 218 | 0.0 | 0.0 | 0.00 | 0.01 | 0.01 | 83 | 1010.4 |
| 20260901231712 | 83 | 218 | 0.0 | 0.0 | 0.00 | 0.01 | 0.01 | 83 | 1010.5 |
| 20260901231602 | 83 | 218 | 0.0 | 0.0 | 0.00 | 0.01 | 0.01 | 83 | 1010.5 |
| 20260901231521 | 83 | 218 | 0.0 | 0.0 | 0.00 | 0.01 | 0.01 | 83 | 1010.4 |
| 20260901231352 | 83 | 218 | 0.0 | 0.0 | 0.00 | 0.01 | 0.01 | 83 | 1010.5 |
| 20260901231251 | 83 | 218 | 0.0 | 0.0 | 0.00 | 0.01 | 0.01 | 83 | 1010.4 |
| 20260901231134 | 83 | 218 | 0.0 | 0.0 | 0.00 | 0.01 | 0.01 | 82 | 1010.5 |
| 20260901231050 | 83 | 218 | 0.0 | 0.0 | 0.00 | 0.01 | 0.01 | 82 | 1010.5 |
| 20260901231021 | 83 | 218 | 0.0 | 0.0 | 0.00 | 0.01 | 0.01 | 82 | 1010.4 |
| 20260901230950 | 83 | 218 | 0.0 | 0.0 | 0.00 | 0.01 | 0.01 | 82 | 1010.5 |
| 20260901230902 | 83 | 218 | 0.0 | 0.0 | 0.00 | 0.01 | 0.01 | 81 | 1010.7 |
| 20260901230858 | 83 | 218 | 0.0 | 0.0 | 0.00 | 0.01 | 0.01 | 81 | 1010.6 |
| 20260901230633 | 84 | 218 | 0.0 | 0.0 | 0.00 | 0.01 | 0.01 | 81 | 1010.7 |
| 20260901230548 | 84 | 218 | 0.0 | 0.0 | 0.00 | 0.01 | 0.01 | 81 | 1010.7 |
| 20260901230521 | 84 | 218 | 0.0 | 0.0 | 0.00 | 0.01 | 0.01 | 81 | 1010.6 |
| 20260901230509 | 84 | 218 | 0.0 | 0.0 | 0.00 | 0.01 | 0.01 | 81 | 1010.7 |
| 20260901230347 | 84 | 218 | 0.0 | 0.0 | 0.00 | 0.01 | 0.01 | 81 | 1010.8 |
| 20260901230250 | 84 | 218 | 0.0 | 0.0 | 0.00 | 0.01 | 0.01 | 80 | 1010.8 |
| 20260901230241 | 84 | 218 | 0.0 | 0.0 | 0.00 | 0.01 | 0.01 | 80 | 1010.8 |
| 20260901230046 | 84 | 218 | 0.0 | 0.0 | 0.00 | 0.01 | 0.01 | 80 | 1010.8 |
| 20260901230020 | 84 | 218 | 0.0 | 0.0 | 0.00 | 0.01 | 0.01 | 80 | 1010.6 |
| 20260901225946 | 84 | 218 | 0.0 | 0.0 | 0.00 | 0.01 | 0.01 | 80 | 1010.7 |
| 20260901225844 | 84 | 218 | 0.0 | 0.0 | 0.00 | 0.01 | 0.01 | 79 | 1010.6 |
| 20260901225820 | 84 | 218 | 0.0 | 0.0 | 0.00 | 0.01 | 0.01 | 80 | 1010.5 |
| 20260901225700 | 84 | 218 | 0.0 | 0.0 | 0.00 | 0.01 | 0.01 | 79 | 1010.3 |
| 20260901225652 | 85 | 218 | 0.0 | 0.0 | 0.00 | 0.01 | 0.01 | 79 | 1010.2 |
| 20260901225521 | 85 | 218 | 0.0 | 0.0 | 0.00 | 0.01 | 0.01 | 79 | 1010.0 |
| 20260901225341 | 85 | 218 | 0.0 | 0.0 | 0.00 | 0.01 | 0.01 | 79 | 1010.1 |
| 20260901225333 | 85 | 218 | 0.0 | 0.0 | 0.00 | 0.01 | 0.01 | 79 | 1010.4 |
| 20260901225326 | 85 | 218 | 0.0 | 0.0 | 0.00 | 0.01 | 0.01 | 79 | 1010.2 |
| 20260901225317 | 85 | 218 | 0.0 | 0.0 | 0.00 | 0.01 | 0.01 | 79 | 1010.3 |
| 20260901225021 | 85 | 218 | 0.0 | 0.0 | 0.00 | 0.01 | 0.01 | 79 | 1010.3 |
| 20260901224949 | 85 | 218 | 0.0 | 0.0 | 0.00 | 0.01 | 0.01 | 79 | 1010.4 |
| 20260901224739 | 85 | 218 | 0.0 | 0.0 | 0.00 | 0.01 | 0.01 | 78 | 1010.6 |
| 20260901224628 | 85 | 218 | 0.0 | 0.0 | 0.00 | 0.01 | 0.01 | 78 | 1010.6 |
| 20260901224537 | 86 | 218 | 0.0 | 0.0 | 0.00 | 0.01 | 0.01 | 78 | 1010.5 |
| 20260901224437 | 86 | 218 | 0.0 | 0.0 | 0.00 | 0.01 | 0.01 | 78 | 1010.5 |
| 20260901224337 | 86 | 218 | 0.0 | 0.0 | 0.00 | 0.01 | 0.01 | 77 | 1010.3 |
| 20260901224248 | 86 | 218 | 0.0 | 0.0 | 0.00 | 0.01 | 0.01 | 77 | 1010.0 |
| 20260901224244 | 86 | 218 | 0.0 | 0.0 | 0.00 | 0.01 | 0.01 | 77 | 1010.2 |
| 20260901224128 | 86 | 218 | 0.0 | 0.0 | 0.00 | 0.01 | 0.01 | 77 | 1010.0 |
| 20260901224048 | 86 | 218 | 0.0 | 0.0 | 0.00 | 0.01 | 0.01 | 77 | 1010.1 |
| 20260901224044 | 86 | 218 | 0.0 | 0.0 | 0.00 | 0.01 | 0.01 | 77 | 1010.1 |
| 20260901224021 | 86 | 218 | 0.0 | 0.0 | 0.00 | 0.01 | 0.01 | 77 | 1010.0 |
| 20260901223833 | 86 | 218 | 0.0 | 0.0 | 0.00 | 0.01 | 0.01 | 77 | 1010.2 |
| 20260901223733 | 86 | 218 | 0.0 | 0.0 | 0.00 | 0.01 | 0.01 | 77 | 1010.4 |
| 20260901223705 | 87 | 218 | 0.0 | 0.0 | 0.00 | 0.01 | 0.01 | 77 | 1010.5 |
| 20260901223701 | 87 | 218 | 0.0 | 0.0 | 0.00 | 0.01 | 0.01 | 76 | 1010.6 |
| 20260901223649 | 87 | 218 | 0.0 | 0.0 | 0.00 | 0.01 | 0.01 | 77 | 1010.5 |
| 20260901223521 | 87 | 218 | 0.0 | 0.0 | 0.00 | 0.01 | 0.01 | 76 | 1010.6 |
| 20260901223331 | 87 | 218 | 0.0 | 0.0 | 0.00 | 0.01 | 0.01 | 76 | 1010.6 |
| 20260901223249 | 87 | 218 | 0.0 | 0.0 | 0.00 | 0.01 | 0.01 | 76 | 1010.6 |
| 20260901223244 | 87 | 218 | 0.0 | 0.0 | 0.00 | 0.01 | 0.01 | 76 | 1010.6 |
| 20260901223131 | 87 | 218 | 0.0 | 0.0 | 0.00 | 0.01 | 0.01 | 76 | 1010.6 |
| 20260901223040 | 87 | 218 | 0.0 | 0.0 | 0.00 | 0.01 | 0.01 | 75 | 1010.6 |
| 20260901223031 | 87 | 218 | 0.0 | 0.0 | 0.00 | 0.01 | 0.01 | 75 | 1010.6 |
| 20260901223021 | 87 | 218 | 0.0 | 0.0 | 0.00 | 0.01 | 0.01 | 75 | 1010.6 |
| 20260901222829 | 87 | 218 | 0.0 | 0.0 | 0.00 | 0.01 | 0.01 | 74 | 1010.6 |
| 20260901222822 | 87 | 218 | 0.0 | 0.9 | 0.00 | 0.01 | 0.01 | 74 | 1010.7 |
| 20260901222818 | 88 | 218 | 0.0 | 0.9 | 0.00 | 0.01 | 0.01 | 73 | 1010.7 |
| 20260901222812 | 87 | 218 | 0.0 | 0.0 | 0.00 | 0.01 | 0.01 | 74 | 1010.6 |
| 20260901222657 | 87 | 218 | 0.0 | 0.0 | 0.00 | 0.01 | 0.01 | 74 | 1010.7 |
| 20260901222521 | 88 | 218 | 0.0 | 0.9 | 0.00 | 0.01 | 0.01 | 74 | 1010.7 |
| 20260901222434 | 88 | 218 | 0.0 | 1.7 | 0.00 | 0.01 | 0.01 | 74 | 1010.5 |
| 20260901222430 | 88 | 218 | 0.0 | 1.7 | 0.00 | 0.01 | 0.01 | 73 | 1010.4 |
| 20260901222426 | 88 | 218 | 0.0 | 0.9 | 0.00 | 0.01 | 0.01 | 74 | 1010.7 |
| 20260901222419 | 88 | 218 | 0.0 | 1.7 | 0.00 | 0.01 | 0.01 | 73 | 1010.4 |
| 20260901222413 | 88 | 218 | 0.0 | 0.9 | 0.00 | 0.01 | 0.01 | 73 | 1010.7 |
| 20260901222149 | 88 | 218 | 0.0 | 0.9 | 0.00 | 0.01 | 0.01 | 74 | 1010.6 |
| 20260901222021 | 88 | 218 | 0.0 | 1.7 | 0.00 | 0.01 | 0.01 | 74 | 1010.4 |
| 20260901221722 | 88 | 218 | 0.0 | 1.7 | 0.00 | 0.01 | 0.01 | 72 | 1010.4 |
| 20260901221620 | 89 | 218 | 0.0 | 1.7 | 0.00 | 0.01 | 0.01 | 72 | 1010.4 |
| 20260901221536 | 89 | 218 | 0.9 | 1.7 | 0.00 | 0.01 | 0.01 | 71 | 1010.5 |
| 20260901221520 | 89 | 218 | 0.0 | 1.7 | 0.00 | 0.01 | 0.01 | 71 | 1010.5 |
| 20260901221420 | 89 | 218 | 0.0 | 1.7 | 0.00 | 0.01 | 0.01 | 71 | 1010.6 |
| 20260901221333 | 89 | 218 | 0.0 | 1.7 | 0.00 | 0.01 | 0.01 | 70 | 1010.7 |
| 20260901221328 | 89 | 218 | 0.0 | 1.7 | 0.00 | 0.01 | 0.01 | 71 | 1010.7 |
| 20260901221119 | 89 | 218 | 0.0 | 1.7 | 0.00 | 0.01 | 0.01 | 70 | 1010.7 |
| 20260901221021 | 89 | 218 | 0.0 | 1.7 | 0.00 | 0.01 | 0.01 | 70 | 1010.6 |
| 20260901221017 | 89 | 218 | 0.0 | 0.9 | 0.00 | 0.01 | 0.01 | 70 | 1010.7 |
| 20260901220917 | 89 | 218 | 0.0 | 1.7 | 0.00 | 0.01 | 0.01 | 70 | 1010.7 |
| 20260901220817 | 89 | 218 | 0.0 | 1.7 | 0.00 | 0.01 | 0.01 | 70 | 1010.7 |
| 20260901220716 | 89 | 218 | 0.0 | 1.7 | 0.00 | 0.01 | 0.01 | 70 | 1010.6 |
| 20260901220627 | 89 | 218 | 0.0 | 1.7 | 0.00 | 0.01 | 0.01 | 70 | 1010.6 |
| 20260901220616 | 89 | 218 | 0.0 | 1.7 | 0.00 | 0.01 | 0.01 | 69 | 1010.6 |
| 20260901220551 | 89 | 218 | 0.0 | 1.7 | 0.00 | 0.01 | 0.01 | 68 | 1010.4 |
| 20260901220515 | 89 | 218 | 0.0 | 1.7 | 0.00 | 0.01 | 0.01 | 68 | 1010.5 |
| 20260901220413 | 89 | 218 | 0.0 | 1.7 | 0.00 | 0.01 | 0.01 | 68 | 1010.5 |
| 20260901220313 | 89 | 218 | 0.0 | 1.7 | 0.00 | 0.01 | 0.01 | 68 | 1010.5 |
| 20260901220212 | 89 | 218 | 0.0 | 1.7 | 0.00 | 0.01 | 0.01 | 69 | 1010.5 |
| 20260901220126 | 89 | 218 | 0.0 | 1.7 | 0.00 | 0.01 | 0.01 | 69 | 1010.5 |
| 20260901220112 | 89 | 218 | 0.0 | 1.7 | 0.00 | 0.01 | 0.01 | 68 | 1010.5 |
| 20260901220021 | 89 | 218 | 1.7 | 1.7 | 0.00 | 0.01 | 0.01 | 68 | 1010.3 |
| 20260901220012 | 89 | 218 | 0.0 | 1.7 | 0.00 | 0.01 | 0.01 | 68 | 1010.4 |
| 20260901215910 | 89 | 218 | 0.0 | 1.7 | 0.00 | 0.01 | 0.01 | 68 | 1010.4 |
| 20260901215848 | 89 | 218 | 0.0 | 1.7 | 0.00 | 0.01 | 0.01 | 69 | 1010.4 |
| 20260901215736 | 89 | 218 | 0.0 | 0.0 | 0.00 | 0.01 | 0.01 | 69 | 1010.4 |
| 20260901215731 | 89 | 218 | 0.0 | 0.0 | 0.00 | 0.01 | 0.01 | 69 | 1010.4 |
| 20260901215723 | 89 | 218 | 0.0 | 0.0 | 0.00 | 0.01 | 0.01 | 69 | 1010.4 |
| 20260901215521 | 90 | 218 | 0.0 | 0.0 | 0.00 | 0.01 | 0.01 | 69 | 1010.3 |
| 20260901215406 | 89 | 218 | 0.0 | 0.0 | 0.00 | 0.01 | 0.01 | 69 | 1010.4 |
| 20260901215306 | 89 | 218 | 0.0 | 0.0 | 0.00 | 0.01 | 0.01 | 69 | 1010.4 |
| 20260901215206 | 89 | 218 | 0.0 | 0.0 | 0.00 | 0.01 | 0.01 | 69 | 1010.4 |
| 20260901215124 | 89 | 218 | 0.0 | 0.0 | 0.00 | 0.01 | 0.01 | 69 | 1010.4 |
| 20260901215105 | 89 | 218 | 0.0 | 0.0 | 0.00 | 0.01 | 0.01 | 69 | 1010.4 |
| 20260901215021 | 89 | 218 | 0.0 | 0.0 | 0.00 | 0.01 | 0.01 | 69 | 1010.4 |
| 20260901215005 | 89 | 218 | 0.0 | 0.0 | 0.00 | 0.01 | 0.01 | 69 | 1010.5 |
| 20260901214904 | 89 | 217 | 0.0 | 0.0 | 0.00 | 0.01 | 0.01 | 69 | 1010.5 |
| 20260901214804 | 89 | 217 | 0.0 | 0.0 | 0.00 | 0.01 | 0.01 | 68 | 1010.5 |
| 20260901214704 | 89 | 217 | 0.0 | 0.0 | 0.00 | 0.01 | 0.01 | 69 | 1010.5 |
| 20260901214622 | 89 | 217 | 0.0 | 0.0 | 0.00 | 0.01 | 0.01 | 69 | 1010.5 |
| 20260901214603 | 89 | 217 | 0.0 | 0.0 | 0.00 | 0.01 | 0.01 | 69 | 1010.5 |
| 20260901214521 | 89 | 217 | 0.0 | 0.0 | 0.00 | 0.01 | 0.01 | 68 | 1010.5 |
| 20260901214503 | 89 | 217 | 0.0 | 0.0 | 0.00 | 0.01 | 0.01 | 68 | 1010.6 |
| 20260901214401 | 89 | 217 | 0.0 | 0.0 | 0.00 | 0.01 | 0.01 | 68 | 1010.6 |
| 20260901214301 | 89 | 217 | 0.0 | 0.0 | 0.00 | 0.01 | 0.01 | 68 | 1010.6 |
| 20260901214201 | 89 | 217 | 0.0 | 0.0 | 0.00 | 0.01 | 0.01 | 69 | 1010.7 |
| 20260901214120 | 89 | 217 | 0.0 | 0.0 | 0.00 | 0.01 | 0.01 | 69 | 1010.7 |
| 20260901214059 | 89 | 217 | 0.0 | 0.0 | 0.00 | 0.01 | 0.01 | 69 | 1010.7 |
| 20260901214051 | 89 | 217 | 0.0 | 0.0 | 0.00 | 0.01 | 0.01 | 69 | 1010.7 |
| 20260901213959 | 89 | 217 | 0.0 | 0.0 | 0.00 | 0.01 | 0.01 | 69 | 1010.8 |
| 20260901213859 | 89 | 217 | 0.0 | 0.0 | 0.00 | 0.01 | 0.01 | 69 | 1010.8 |
| 20260901213847 | 89 | 273 | 0.0 | 0.0 | 0.00 | 0.01 | 0.01 | 70 | 1010.8 |
| 20260901213734 | 89 | 274 | 0.0 | 0.0 | 0.00 | 0.01 | 0.01 | 69 | 1010.8 |
| 20260901213622 | 89 | 274 | 0.0 | 0.0 | 0.00 | 0.01 | 0.01 | 68 | 1010.8 |
| 20260901213615 | 89 | 274 | 0.0 | 0.0 | 0.00 | 0.01 | 0.01 | 68 | 1010.8 |
| 20260901213521 | 89 | 274 | 0.0 | 0.0 | 0.00 | 0.01 | 0.01 | 68 | 1010.8 |
| 20260901213255 | 89 | 274 | 0.0 | 0.0 | 0.00 | 0.01 | 0.01 | 68 | 1011.0 |
| 20260901213155 | 89 | 274 | 0.0 | 0.0 | 0.00 | 0.01 | 0.01 | 68 | 1011.0 |
| 20260901213118 | 89 | 274 | 0.0 | 0.0 | 0.00 | 0.01 | 0.01 | 68 | 1011.0 |
| 20260901213054 | 89 | 274 | 0.0 | 0.0 | 0.00 | 0.01 | 0.01 | 68 | 1011.0 |
| 20260901213021 | 89 | 274 | 0.0 | 0.0 | 0.00 | 0.01 | 0.01 | 67 | 1010.9 |
| 20260901212954 | 89 | 274 | 0.0 | 0.0 | 0.00 | 0.01 | 0.01 | 67 | 1011.0 |
| 20260901212854 | 89 | 329 | 0.0 | 0.0 | 0.00 | 0.01 | 0.01 | 67 | 1011.1 |
| 20260901212753 | 89 | 285 | 0.0 | 0.0 | 0.00 | 0.01 | 0.01 | 67 | 1011.0 |
| 20260901212652 | 89 | 298 | 0.0 | 0.0 | 0.00 | 0.01 | 0.01 | 67 | 1011.0 |
| 20260901212617 | 89 | 304 | 0.0 | 0.0 | 0.00 | 0.01 | 0.01 | 67 | 1011.0 |
| 20260901212549 | 90 | 269 | 0.0 | 0.0 | 0.00 | 0.01 | 0.01 | 67 | 1011.0 |
| 20260901212521 | 90 | 270 | 0.0 | 1.7 | 0.00 | 0.01 | 0.01 | 67 | 1010.9 |
| 20260901212449 | 90 | 270 | 0.0 | 2.6 | 0.00 | 0.01 | 0.01 | 67 | 1011.0 |
| 20260901212348 | 90 | 270 | 0.0 | 2.6 | 0.00 | 0.01 | 0.01 | 67 | 1011.0 |
| 20260901212248 | 90 | 270 | 0.9 | 2.6 | 0.00 | 0.01 | 0.01 | 67 | 1010.9 |
| 20260901212148 | 90 | 270 | 0.9 | 2.6 | 0.00 | 0.01 | 0.01 | 66 | 1010.9 |
| 20260901212115 | 90 | 270 | 0.9 | 3.5 | 0.00 | 0.01 | 0.01 | 66 | 1010.9 |
| 20260901212102 | 90 | 271 | 0.9 | 3.5 | 0.00 | 0.01 | 0.01 | 66 | 1010.8 |
| 20260901212057 | 90 | 273 | 0.9 | 3.5 | 0.00 | 0.01 | 0.01 | 66 | 1010.9 |
| 20260901212036 | 90 | 271 | 0.0 | 3.5 | 0.00 | 0.01 | 0.01 | 66 | 1010.7 |
| 20260901211846 | 90 | 265 | 0.9 | 3.5 | 0.00 | 0.01 | 0.01 | 66 | 1010.8 |
| 20260901211747 | 90 | 265 | 1.7 | 5.2 | 0.00 | 0.01 | 0.01 | 65 | 1010.7 |
| 20260901211647 | 90 | 265 | 1.7 | 5.2 | 0.00 | 0.01 | 0.01 | 65 | 1010.7 |
| 20260901211615 | 91 | 265 | 1.7 | 5.2 | 0.00 | 0.01 | 0.01 | 65 | 1010.7 |
| 20260901211546 | 91 | 265 | 1.7 | 5.2 | 0.00 | 0.01 | 0.01 | 65 | 1010.7 |
| 20260901211521 | 91 | 267 | 1.7 | 5.2 | 0.00 | 0.01 | 0.01 | 65 | 1010.6 |
| 20260901211446 | 91 | 267 | 1.7 | 5.2 | 0.00 | 0.01 | 0.01 | 65 | 1010.7 |
| 20260901211344 | 91 | 267 | 1.7 | 5.2 | 0.00 | 0.01 | 0.01 | 65 | 1010.7 |
| 20260901211244 | 91 | 229 | 1.7 | 5.2 | 0.00 | 0.01 | 0.01 | 65 | 1010.7 |
| 20260901211143 | 91 | 296 | 1.7 | 6.1 | 0.00 | 0.01 | 0.01 | 65 | 1010.6 |
| 20260901211115 | 91 | 269 | 1.7 | 6.1 | 0.00 | 0.01 | 0.01 | 64 | 1010.6 |
| 20260901211051 | 91 | 269 | 0.9 | 6.1 | 0.00 | 0.01 | 0.01 | 65 | 1010.6 |
| 20260901211043 | 91 | 269 | 1.7 | 6.1 | 0.00 | 0.01 | 0.01 | 65 | 1010.6 |
| 20260901210941 | 91 | 269 | 1.7 | 6.1 | 0.00 | 0.01 | 0.01 | 65 | 1010.7 |
| 20260901210841 | 91 | 311 | 1.7 | 6.1 | 0.00 | 0.01 | 0.01 | 66 | 1010.7 |
| 20260901210821 | 91 | 271 | 1.7 | 6.1 | 0.00 | 0.01 | 0.01 | 65 | 1010.7 |
| 20260901210816 | 91 | 200 | 0.9 | 6.1 | 0.00 | 0.01 | 0.01 | 66 | 1010.7 |
| 20260901210703 | 91 | 270 | 0.9 | 6.1 | 0.00 | 0.01 | 0.01 | 66 | 1010.7 |
| 20260901210655 | 91 | 271 | 0.9 | 6.1 | 0.00 | 0.01 | 0.01 | 66 | 1010.7 |
| 20260901210521 | 91 | 271 | 0.0 | 6.1 | 0.00 | 0.01 | 0.01 | 65 | 1010.6 |
| 20260901210336 | 91 | 271 | 1.7 | 6.1 | 0.00 | 0.01 | 0.01 | 65 | 1010.7 |
| 20260901210236 | 91 | 271 | 0.9 | 6.1 | 0.00 | 0.01 | 0.01 | 64 | 1010.8 |
| 20260901210113 | 91 | 234 | 0.9 | 2.6 | 0.00 | 0.01 | 0.01 | 65 | 1010.7 |
| 20260901210035 | 91 | 234 | 0.9 | 2.6 | 0.00 | 0.01 | 0.01 | 65 | 1010.7 |
| 20260901210021 | 91 | 234 | 0.9 | 3.5 | 0.00 | 0.01 | 0.01 | 65 | 1010.6 |
| 20260901205934 | 91 | 234 | 0.9 | 3.5 | 0.00 | 0.01 | 0.01 | 65 | 1010.7 |
| 20260901205832 | 91 | 234 | 0.9 | 3.5 | 0.00 | 0.01 | 0.01 | 65 | 1010.7 |
| 20260901205732 | 91 | 234 | 0.9 | 3.5 | 0.00 | 0.01 | 0.01 | 65 | 1010.8 |
| 20260901205612 | 90 | 234 | 0.9 | 3.5 | 0.00 | 0.01 | 0.01 | 65 | 1010.8 |
| 20260901205533 | 90 | 235 | 0.9 | 3.5 | 0.00 | 0.01 | 0.01 | 65 | 1010.8 |
| 20260901205524 | 90 | 225 | 0.9 | 3.5 | 0.00 | 0.01 | 0.01 | 65 | 1010.8 |
| 20260901205521 | 90 | 236 | 1.7 | 3.5 | 0.00 | 0.01 | 0.01 | 66 | 1010.7 |
| 20260901205413 | 90 | 246 | 0.9 | 3.5 | 0.00 | 0.01 | 0.01 | 65 | 1010.7 |
| 20260901205408 | 90 | 246 | 0.9 | 3.5 | 0.00 | 0.01 | 0.01 | 66 | 1010.8 |
| 20260901205402 | 90 | 245 | 0.9 | 3.5 | 0.00 | 0.01 | 0.01 | 66 | 1010.8 |
| 20260901205244 | 90 | 246 | 0.9 | 3.5 | 0.00 | 0.01 | 0.01 | 65 | 1010.7 |
| 20260901205021 | 90 | 252 | 0.9 | 2.6 | 0.00 | 0.01 | 0.01 | 66 | 1010.7 |
| 20260901204929 | 90 | 252 | 0.9 | 3.5 | 0.00 | 0.01 | 0.01 | 66 | 1010.8 |
| 20260901204836 | 90 | 251 | 1.7 | 4.3 | 0.00 | 0.01 | 0.01 | 66 | 1010.8 |
| 20260901204827 | 90 | 251 | 0.9 | 3.5 | 0.00 | 0.01 | 0.01 | 66 | 1010.8 |
| 20260901204728 | 90 | 251 | 1.7 | 4.3 | 0.00 | 0.01 | 0.01 | 66 | 1010.7 |
| 20260901204719 | 90 | 251 | 1.7 | 4.3 | 0.00 | 0.01 | 0.01 | 66 | 1010.8 |
| 20260901204523 | 90 | 252 | 1.7 | 4.3 | 0.00 | 0.01 | 0.01 | 66 | 1010.8 |
| 20260901204521 | 90 | 252 | 1.7 | 4.3 | 0.00 | 0.01 | 0.01 | 66 | 1010.8 |
| 20260901204424 | 90 | 256 | 1.7 | 4.3 | 0.00 | 0.01 | 0.01 | 66 | 1010.9 |
| 20260901204337 | 90 | 235 | 1.7 | 4.3 | 0.00 | 0.01 | 0.01 | 66 | 1010.9 |
| 20260901204332 | 90 | 259 | 1.7 | 4.3 | 0.00 | 0.01 | 0.01 | 66 | 1010.8 |
| 20260901204122 | 90 | 235 | 1.7 | 4.3 | 0.00 | 0.01 | 0.01 | 66 | 1010.9 |
| 20260901204111 | 90 | 235 | 1.7 | 4.3 | 0.00 | 0.01 | 0.01 | 66 | 1010.9 |
| 20260901204021 | 90 | 235 | 1.7 | 4.3 | 0.00 | 0.01 | 0.01 | 65 | 1010.9 |
| 20260901203920 | 90 | 230 | 1.7 | 4.3 | 0.00 | 0.01 | 0.01 | 65 | 1010.9 |
| 20260901203833 | 90 | 231 | 0.9 | 4.3 | 0.00 | 0.01 | 0.01 | 67 | 1010.8 |
| 20260901203828 | 90 | 225 | 0.9 | 4.3 | 0.00 | 0.01 | 0.01 | 67 | 1010.8 |
| 20260901203639 | 90 | 176 | 0.9 | 4.3 | 0.00 | 0.01 | 0.01 | 67 | 1010.9 |
| 20260901203627 | 90 | 199 | 0.9 | 4.3 | 0.00 | 0.01 | 0.01 | 67 | 1010.9 |
| 20260901203521 | 90 | 170 | 0.9 | 4.3 | 0.00 | 0.01 | 0.01 | 67 | 1010.8 |
| 20260901203439 | 90 | 170 | 0.9 | 4.3 | 0.00 | 0.01 | 0.01 | 67 | 1010.9 |
| 20260901203326 | 90 | 169 | 0.9 | 6.1 | 0.00 | 0.01 | 0.01 | 67 | 1010.9 |
| 20260901203109 | 90 | 169 | 0.9 | 6.1 | 0.00 | 0.01 | 0.01 | 66 | 1010.9 |
| 20260901203030 | 90 | 168 | 1.7 | 6.1 | 0.00 | 0.01 | 0.01 | 65 | 1010.8 |
| 20260901203024 | 90 | 168 | 0.9 | 6.1 | 0.00 | 0.01 | 0.01 | 66 | 1010.8 |
| 20260901203021 | 90 | 168 | 0.9 | 6.1 | 0.00 | 0.01 | 0.01 | 66 | 1010.7 |
| 20260901202856 | 91 | 228 | 1.7 | 7.8 | 0.00 | 0.01 | 0.01 | 65 | 1010.9 |
| 20260901202815 | 90 | 168 | 1.7 | 6.1 | 0.00 | 0.01 | 0.01 | 65 | 1010.9 |
| 20260901202750 | 91 | 257 | 1.7 | 6.1 | 0.00 | 0.01 | 0.01 | 66 | 1010.9 |
| 20260901202741 | 91 | 228 | 1.7 | 7.8 | 0.00 | 0.01 | 0.01 | 65 | 1010.9 |
| 20260901202522 | 91 | 228 | 1.7 | 7.8 | 0.00 | 0.01 | 0.01 | 65 | 1011.0 |
| 20260901202311 | 91 | 260 | 1.7 | 7.8 | 0.00 | 0.01 | 0.01 | 65 | 1011.0 |
| 20260901202211 | 91 | 260 | 1.7 | 7.8 | 0.00 | 0.01 | 0.01 | 65 | 1010.9 |
| 20260901202112 | 91 | 261 | 1.7 | 7.8 | 0.00 | 0.01 | 0.01 | 65 | 1010.9 |
| 20260901202051 | 91 | 188 | 2.6 | 7.8 | 0.00 | 0.01 | 0.01 | 66 | 1010.8 |
| 20260901202010 | 91 | 189 | 1.7 | 7.8 | 0.00 | 0.01 | 0.01 | 66 | 1010.9 |
| 20260901201910 | 91 | 242 | 0.9 | 7.8 | 0.00 | 0.01 | 0.01 | 66 | 1010.9 |
| 20260901201809 | 91 | 246 | 0.9 | 7.8 | 0.00 | 0.01 | 0.01 | 66 | 1010.9 |
| 20260901201709 | 90 | 229 | 0.9 | 7.8 | 0.00 | 0.01 | 0.01 | 67 | 1010.9 |
| 20260901201610 | 90 | 250 | 0.9 | 3.5 | 0.00 | 0.01 | 0.01 | 68 | 1010.9 |
| 20260901201551 | 90 | 250 | 0.0 | 3.5 | 0.00 | 0.01 | 0.01 | 67 | 1010.9 |
| 20260901201508 | 90 | 250 | 0.9 | 3.5 | 0.00 | 0.01 | 0.01 | 67 | 1010.9 |
| 20260901201407 | 90 | 250 | 0.9 | 3.5 | 0.00 | 0.01 | 0.01 | 67 | 1011.0 |
| 20260901201353 | 90 | 290 | 1.7 | 5.2 | 0.00 | 0.01 | 0.01 | 68 | 1011.0 |
| 20260901201349 | 90 | 290 | 1.7 | 6.1 | 0.00 | 0.01 | 0.01 | 68 | 1011.0 |
| 20260901201344 | 89 | 296 | 1.7 | 6.1 | 0.00 | 0.01 | 0.01 | 68 | 1011.0 |
| 20260901201338 | 90 | 275 | 1.7 | 3.5 | 0.00 | 0.01 | 0.01 | 68 | 1011.0 |
| 20260901201114 | 90 | 290 | 1.7 | 6.1 | 0.00 | 0.01 | 0.01 | 68 | 1011.0 |
| 20260901201021 | 90 | 296 | 3.5 | 6.1 | 0.00 | 0.01 | 0.01 | 68 | 1010.9 |
| 20260901200930 | 89 | 284 | 1.7 | 6.1 | 0.00 | 0.01 | 0.01 | 68 | 1010.9 |
| 20260901200905 | 89 | 257 | 1.7 | 6.1 | 0.00 | 0.01 | 0.01 | 68 | 1011.0 |
| 20260901200833 | 89 | 284 | 1.7 | 6.1 | 0.00 | 0.01 | 0.01 | 68 | 1010.9 |
| 20260901200828 | 89 | 257 | 1.7 | 6.1 | 0.00 | 0.01 | 0.01 | 67 | 1011.0 |
| 20260901200819 | 89 | 247 | 1.7 | 6.1 | 0.00 | 0.01 | 0.01 | 68 | 1010.9 |
| 20260901200521 | 89 | 284 | 1.7 | 6.1 | 0.00 | 0.01 | 0.01 | 68 | 1010.8 |
| 20260901200503 | 89 | 284 | 1.7 | 6.1 | 0.00 | 0.01 | 0.01 | 68 | 1010.9 |
| 20260901200402 | 89 | 273 | 1.7 | 7.8 | 0.00 | 0.01 | 0.01 | 68 | 1010.9 |
| 20260901200303 | 89 | 280 | 1.7 | 7.8 | 0.00 | 0.01 | 0.01 | 67 | 1010.9 |
| 20260901200202 | 89 | 288 | 1.7 | 7.8 | 0.00 | 0.01 | 0.01 | 67 | 1010.9 |
| 20260901200107 | 89 | 255 | 1.7 | 7.8 | 0.00 | 0.02 | 0.01 | 67 | 1010.9 |
| 20260901200021 | 89 | 267 | 0.9 | 7.8 | 0.00 | 0.02 | 0.01 | 67 | 1010.9 |
| 20260901200001 | 89 | 267 | 1.7 | 7.8 | 0.00 | 0.02 | 0.01 | 67 | 1010.9 |
| 20260901195902 | 89 | 278 | 1.7 | 7.8 | 0.00 | 0.02 | 0.01 | 67 | 1010.9 |
| 20260901195802 | 89 | 278 | 1.7 | 7.8 | 0.00 | 0.02 | 0.01 | 67 | 1011.0 |
| 20260901195720 | 89 | 278 | 2.6 | 7.8 | 0.00 | 0.02 | 0.01 | 68 | 1011.0 |
| 20260901195715 | 89 | 278 | 2.6 | 7.8 | 0.00 | 0.02 | 0.01 | 67 | 1011.0 |
| 20260901195707 | 89 | 278 | 2.6 | 7.8 | 0.00 | 0.02 | 0.01 | 68 | 1011.0 |
| 20260901195521 | 89 | 278 | 1.7 | 7.8 | 0.00 | 0.02 | 0.01 | 67 | 1011.0 |
| 20260901195459 | 89 | 278 | 1.7 | 7.8 | 0.00 | 0.02 | 0.01 | 67 | 1011.0 |
| 20260901195359 | 89 | 259 | 1.7 | 7.8 | 0.00 | 0.02 | 0.01 | 67 | 1011.1 |
| 20260901195312 | 89 | 269 | 1.7 | 7.8 | 0.00 | 0.02 | 0.01 | 66 | 1011.1 |
| 20260901195307 | 89 | 265 | 1.7 | 7.8 | 0.00 | 0.02 | 0.01 | 67 | 1011.1 |
| 20260901195117 | 89 | 287 | 1.7 | 7.0 | 0.00 | 0.02 | 0.01 | 67 | 1011.2 |
| 20260901195112 | 89 | 268 | 1.7 | 7.8 | 0.00 | 0.02 | 0.01 | 66 | 1011.1 |
| 20260901195106 | 89 | 268 | 1.7 | 7.8 | 0.00 | 0.02 | 0.01 | 66 | 1011.1 |
| 20260901195036 | 89 | 275 | 1.7 | 7.0 | 0.00 | 0.02 | 0.01 | 67 | 1011.1 |
| 20260901194921 | 89 | 204 | 1.7 | 7.0 | 0.00 | 0.02 | 0.01 | 66 | 1011.2 |
| 20260901194917 | 89 | 202 | 0.9 | 7.0 | 0.00 | 0.02 | 0.01 | 67 | 1011.1 |
| 20260901194911 | 89 | 290 | 1.7 | 7.0 | 0.00 | 0.02 | 0.01 | 67 | 1011.1 |
| 20260901194606 | 89 | 271 | 0.9 | 7.0 | 0.00 | 0.02 | 0.01 | 66 | 1011.1 |
| 20260901194553 | 89 | 271 | 1.7 | 7.0 | 0.00 | 0.02 | 0.01 | 66 | 1011.0 |
| 20260901194521 | 90 | 271 | 0.9 | 7.0 | 0.00 | 0.02 | 0.01 | 66 | 1010.9 |
| 20260901194452 | 90 | 271 | 1.7 | 7.0 | 0.00 | 0.02 | 0.01 | 66 | 1011.0 |
| 20260901194349 | 90 | 271 | 1.7 | 7.0 | 0.00 | 0.02 | 0.01 | 65 | 1011.0 |
| 20260901194249 | 90 | 244 | 1.7 | 7.0 | 0.00 | 0.02 | 0.01 | 66 | 1011.1 |
| 20260901194149 | 90 | 319 | 1.7 | 5.2 | 0.00 | 0.02 | 0.01 | 66 | 1011.1 |
| 20260901194105 | 90 | 245 | 1.7 | 6.1 | 0.00 | 0.02 | 0.01 | 66 | 1011.0 |
| 20260901194048 | 90 | 245 | 1.7 | 6.1 | 0.00 | 0.02 | 0.01 | 66 | 1011.0 |
| 20260901194021 | 90 | 245 | 1.7 | 6.1 | 0.00 | 0.02 | 0.01 | 66 | 1010.9 |
| 20260901193947 | 90 | 245 | 1.7 | 6.1 | 0.00 | 0.02 | 0.01 | 66 | 1011.0 |
| 20260901193847 | 90 | 245 | 1.7 | 6.1 | 0.00 | 0.02 | 0.01 | 65 | 1011.1 |
| 20260901193747 | 90 | 247 | 1.7 | 6.1 | 0.00 | 0.02 | 0.01 | 65 | 1011.1 |
| 20260901193646 | 90 | 247 | 1.7 | 6.1 | 0.00 | 0.02 | 0.01 | 64 | 1011.1 |
| 20260901193605 | 90 | 240 | 1.7 | 6.1 | 0.00 | 0.02 | 0.01 | 64 | 1011.2 |
| 20260901193545 | 90 | 240 | 1.7 | 6.1 | 0.00 | 0.02 | 0.01 | 64 | 1011.2 |
| 20260901193536 | 91 | 332 | 0.9 | 6.1 | 0.00 | 0.02 | 0.01 | 64 | 1011.1 |
| 20260901193444 | 91 | 332 | 1.7 | 6.1 | 0.00 | 0.02 | 0.01 | 64 | 1011.2 |
| 20260901193344 | 91 | 252 | 1.7 | 6.1 | 0.00 | 0.02 | 0.01 | 64 | 1011.2 |
| 20260901193243 | 91 | 246 | 1.7 | 6.1 | 0.00 | 0.02 | 0.01 | 63 | 1011.3 |
| 20260901193142 | 91 | 255 | 2.6 | 6.1 | 0.00 | 0.02 | 0.01 | 64 | 1011.3 |
| 20260901193105 | 91 | 281 | 1.7 | 6.1 | 0.00 | 0.03 | 0.01 | 64 | 1011.3 |
| 20260901193042 | 91 | 281 | 1.7 | 6.1 | 0.00 | 0.03 | 0.01 | 64 | 1011.3 |
| 20260901193021 | 91 | 257 | 0.9 | 6.1 | 0.00 | 0.03 | 0.01 | 64 | 1011.2 |
| 20260901192940 | 91 | 263 | 1.7 | 6.1 | 0.00 | 0.03 | 0.01 | 64 | 1011.3 |
| 20260901192840 | 91 | 231 | 2.6 | 6.1 | 0.00 | 0.03 | 0.01 | 64 | 1011.3 |
| 20260901192741 | 91 | 231 | 2.6 | 6.1 | 0.00 | 0.03 | 0.01 | 63 | 1011.3 |
| 20260901192700 | 92 | 244 | 2.6 | 6.1 | 0.00 | 0.03 | 0.01 | 62 | 1011.2 |
| 20260901192655 | 92 | 225 | 2.6 | 6.1 | 0.00 | 0.03 | 0.01 | 63 | 1011.3 |
| 20260901192647 | 92 | 222 | 2.6 | 6.1 | 0.00 | 0.03 | 0.01 | 63 | 1011.3 |
| 20260901192522 | 92 | 244 | 1.7 | 6.1 | 0.00 | 0.03 | 0.01 | 62 | 1011.1 |
| 20260901192439 | 92 | 255 | 2.6 | 6.1 | 0.00 | 0.03 | 0.01 | 63 | 1011.2 |
| 20260901192339 | 92 | 166 | 2.6 | 6.1 | 0.00 | 0.03 | 0.01 | 63 | 1011.2 |
| 20260901192323 | 92 | 264 | 1.7 | 5.2 | 0.00 | 0.03 | 0.01 | 64 | 1011.2 |
| 20260901192239 | 92 | 107 | 2.6 | 6.1 | 0.00 | 0.03 | 0.01 | 62 | 1011.2 |
| 20260901192212 | 92 | 263 | 1.7 | 5.2 | 0.00 | 0.03 | 0.01 | 63 | 1011.2 |
| 20260901192039 | 92 | 250 | 1.7 | 5.2 | 0.00 | 0.03 | 0.01 | 64 | 1011.2 |
| 20260901192021 | 92 | 250 | 2.6 | 5.2 | 0.00 | 0.03 | 0.01 | 64 | 1011.2 |
| 20260901191937 | 92 | 272 | 1.7 | 5.2 | 0.00 | 0.03 | 0.01 | 63 | 1011.3 |
| 20260901191837 | 92 | 270 | 1.7 | 5.2 | 0.00 | 0.03 | 0.01 | 63 | 1011.2 |
| 20260901191736 | 92 | 315 | 1.7 | 5.2 | 0.00 | 0.03 | 0.01 | 64 | 1011.2 |
| 20260901191635 | 91 | 219 | 1.7 | 5.2 | 0.00 | 0.03 | 0.01 | 64 | 1011.2 |
| 20260901191604 | 91 | 217 | 0.9 | 5.2 | 0.00 | 0.03 | 0.01 | 64 | 1011.2 |
| 20260901191534 | 91 | 217 | 0.9 | 5.2 | 0.00 | 0.03 | 0.01 | 64 | 1011.2 |
| 20260901191521 | 91 | 221 | 2.6 | 5.2 | 0.00 | 0.03 | 0.01 | 65 | 1011.1 |
| 20260901191435 | 91 | 194 | 0.9 | 5.2 | 0.00 | 0.03 | 0.01 | 64 | 1011.2 |
| 20260901191334 | 91 | 263 | 0.9 | 4.3 | 0.00 | 0.03 | 0.01 | 64 | 1011.1 |
| 20260901191231 | 91 | 227 | 0.9 | 4.3 | 0.00 | 0.03 | 0.01 | 64 | 1011.2 |
| 20260901191130 | 91 | 242 | 0.9 | 4.3 | 0.00 | 0.03 | 0.01 | 64 | 1011.2 |
| 20260901191105 | 91 | 241 | 0.0 | 4.3 | 0.00 | 0.03 | 0.01 | 64 | 1011.2 |
| 20260901191036 | 91 | 241 | 0.9 | 4.3 | 0.00 | 0.03 | 0.01 | 64 | 1011.1 |
| 20260901191029 | 91 | 241 | 0.0 | 4.3 | 0.00 | 0.03 | 0.01 | 64 | 1011.2 |
| 20260901190929 | 91 | 242 | 0.0 | 4.3 | 0.00 | 0.03 | 0.01 | 64 | 1011.2 |
| 20260901190829 | 91 | 236 | 0.0 | 2.6 | 0.00 | 0.03 | 0.01 | 65 | 1011.2 |
| 20260901190727 | 91 | 254 | 0.0 | 1.7 | 0.00 | 0.03 | 0.01 | 65 | 1011.2 |
| 20260901190627 | 91 | 238 | 0.0 | 0.0 | 0.00 | 0.03 | 0.01 | 64 | 1011.2 |
| 20260901190604 | 91 | 236 | 0.0 | 0.0 | 0.00 | 0.03 | 0.01 | 64 | 1011.2 |
| 20260901190527 | 91 | 202 | 0.0 | 0.0 | 0.00 | 0.03 | 0.01 | 64 | 1011.2 |
| 20260901190521 | 91 | 202 | 0.0 | 0.0 | 0.00 | 0.03 | 0.01 | 63 | 1011.1 |
| 20260901190426 | 91 | 202 | 0.0 | 0.0 | 0.00 | 0.03 | 0.01 | 63 | 1011.2 |
| 20260901190340 | 91 | 278 | 0.0 | 0.0 | 0.00 | 0.03 | 0.01 | 65 | 1011.2 |
| 20260901190335 | 91 | 200 | 0.0 | 0.0 | 0.00 | 0.03 | 0.01 | 63 | 1011.3 |
| 20260901190145 | 91 | 277 | 0.0 | 0.0 | 0.00 | 0.03 | 0.01 | 65 | 1011.1 |
| 20260901190133 | 91 | 277 | 0.0 | 0.0 | 0.00 | 0.03 | 0.01 | 65 | 1011.1 |
| 20260901190021 | 91 | 277 | 0.0 | 0.0 | 0.00 | 0.03 | 0.01 | 64 | 1011.0 |
| 20260901185924 | 91 | 307 | 0.0 | 0.0 | 0.00 | 0.03 | 0.01 | 64 | 1011.1 |
| 20260901185823 | 91 | 309 | 0.0 | 0.0 | 0.00 | 0.03 | 0.01 | 64 | 1011.2 |
| 20260901185734 | 90 | 235 | 0.0 | 0.0 | 0.00 | 0.03 | 0.01 | 64 | 1011.1 |
| 20260901185729 | 90 | 309 | 0.0 | 0.0 | 0.00 | 0.03 | 0.01 | 64 | 1011.2 |
| 20260901185602 | 90 | 237 | 0.0 | 0.0 | 0.00 | 0.03 | 0.01 | 64 | 1011.2 |
| 20260901185522 | 90 | 243 | 0.0 | 0.0 | 0.00 | 0.03 | 0.01 | 65 | 1011.2 |
| 20260901185421 | 90 | 243 | 0.0 | 0.0 | 0.00 | 0.03 | 0.01 | 65 | 1011.3 |
| 20260901185329 | 90 | 286 | 0.0 | 0.0 | 0.00 | 0.03 | 0.01 | 64 | 1011.2 |
| 20260901185319 | 90 | 292 | 0.0 | 0.0 | 0.00 | 0.03 | 0.01 | 65 | 1011.3 |
| 20260901185219 | 90 | 269 | 0.0 | 0.0 | 0.00 | 0.03 | 0.01 | 65 | 1011.3 |
| 20260901185209 | 90 | 287 | 0.0 | 0.0 | 0.00 | 0.03 | 0.01 | 64 | 1011.2 |
| 20260901185021 | 90 | 263 | 0.0 | 0.0 | 0.00 | 0.03 | 0.01 | 65 | 1011.1 |
| 20260901185018 | 90 | 263 | 0.0 | 0.0 | 0.00 | 0.03 | 0.01 | 65 | 1011.2 |
| 20260901184919 | 90 | 267 | 0.0 | 0.0 | 0.00 | 0.03 | 0.01 | 65 | 1011.2 |
| 20260901184819 | 90 | 262 | 0.0 | 0.0 | 0.00 | 0.03 | 0.01 | 65 | 1011.3 |
| 20260901184717 | 90 | 262 | 0.0 | 0.0 | 0.00 | 0.03 | 0.01 | 65 | 1011.3 |
| 20260901184617 | 90 | 262 | 0.0 | 0.0 | 0.00 | 0.03 | 0.01 | 65 | 1011.3 |
| 20260901184601 | 90 | 262 | 0.0 | 0.0 | 0.00 | 0.03 | 0.01 | 65 | 1011.3 |
| 20260901184521 | 90 | 263 | 0.0 | 0.0 | 0.00 | 0.03 | 0.01 | 65 | 1011.3 |
| 20260901184515 | 90 | 263 | 0.0 | 0.0 | 0.00 | 0.03 | 0.01 | 65 | 1011.3 |
| 20260901184414 | 90 | 261 | 0.0 | 0.0 | 0.00 | 0.03 | 0.01 | 65 | 1011.4 |
| 20260901184321 | 90 | 278 | 0.0 | 0.0 | 0.00 | 0.03 | 0.01 | 64 | 1011.4 |
| 20260901184314 | 90 | 261 | 0.0 | 0.0 | 0.00 | 0.03 | 0.01 | 66 | 1011.4 |
| 20260901184216 | 90 | 263 | 0.0 | 0.0 | 0.00 | 0.03 | 0.01 | 65 | 1011.4 |
| 20260901184207 | 90 | 310 | 0.0 | 0.0 | 0.00 | 0.03 | 0.01 | 64 | 1011.4 |
| 20260901184021 | 90 | 280 | 0.0 | 0.0 | 0.00 | 0.03 | 0.01 | 65 | 1011.3 |
| 20260901184012 | 90 | 280 | 0.0 | 0.0 | 0.00 | 0.03 | 0.01 | 65 | 1011.4 |
| 20260901183912 | 90 | 178 | 0.0 | 0.0 | 0.00 | 0.03 | 0.01 | 65 | 1011.4 |
| 20260901183825 | 90 | 178 | 0.0 | 0.0 | 0.00 | 0.03 | 0.01 | 64 | 1011.4 |
| 20260901183820 | 90 | 178 | 0.0 | 0.0 | 0.00 | 0.03 | 0.01 | 65 | 1011.4 |
| 20260901183609 | 90 | 178 | 0.0 | 0.0 | 0.00 | 0.03 | 0.01 | 66 | 1011.4 |
| 20260901183600 | 90 | 178 | 0.0 | 0.0 | 0.00 | 0.03 | 0.01 | 66 | 1011.5 |
| 20260901183521 | 90 | 226 | 0.0 | 0.0 | 0.00 | 0.03 | 0.01 | 67 | 1011.4 |
| 20260901183508 | 90 | 226 | 0.0 | 0.0 | 0.00 | 0.03 | 0.01 | 67 | 1011.5 |
| 20260901183407 | 90 | 217 | 0.0 | 0.0 | 0.00 | 0.03 | 0.01 | 67 | 1011.5 |
| 20260901183306 | 90 | 170 | 0.0 | 0.0 | 0.00 | 0.03 | 0.01 | 68 | 1011.5 |
| 20260901183206 | 90 | 170 | 0.0 | 0.0 | 0.00 | 0.03 | 0.01 | 67 | 1011.6 |
| 20260901183106 | 90 | 170 | 0.0 | 0.0 | 0.00 | 0.03 | 0.01 | 67 | 1011.6 |
| 20260901183057 | 90 | 170 | 0.0 | 0.0 | 0.00 | 0.03 | 0.01 | 66 | 1011.6 |
| 20260901183021 | 90 | 170 | 0.0 | 0.0 | 0.00 | 0.03 | 0.01 | 65 | 1011.4 |
| 20260901183005 | 90 | 170 | 0.0 | 0.0 | 0.00 | 0.03 | 0.01 | 65 | 1011.5 |
| 20260901182920 | 90 | 249 | 0.0 | 0.0 | 0.00 | 0.03 | 0.01 | 66 | 1011.5 |
| 20260901182915 | 90 | 259 | 0.0 | 0.0 | 0.00 | 0.03 | 0.01 | 67 | 1011.5 |